[[{"header":{"parameterUnit":"m.s-1","parameterCategory":1,"la1":31.0,"la2":29.5877,"lo1":-88.7671,"lo2":-86.6584,"dy":0.0162,"dx":0.0185,"nx":115,"ny":88,"refTime":"2023-03-20T12:00:00:Z","depth":0,"parameterNumber":2,"parameterNumberName":"U-component_of_WINDS"},"data":[0.0,0.0,0.0,0.0,0.0,0.0,0.0,0.0,0.0,0.0,0.0,0.0,0.0,0.0,0.0,0.0,0.0,0.0,0.0,0.0,0.0,0.0,0.0,0.0,0.0,0.0,0.0,0.0,0.0,0.0,0.0,0.0,0.0,0.0,0.0,0.0,0.0,0.0,0.0,0.0,0.0,0.0,0.0,0.0,0.0,0.0,0.0,0.0,0.0,0.0,0.0,0.0,0.0,0.0,0.0,0.0,0.0,0.0,0.0,0.0,0.0,0.0,0.0,0.0,0.0,0.0,0.0,0.0,0.0,0.0,0.0,0.0,0.0,0.0,0.0,0.0,0.0,0.0,0.0,0.0,0.0,0.0,0.0,0.0,0.0,0.0,0.0,0.0,0.0,0.0,0.0,0.0,0.0,0.0,0.0,0.0,0.0,0.0,0.0,0.0,0.0,0.0,0.0,0.0,0.0,0.0,0.0,0.0,0.0,0.0,0.0,0.0,0.0,0.0,0.0,0.0,0.0,0.0,0.0,0.0,0.0,0.0,0.0,0.0,0.0,0.0,0.0,0.0,0.0,0.0,0.0,0.0,0.0,0.0,0.0,0.0,0.0,0.0,0.0,0.0,0.0,0.0,0.0,0.0,0.0,0.0,0.0,0.0,0.0,0.0,0.0,0.0,0.0,0.0,0.0,0.0,0.0,0.0,0.0,0.0,0.0,0.0,0.0,0.0,0.0,0.0,0.0,0.0,0.0,0.0,0.0,0.0,0.0,0.0,0.0,0.0,0.0,0.0,0.0,0.0,0.0,0.0,0.0,0.0,0.0,0.0,0.0,0.0,0.0,0.0,0.0,0.0,0.0,0.0,0.0,0.0,0.0,0.0,0.0,0.0,0.0,0.0,0.0,0.0,0.0,0.0,0.0,0.0,0.0,0.0,0.0,0.0,0.0,0.0,0.0,0.0,0.0,0.0,0.0,0.0,0.0,0.0,0.0,0.0,0.0,0.0,0.0,0.0,0.0,0.0,0.0,0.0,0.0,0.0,0.0,0.0,0.0,0.0,0.0,0.0,0.0,0.0,0.0,0.0,0.0,0.0,0.0,0.0,0.0,0.0,0.0,0.0,0.0,0.0,0.0,0.0,0.0,0.0,0.0,0.0,0.0,0.0,0.0,0.0,0.0,0.0,0.0,0.0,0.0,0.0,0.0,0.0,0.0,0.0,0.0,0.0,0.0,0.0,0.0,0.0,0.0,0.0,0.0,0.0,0.0,0.0,0.0,0.0,0.0,0.0,0.0,0.0,0.0,0.0,0.0,0.0,0.0,0.0,0.0,0.0,0.0,0.0,0.0,0.0,0.0,0.0,0.0,0.0,0.0,0.0,0.0,0.0,0.0,0.0,0.0,0.0,0.0,0.0,0.0,0.0,0.0,0.0,0.0,0.0,0.0,0.0,0.0,0.0,0.0,0.0,0.0,0.0,0.0,0.0,0.0,0.0,0.0,0.0,0.0,0.0,0.0,0.0,0.0,0.0,0.0,0.0,0.0,0.0,0.0,0.0,0.0,0.0,0.0,0.0,0.0,0.0,0.0,0.0,0.0,0.0,0.0,0.0,0.0,0.0,0.0,0.0,0.0,0.0,0.0,0.0,0.0,0.0,0.0,0.0,0.0,0.0,0.0,0.0,0.0,0.0,0.0,0.0,0.0,0.0,0.0,0.0,0.0,0.0,0.0,0.0,0.0,0.0,0.0,0.0,0.0,0.0,0.0,0.0,0.0,0.0,0.0,0.0,0.0,0.0,0.0,0.0,0.0,0.0,0.0,0.0,0.0,0.0,0.0,0.0,0.0,0.0,0.0,0.0,0.0,0.0,0.0,0.0,0.0,0.0,0.0,0.0,0.0,0.0,0.0,0.0,0.0,0.0,0.0,0.0,0.0,0.0,0.0,0.0,0.0,0.0,0.0,0.0,0.0,0.0,0.0,0.0,0.0,0.0,0.0,0.0,0.0,0.0,0.0,0.0,0.0,0.0,0.0,0.0,0.0,0.0,0.0,0.0,0.0,0.0,0.0,0.0,0.0,0.0,0.0,0.0,0.0,0.0,0.0,0.0,0.0,0.0,0.0,0.0,0.0,0.0,0.0,0.0,0.0,0.0,0.0,0.0,0.0,0.0,0.0,0.0,0.0,0.0,0.0,0.0,0.0,0.0,0.0,0.0,0.0,0.0,0.0,0.0,0.0,0.0,0.0,0.0,0.0,0.0,0.0,0.0,0.0,0.0,0.0,0.0,0.0,0.0,0.0,0.0,0.0,0.0,0.0,0.0,0.0,0.0,0.0,0.0,0.0,0.0,0.0,0.0,0.0,0.0,0.0,0.0,0.0,0.0,0.0,0.0,0.0,0.0,0.0,0.0,0.0,0.0,0.0,0.0,0.0,0.0,0.0,0.0,0.0,0.0,0.0,0.0,0.0,0.0,0.0,0.0,0.0,0.0,0.0,0.0,0.0,0.0,0.0,0.0,0.0,0.0,0.0,0.0,0.0,0.0,0.0,0.0,0.0,0.0,0.0,0.0,0.0,0.0,0.0,0.0,0.0,0.0,0.0,0.0,0.0,0.0,0.0,0.0,0.0,0.0,0.0,0.0,0.0,0.0,0.0,0.0,0.0,0.0,0.0,0.0,0.0,0.0,0.0,0.0,0.0,0.0,0.0,0.0,0.0,0.0,0.0,0.0,0.0,0.0,0.0,0.0,0.0,0.0,0.0,0.0,0.0,0.0,0.0,0.0,0.0,0.0,0.0,0.0,0.0,0.0,0.0,0.0,0.0,0.0,0.0,0.0,0.0,0.0,0.0,0.0,0.0,0.0,0.0,0.0,0.0,0.0,0.0,0.0,0.0,0.0,0.0,0.0,0.0,0.0,0.0,0.0,0.0,0.0,0.0,0.0,0.0,0.0,0.0,0.0,0.0,0.0,0.0,0.0,0.0,0.0,0.0,0.0,0.0,0.0,0.0,0.0,0.0,0.0,0.0,0.0,0.0,0.0,0.0,0.0,0.0,0.0,0.0,0.0,0.0,0.0,0.0,0.0,0.0,0.0,0.0,0.0,0.0,0.0,0.0,0.0,0.0,0.0,0.0,0.0,0.0,0.0,0.0,0.0,0.0,0.0,0.0,0.0,0.0,0.0,0.0,0.0,0.0,0.0,0.0,0.0,0.0,0.0,0.0,0.0,0.0,0.0,0.0,0.0,0.0,0.0,0.0,0.0,0.0,0.0,0.0,0.0,0.0,0.0,0.0,0.0,0.0,0.0,0.0,0.0,0.0,0.0,0.0,0.0,0.0,0.0,0.0,0.0,0.0,0.0,0.0,0.0,0.0,0.0,0.0,0.0,0.0,0.0,0.0,0.0,0.0,0.0,0.0,0.0,0.0,0.0,0.0,0.0,0.0,0.0,0.0,0.0,0.0,0.0,0.0,0.0,0.0,0.0,0.0,0.0,0.0,0.0,0.0,0.0,0.0,0.0,0.0,0.0,0.0,0.0,0.0,0.0,0.0,0.0,0.0,0.0,0.0,0.0,0.0,0.0,0.0,0.0,0.0,0.0,0.0,0.0,0.0,0.0,0.0,0.0,0.0,0.0,0.0,0.0,0.0,0.0,0.0,0.0,0.0,0.0,0.0,0.0,0.0,0.0,0.0,0.0,0.0,0.0,0.0,0.0,0.0,0.0,0.0,0.0,0.0,0.0,0.0,0.0,0.0,0.0,0.0,0.0,0.0,0.0,0.0,0.0,0.0,0.0,0.0,0.0,0.0,0.0,0.0,0.0,0.0,0.0,0.0,0.0,0.0,0.0,0.0,0.0,0.0,0.0,0.0,0.0,0.0,0.0,0.0,0.0,0.0,0.0,0.0,0.0,0.0,0.0,0.0,0.0,0.0,0.0,0.0,0.0,0.0,0.0,0.0,0.0,0.0,0.0,0.0,0.0,0.0,0.0,0.0,0.0,0.0,0.0,0.0,0.0,0.0,0.0,0.0,0.0,0.0,0.0,0.0,0.0,0.0,0.0,0.0,0.0,0.0,0.0,0.0,0.0,0.0,0.0,0.0,0.0,0.0,0.0,0.0,0.0,0.0,0.0,0.0,0.0,0.0,0.0,0.0,0.0,0.0,0.0,0.0,0.0,0.0,0.0,0.0,0.0,0.0,0.0,0.0,0.0,0.0,0.0,0.0,0.0,0.0,0.0,0.0,0.0,0.0,0.0,0.0,0.0,0.0,0.0,0.0,0.0,0.0,0.0,1.557,0.0,0.0,0.0,0.0,0.0,0.0,0.0,0.0,0.0,0.0,0.0,0.0,0.0,0.0,0.0,0.0,0.0,0.0,0.0,0.0,0.0,0.0,0.0,0.0,0.0,0.0,0.0,0.0,0.0,0.0,0.0,0.0,0.0,0.0,0.0,0.0,0.0,0.0,0.0,0.0,0.0,0.0,0.0,0.0,0.0,0.0,0.0,0.0,0.0,0.0,0.0,0.0,0.0,0.0,0.0,0.0,0.0,0.0,0.0,0.0,0.0,0.0,0.0,0.0,0.0,0.0,0.0,0.0,0.0,0.0,0.0,0.0,0.0,0.0,0.0,0.0,0.0,0.0,0.0,0.0,0.0,0.0,0.0,0.0,0.0,0.0,0.0,0.0,0.0,0.0,0.0,0.0,0.0,0.0,0.0,0.0,0.0,0.0,0.0,0.0,0.0,0.0,0.0,0.0,0.0,0.0,0.0,0.0,0.0,0.0,1.7088,1.715,1.5892,1.5644,1.6583,0.0,0.0,0.0,0.0,0.0,0.0,0.0,0.0,0.0,0.0,0.0,0.0,0.0,0.0,0.0,0.0,0.0,0.0,0.0,0.0,0.0,0.0,0.0,0.0,0.0,0.0,0.0,0.0,0.0,0.0,0.0,0.0,0.0,0.0,0.0,0.0,0.0,0.0,0.0,0.0,0.0,0.0,0.0,0.0,0.0,0.0,0.0,0.0,0.0,0.0,0.0,0.0,0.0,0.0,0.0,0.0,0.0,0.0,0.0,0.0,0.0,0.0,0.0,0.0,0.0,0.0,0.0,0.0,0.0,0.0,0.0,0.0,0.0,0.0,0.0,0.0,0.0,0.0,0.0,0.0,0.0,0.0,0.0,0.0,0.0,0.0,0.0,0.0,0.0,0.0,0.0,0.0,0.0,0.0,0.0,0.0,0.0,0.0,0.0,0.0,0.0,0.0,0.0,0.0,0.0,0.0,0.0,0.0,0.0,0.0,0.0,0.0,1.6939,1.6558,1.748,0.0,0.0,0.0,0.0,0.0,0.0,0.0,0.0,0.0,0.0,0.0,0.0,0.0,0.0,0.0,0.0,0.0,0.0,0.0,0.0,0.0,0.0,0.0,0.0,0.0,0.0,0.0,0.0,0.0,0.0,0.0,0.0,0.0,0.0,0.0,0.0,0.0,0.0,0.0,0.0,0.0,0.0,0.0,0.0,0.0,0.0,0.0,0.0,0.0,0.0,0.0,0.0,0.0,0.0,0.0,0.0,0.0,0.0,0.0,0.0,0.0,0.0,0.0,0.0,0.0,0.0,0.0,0.0,0.0,0.0,0.0,0.0,0.0,0.0,0.0,0.0,0.0,0.0,0.0,0.0,0.0,0.0,0.0,0.0,0.0,0.0,0.0,0.0,0.0,0.0,0.0,0.0,0.0,0.0,0.0,0.0,0.0,0.0,0.0,0.0,0.0,0.0,0.0,0.0,0.0,0.0,0.0,0.0,0.0,0.0,1.8955,2.0034,1.9274,0.0,1.808,0.0,0.0,0.0,0.0,0.0,0.0,0.0,0.0,0.0,0.0,0.0,0.0,0.0,0.0,0.0,0.0,0.0,0.0,0.0,0.0,0.0,0.0,0.0,0.0,0.0,0.0,0.0,0.0,0.0,0.0,0.0,0.0,0.0,0.0,0.0,0.0,0.0,0.0,0.0,0.0,0.0,0.0,0.0,0.0,0.0,0.0,0.0,0.0,0.0,0.0,0.0,0.0,0.0,0.0,0.0,0.0,0.0,0.0,0.0,0.0,0.0,0.0,0.0,0.0,0.0,0.0,0.0,0.0,0.0,0.0,0.0,0.0,0.0,0.0,0.0,0.0,0.0,0.0,0.0,0.0,0.0,0.0,0.0,0.0,0.0,0.0,0.0,0.0,0.0,0.0,0.0,0.0,0.0,0.0,0.0,0.0,0.0,0.0,0.0,0.0,0.0,0.0,0.0,0.0,0.0,0.0,0.0,0.0,0.0,0.0,1.8996,2.0377,2.0127,1.9053,0.0,0.0,0.0,0.0,0.0,0.0,0.0,0.0,0.0,0.0,0.0,0.0,0.0,0.0,0.0,0.0,0.0,0.0,0.0,0.0,0.0,0.0,0.0,0.0,0.0,0.0,0.0,0.0,0.0,0.0,0.0,0.0,0.0,0.0,0.0,0.0,0.0,0.0,0.0,0.0,0.0,0.0,0.0,0.0,0.0,0.0,0.0,0.0,0.0,0.0,0.0,0.0,0.0,0.0,0.0,0.0,0.0,0.0,0.0,0.0,0.0,0.0,0.0,0.0,0.0,0.0,0.0,0.0,0.0,0.0,0.0,0.0,0.0,0.0,0.0,0.0,0.0,0.0,0.0,0.0,0.0,0.0,0.0,0.0,0.0,0.0,0.0,0.0,0.0,0.0,0.0,0.0,0.0,0.0,0.0,0.0,0.0,0.0,0.0,0.0,0.0,0.0,0.0,0.0,0.0,0.0,0.0,0.0,0.0,0.0,1.9168,1.9363,2.0497,1.9801,1.8549,1.6862,0.0,0.0,0.0,0.0,0.0,0.0,0.0,0.0,0.0,0.0,0.0,0.0,0.0,0.0,0.0,0.0,0.0,0.0,0.0,0.0,0.0,0.0,0.0,0.0,0.0,0.0,0.0,0.0,0.0,0.0,0.0,0.0,0.0,0.0,0.0,0.0,0.0,0.0,0.0,0.0,0.0,0.0,0.0,0.0,0.0,0.0,0.0,0.0,0.0,0.0,0.0,0.0,0.0,0.0,0.0,0.0,0.0,0.0,0.0,0.0,0.0,0.0,0.0,0.0,0.0,0.0,0.0,0.0,0.0,0.0,0.0,0.0,0.0,0.0,0.0,0.0,0.0,0.0,0.0,0.0,0.0,0.0,0.0,0.0,0.0,0.0,0.0,0.0,0.0,0.0,0.0,0.0,0.0,0.0,0.0,0.0,0.0,0.0,0.0,0.0,0.0,0.0,0.0,0.0,0.0,0.0,0.0,0.0,2.3008,2.1225,2.0438,2.0874,1.8096,1.6995,0.0,0.0,0.0,0.0,0.0,0.0,0.0,0.0,0.0,0.0,0.0,0.0,0.0,0.0,0.0,0.0,0.0,0.0,0.0,0.0,0.0,0.0,0.0,0.0,0.0,0.0,0.0,0.0,0.0,0.0,0.0,0.0,0.0,0.0,0.0,0.0,0.0,0.0,0.0,0.0,0.0,0.0,0.0,0.0,0.0,0.0,0.0,0.0,0.0,0.0,0.0,0.0,0.0,0.0,0.0,0.0,0.0,0.0,0.0,0.0,0.0,0.0,0.0,0.0,0.0,0.0,0.0,0.0,0.0,0.0,0.0,0.0,0.0,0.0,0.0,0.0,0.0,0.0,0.0,0.0,0.0,0.0,0.0,0.0,0.0,0.0,0.0,0.0,0.0,0.0,0.0,0.0,0.0,0.0,0.0,0.0,0.0,0.0,0.0,0.0,0.0,0.0,0.0,0.0,0.0,0.0,0.0,0.0,0.0,2.0239,2.0382,2.0172,1.9655,1.9006,1.8486,0.0,0.0,0.0,0.0,0.0,0.0,0.0,0.0,0.0,0.0,0.0,0.0,0.0,0.0,0.0,0.0,0.0,0.0,0.0,0.0,0.0,0.0,0.0,0.0,0.0,0.0,0.0,0.0,0.0,0.0,0.0,0.0,0.0,0.0,0.0,0.0,0.0,0.0,0.0,0.0,0.0,0.0,0.0,0.0,0.0,0.0,0.0,0.0,0.0,0.0,0.0,0.0,0.0,0.0,0.0,0.0,0.0,0.0,0.0,0.0,0.0,0.0,0.0,0.0,0.0,0.0,0.0,0.0,0.0,0.0,0.0,0.0,0.0,0.0,0.0,0.0,0.0,0.0,0.0,0.0,0.0,0.0,0.0,0.0,0.0,0.0,0.0,0.0,0.0,0.0,0.0,0.0,0.0,0.0,0.0,0.0,0.0,0.0,0.0,0.0,0.0,0.0,0.0,0.0,0.0,0.0,0.0,0.0,0.0,1.9287,0.0,2.0341,1.9178,1.9208,1.8601,0.0,0.0,0.0,0.0,0.0,0.0,0.0,0.0,0.0,0.0,0.0,0.0,0.0,0.0,0.0,0.0,0.0,0.0,0.0,0.0,0.0,0.0,0.0,0.0,0.0,0.0,0.0,0.0,0.0,0.0,0.0,0.0,0.0,0.0,0.0,0.0,0.0,0.0,0.0,0.0,0.0,0.0,0.0,0.0,0.0,0.0,0.0,0.0,0.0,0.0,0.0,0.0,0.0,0.0,0.0,0.0,0.0,0.0,0.0,0.0,0.0,0.0,0.0,0.0,0.0,0.0,0.0,0.0,0.0,0.0,0.0,0.0,0.0,0.0,0.0,0.0,0.0,0.0,0.0,0.0,0.0,0.0,0.0,0.0,0.0,0.0,0.0,0.0,0.0,0.0,0.0,0.0,0.0,0.0,0.0,0.0,0.0,0.0,0.0,0.0,0.0,0.0,0.0,0.0,0.0,0.0,0.0,0.0,1.9504,2.079,2.1397,2.0975,1.9583,1.838,1.7178,0.0,0.0,0.0,0.0,0.0,0.0,0.0,0.0,0.0,0.0,0.0,0.0,0.0,0.0,0.0,0.0,0.0,0.0,0.0,0.0,0.0,0.0,0.0,0.0,0.0,0.0,0.0,0.0,0.0,0.0,0.0,0.0,0.0,0.0,0.0,0.0,0.0,0.0,0.0,0.0,0.0,0.0,0.0,0.0,0.0,0.0,0.0,0.0,0.0,0.0,0.0,0.0,0.0,0.0,0.0,0.0,0.0,0.0,0.0,0.0,0.0,0.0,0.0,0.0,0.0,0.0,0.0,0.0,0.0,0.0,0.0,0.0,0.0,0.0,0.0,0.0,0.0,0.0,0.0,0.0,0.0,0.0,0.0,0.0,0.0,0.0,0.0,0.0,0.0,0.0,0.0,0.0,0.0,0.0,0.0,0.0,0.0,0.0,0.0,0.0,0.0,0.0,0.0,0.0,0.0,0.0,0.0,0.0,0.0,1.968,2.0096,2.0551,2.0923,1.8492,1.7589,0.0,0.0,0.0,0.0,0.0,0.0,0.0,0.0,0.0,0.0,0.0,0.0,0.0,0.0,0.0,0.0,0.0,0.0,0.0,0.0,0.0,0.0,0.0,0.0,0.0,0.0,0.0,0.0,0.0,0.0,0.0,0.0,0.0,0.0,0.0,0.0,0.0,0.0,0.0,0.0,0.0,0.0,0.0,0.0,0.0,0.0,0.0,0.0,0.0,0.0,0.0,0.0,0.0,0.0,0.0,0.0,0.0,0.0,0.0,0.0,0.0,0.0,0.0,0.0,0.0,0.0,0.0,0.0,0.0,0.0,0.0,0.0,0.0,0.0,0.0,0.0,0.0,0.0,0.0,0.0,0.0,0.0,0.0,0.0,0.0,0.0,0.0,0.0,0.0,0.0,0.0,0.0,0.0,0.0,0.0,0.0,0.0,0.0,0.0,0.0,0.0,0.0,0.0,0.0,0.0,0.0,0.0,0.0,0.0,2.0703,2.1195,2.1374,2.1217,1.9389,1.8342,1.828,0.0,0.0,0.0,0.0,0.0,0.0,0.0,0.0,0.0,0.0,0.0,0.0,0.0,0.0,0.0,0.0,0.0,0.0,0.0,0.0,0.0,0.0,0.0,0.0,0.0,0.0,0.0,0.0,0.0,0.0,0.0,0.0,0.0,0.0,0.0,0.0,0.0,0.0,0.0,0.0,0.0,0.0,0.0,0.0,0.0,0.0,0.0,0.0,0.0,0.0,0.0,0.0,0.0,0.0,0.0,0.0,0.0,0.0,0.0,0.0,0.0,0.0,0.0,0.0,0.0,0.0,0.0,0.0,0.0,0.0,0.0,0.0,0.0,0.0,0.0,0.0,0.0,0.0,0.0,0.0,0.0,0.0,0.0,0.0,0.0,0.0,0.0,0.0,0.0,0.0,0.0,0.0,0.0,0.0,0.0,0.0,0.0,0.0,0.0,0.0,0.0,0.0,0.0,0.0,0.0,0.0,0.0,0.0,2.3242,2.4176,2.3392,2.0772,2.0737,1.9289,0.0,0.0,0.0,0.0,0.0,0.0,0.0,0.0,0.0,0.0,0.0,0.0,0.0,0.0,0.0,0.0,0.0,0.0,0.0,0.0,0.0,0.0,0.0,0.0,0.0,0.0,0.0,0.0,0.0,0.0,0.0,0.0,0.0,0.0,0.0,0.0,0.0,0.0,0.0,0.0,0.0,0.0,0.0,0.0,0.0,0.0,0.0,0.0,0.0,0.0,0.0,0.0,0.0,0.0,0.0,0.0,0.0,0.0,0.0,0.0,0.0,0.0,0.0,0.0,0.0,0.0,0.0,0.0,0.0,0.0,0.0,0.0,0.0,0.0,0.0,0.0,0.0,0.0,0.0,0.0,0.0,0.0,0.0,0.0,0.0,0.0,0.0,0.0,0.0,0.0,0.0,0.0,0.0,0.0,0.0,0.0,0.0,0.0,0.0,0.0,0.0,0.0,0.0,0.0,0.0,0.0,0.0,0.0,0.0,2.3892,2.5823,2.5778,2.3493,2.0978,1.9182,0.0,0.0,0.0,0.0,0.0,0.0,0.0,0.0,0.0,0.0,0.0,0.0,0.0,0.0,0.0,0.0,0.0,0.0,0.0,0.0,0.0,0.0,0.0,0.0,0.0,0.0,0.0,0.0,0.0,0.0,0.0,0.0,0.0,0.0,0.0,0.0,0.0,0.0,0.0,0.0,0.0,0.0,0.0,0.0,0.0,0.0,0.0,0.0,0.0,0.0,0.0,0.0,0.0,0.0,0.0,0.0,0.0,0.0,0.0,0.0,0.0,0.0,0.0,0.0,0.0,0.0,0.0,0.0,0.0,0.0,0.0,0.0,0.0,0.0,0.0,0.0,0.0,0.0,0.0,0.0,0.0,0.0,0.0,0.0,0.0,0.0,0.0,0.0,0.0,0.0,0.0,0.0,0.0,0.0,0.0,0.0,0.0,0.0,0.0,0.0,0.0,0.0,0.0,0.0,0.0,0.0,0.0,0.0,2.3646,2.5207,2.6879,2.7075,2.5605,2.3293,2.0963,0.0,0.0,0.0,0.0,0.0,0.0,0.0,0.0,0.0,0.0,0.0,0.0,0.0,0.0,0.0,0.0,0.0,0.0,0.0,0.0,0.0,0.0,0.0,0.0,0.0,0.0,0.0,0.0,0.0,0.0,0.0,0.0,0.0,0.0,0.0,0.0,0.0,0.0,0.0,0.0,0.0,0.0,0.0,0.0,0.0,0.0,0.0,0.0,0.0,0.0,0.0,0.0,0.0,0.0,0.0,0.0,0.0,0.0,0.0,0.0,0.0,0.0,0.0,0.0,0.0,0.0,0.0,0.0,0.0,0.0,0.0,0.0,0.0,0.0,0.0,0.0,0.0,0.0,0.0,0.0,0.0,0.0,0.0,0.0,0.0,0.0,0.0,0.0,0.0,0.0,0.0,0.0,0.0,0.0,0.0,0.0,0.0,0.0,0.0,0.0,0.0,0.0,0.0,0.0,0.0,0.0,0.0,0.0,2.4502,2.6738,2.7584,2.7716,2.7173,2.6139,2.3379,0.0,0.0,0.0,0.0,0.0,0.0,0.0,0.0,0.0,0.0,0.0,0.0,0.0,0.0,0.0,0.0,0.0,0.0,0.0,0.0,0.0,0.0,0.0,0.0,0.0,0.0,0.0,0.0,0.0,0.0,0.0,0.0,0.0,0.0,0.0,0.0,0.0,0.0,0.0,0.0,0.0,0.0,0.0,0.0,0.0,0.0,0.0,0.0,0.0,0.0,0.0,0.0,0.0,0.0,0.0,0.0,0.0,0.0,0.0,0.0,0.0,0.0,0.0,0.0,0.0,0.0,0.0,0.0,0.0,0.0,0.0,0.0,0.0,0.0,0.0,0.0,0.0,0.0,0.0,0.0,0.0,0.0,0.0,0.0,0.0,0.0,0.0,0.0,0.0,0.0,0.0,0.0,0.0,0.0,0.0,0.0,0.0,0.0,0.0,0.0,0.0,0.0,0.0,0.0,0.0,0.0,0.0,0.0,2.5344,2.6766,2.8327,2.8665,2.7755,2.4892,2.217,0.0,0.0,0.0,0.0,0.0,0.0,0.0,0.0,0.0,0.0,0.0,0.0,0.0,0.0,0.0,0.0,0.0,0.0,0.0,0.0,0.0,0.0,0.0,0.0,0.0,0.0,0.0,0.0,0.0,0.0,0.0,0.0,0.0,0.0,0.0,0.0,0.0,0.0,0.0,0.0,0.0,0.0,0.0,0.0,0.0,0.0,0.0,0.0,2.291,0.0,0.0,0.0,0.0,0.0,0.0,0.0,0.0,0.0,0.0,0.0,0.0,0.0,0.0,0.0,0.0,0.0,0.0,0.0,0.0,0.0,0.0,0.0,0.0,0.0,0.0,0.0,0.0,0.0,0.0,0.0,0.0,0.0,0.0,0.0,0.0,0.0,0.0,0.0,0.0,0.0,0.0,0.0,0.0,0.0,0.0,0.0,0.0,0.0,0.0,0.0,0.0,0.0,0.0,0.0,0.0,0.0,0.0,0.0,2.5588,2.7596,2.8573,2.8551,2.7451,2.4727,2.2305,0.0,0.0,0.0,0.0,0.0,0.0,0.0,0.0,0.0,0.0,0.0,0.0,0.0,0.0,0.0,0.0,0.0,0.0,0.0,0.0,0.0,0.0,0.0,0.0,0.0,0.0,0.0,0.0,0.0,0.0,0.0,0.0,0.0,0.0,0.0,0.0,0.0,0.0,0.0,0.0,0.0,0.0,0.0,0.0,0.0,0.0,0.0,0.0,0.0,0.0,0.0,0.0,0.0,0.0,0.0,0.0,0.0,0.0,0.0,0.0,0.0,0.0,0.0,0.0,0.0,0.0,0.0,0.0,0.0,0.0,0.0,0.0,0.0,0.0,0.0,0.0,0.0,0.0,0.0,0.0,0.0,0.0,0.0,0.0,0.0,0.0,0.0,0.0,0.0,0.0,0.0,0.0,0.0,0.0,0.0,0.0,0.0,0.0,0.0,0.0,0.0,0.0,0.0,0.0,0.0,0.0,0.0,2.3973,2.5805,2.8573,2.8657,2.8061,2.6886,2.4715,2.2702,2.0831,0.0,0.0,0.0,0.0,0.0,0.0,0.0,0.0,0.0,0.0,0.0,0.0,0.0,0.0,0.0,0.0,0.0,0.0,0.0,0.0,0.0,0.0,0.0,0.0,0.0,0.0,0.0,0.0,0.0,0.0,0.0,0.0,0.0,0.0,0.0,0.0,0.0,0.0,2.2704,2.3266,0.0,0.0,0.0,0.0,0.0,0.0,0.0,0.0,2.302,0.0,0.0,0.0,0.0,0.0,0.0,0.0,0.0,0.0,0.0,0.0,0.0,0.0,0.0,0.0,0.0,0.0,0.0,0.0,0.0,0.0,0.0,0.0,0.0,0.0,0.0,0.0,0.0,0.0,0.0,0.0,0.0,0.0,0.0,0.0,0.0,0.0,0.0,0.0,0.0,0.0,0.0,0.0,0.0,0.0,0.0,0.0,0.0,0.0,0.0,0.0,0.0,0.0,0.0,0.0,0.0,2.5312,2.5519,2.6809,2.9252,2.8919,2.7933,2.6323,2.3796,2.1732,2.0199,0.0,0.0,0.0,0.0,0.0,0.0,0.0,0.0,0.0,0.0,0.0,0.0,0.0,0.0,0.0,0.0,0.0,0.0,0.0,0.0,0.0,0.0,0.0,0.0,0.0,0.0,0.0,0.0,0.0,0.0,0.0,0.0,0.0,0.0,0.0,0.0,0.0,0.0,0.0,2.4559,2.5084,0.0,0.0,0.0,0.0,0.0,0.0,0.0,0.0,2.321,0.0,0.0,0.0,0.0,0.0,0.0,0.0,0.0,0.0,0.0,0.0,0.0,0.0,0.0,0.0,0.0,0.0,0.0,0.0,0.0,0.0,0.0,0.0,0.0,0.0,0.0,0.0,0.0,0.0,0.0,0.0,0.0,0.0,0.0,0.0,0.0,0.0,0.0,0.0,0.0,0.0,0.0,0.0,0.0,0.0,0.0,0.0,0.0,0.0,0.0,0.0,0.0,0.0,0.0,0.0,2.4508,2.5177,2.6742,2.9347,2.8398,2.7033,2.5395,2.2774,2.0682,0.0,0.0,0.0,0.0,0.0,0.0,0.0,0.0,0.0,0.0,0.0,0.0,0.0,0.0,0.0,0.0,0.0,0.0,0.0,0.0,0.0,0.0,0.0,0.0,0.0,0.0,0.0,0.0,0.0,0.0,0.0,0.0,0.0,0.0,0.0,0.0,0.0,0.0,0.0,0.0,2.5362,2.5889,2.4725,0.0,0.0,0.0,0.0,0.0,0.0,2.4455,2.4033,0.0,0.0,0.0,0.0,0.0,0.0,0.0,0.0,0.0,0.0,0.0,0.0,0.0,0.0,0.0,0.0,0.0,0.0,0.0,0.0,0.0,0.0,0.0,0.0,0.0,0.0,0.0,0.0,0.0,0.0,0.0,0.0,0.0,0.0,0.0,0.0,0.0,0.0,0.0,0.0,0.0,0.0,0.0,0.0,0.0,0.0,0.0,0.0,0.0,0.0,0.0,0.0,0.0,0.0,0.0,2.3591,2.4674,2.6549,2.9133,2.7708,2.608,2.4448,2.1738,1.9672,0.0,0.0,0.0,0.0,0.0,0.0,0.0,0.0,0.0,0.0,0.0,0.0,0.0,0.0,0.0,0.0,0.0,0.0,0.0,0.0,0.0,0.0,0.0,0.0,0.0,0.0,0.0,0.0,0.0,0.0,0.0,0.0,0.0,0.0,0.0,0.0,0.0,0.0,0.0,0.0,0.0,2.654,2.583,2.617,0.0,0.0,0.0,0.0,2.5274,2.5601,0.0,0.0,0.0,0.0,0.0,0.0,0.0,0.0,0.0,0.0,0.0,0.0,0.0,0.0,0.0,0.0,0.0,0.0,0.0,0.0,0.0,0.0,0.0,0.0,0.0,0.0,0.0,0.0,0.0,0.0,0.0,0.0,0.0,0.0,0.0,0.0,0.0,0.0,0.0,0.0,0.0,0.0,0.0,0.0,0.0,0.0,0.0,0.0,0.0,0.0,0.0,0.0,0.0,0.0,0.0,0.0,2.3851,2.5165,2.6758,2.8584,2.715,2.5537,2.3904,2.0827,1.8885,0.0,0.0,0.0,0.0,0.0,0.0,0.0,0.0,0.0,0.0,0.0,0.0,0.0,0.0,0.0,0.0,0.0,0.0,0.0,0.0,0.0,0.0,0.0,0.0,0.0,0.0,0.0,0.0,0.0,0.0,0.0,0.0,0.0,0.0,0.0,0.0,0.0,0.0,0.0,0.0,0.0,2.7431,2.4563,2.5846,2.6484,0.0,0.0,2.5758,2.627,2.7464,0.0,0.0,0.0,0.0,0.0,0.0,0.0,0.0,0.0,0.0,0.0,0.0,0.0,0.0,0.0,0.0,0.0,0.0,0.0,0.0,0.0,0.0,0.0,0.0,0.0,0.0,0.0,0.0,0.0,0.0,0.0,0.0,0.0,0.0,0.0,0.0,0.0,0.0,0.0,0.0,0.0,0.0,0.0,0.0,0.0,0.0,0.0,0.0,0.0,0.0,0.0,0.0,0.0,0.0,0.0,2.0512,2.2986,2.4709,2.6107,2.7154,2.6335,2.4904,2.2942,1.9778,1.8014,0.0,0.0,0.0,0.0,0.0,0.0,0.0,0.0,0.0,0.0,0.0,0.0,0.0,0.0,0.0,0.0,0.0,0.0,0.0,0.0,0.0,0.0,0.0,0.0,0.0,0.0,0.0,0.0,0.0,0.0,0.0,0.0,0.0,0.0,0.0,0.0,0.0,0.0,0.0,0.0,0.0,0.0,2.6533,2.8079,0.0,0.0,0.0,2.8168,2.8722,0.0,0.0,0.0,0.0,0.0,0.0,0.0,0.0,0.0,0.0,0.0,0.0,0.0,0.0,0.0,0.0,0.0,0.0,0.0,0.0,0.0,0.0,0.0,0.0,0.0,0.0,0.0,0.0,0.0,0.0,0.0,0.0,0.0,0.0,0.0,0.0,0.0,0.0,0.0,0.0,0.0,0.0,0.0,0.0,0.0,0.0,0.0,0.0,0.0,0.0,0.0,0.0,0.0,0.0,0.0,0.0,0.0,2.2268,2.411,2.5329,2.5839,2.541,2.4124,2.2013,1.9137,0.0,0.0,0.0,0.0,0.0,0.0,0.0,0.0,0.0,0.0,0.0,0.0,0.0,0.0,0.0,0.0,0.0,0.0,0.0,0.0,0.0,0.0,0.0,0.0,0.0,0.0,0.0,0.0,0.0,0.0,0.0,0.0,0.0,0.0,0.0,0.0,0.0,0.0,0.0,0.0,0.0,0.0,2.8478,2.7689,2.9387,3.0502,0.0,0.0,2.9695,2.9943,2.9469,2.8201,0.0,0.0,0.0,0.0,0.0,0.0,0.0,0.0,0.0,0.0,0.0,0.0,0.0,0.0,0.0,0.0,0.0,0.0,0.0,0.0,0.0,0.0,0.0,0.0,0.0,0.0,0.0,0.0,0.0,0.0,0.0,0.0,0.0,0.0,0.0,0.0,0.0,0.0,0.0,0.0,0.0,0.0,0.0,0.0,0.0,0.0,0.0,0.0,0.0,0.0,0.0,0.0,0.0,0.0,0.0,2.2182,2.3602,2.4685,2.528,2.4406,2.3139,2.1493,1.9314,1.8435,0.0,0.0,0.0,0.0,0.0,0.0,0.0,0.0,0.0,0.0,0.0,0.0,0.0,0.0,0.0,0.0,0.0,0.0,0.0,0.0,0.0,0.0,0.0,0.0,0.0,0.0,0.0,0.0,0.0,0.0,0.0,0.0,0.0,0.0,0.0,0.0,0.0,0.0,0.0,0.0,0.0,2.7971,2.6199,2.8288,2.9895,0.0,0.0,2.9296,2.8427,3.0584,3.0616,2.5514,0.0,0.0,0.0,0.0,0.0,0.0,0.0,0.0,0.0,0.0,0.0,0.0,0.0,0.0,0.0,0.0,0.0,0.0,0.0,0.0,0.0,0.0,0.0,0.0,0.0,0.0,0.0,0.0,0.0,0.0,0.0,0.0,0.0,0.0,0.0,0.0,0.0,0.0,0.0,0.0,0.0,0.0,0.0,0.0,0.0,0.0,0.0,0.0,0.0,0.0,0.0,0.0,0.0,2.0078,2.1688,2.2831,2.3677,2.421,2.4052,2.3121,2.1428,1.9607,1.8809,0.0,0.0,0.0,0.0,0.0,0.0,0.0,0.0,0.0,0.0,0.0,0.0,0.0,0.0,0.0,0.0,0.0,0.0,0.0,0.0,0.0,0.0,0.0,0.0,0.0,0.0,0.0,0.0,2.1556,2.1572,2.1766,0.0,0.0,0.0,0.0,0.0,0.0,0.0,0.0,0.0,0.0,2.7917,2.8216,3.0124,0.0,0.0,3.1263,3.1149,3.0807,3.004,2.8674,2.6277,2.5258,0.0,0.0,0.0,0.0,0.0,0.0,0.0,0.0,0.0,0.0,0.0,0.0,0.0,0.0,0.0,0.0,0.0,0.0,0.0,0.0,0.0,0.0,0.0,0.0,0.0,0.0,0.0,0.0,0.0,0.0,0.0,0.0,0.0,0.0,0.0,0.0,0.0,0.0,0.0,0.0,0.0,0.0,0.0,0.0,0.0,0.0,0.0,0.0,0.0,0.0,0.0,0.0,1.9845,2.1372,2.2126,2.2869,2.3594,2.3507,2.2782,2.1422,2.0101,1.9472,0.0,0.0,0.0,0.0,0.0,0.0,0.0,0.0,0.0,0.0,0.0,0.0,0.0,0.0,0.0,0.0,0.0,0.0,0.0,0.0,0.0,0.0,0.0,0.0,0.0,0.0,0.0,0.0,2.1542,2.151,2.1648,0.0,0.0,0.0,0.0,0.0,0.0,0.0,0.0,0.0,0.0,2.7892,2.9214,3.0845,3.1975,3.2094,3.1901,3.1775,3.1801,2.9739,2.7744,2.6573,0.0,0.0,0.0,0.0,0.0,0.0,0.0,0.0,0.0,0.0,0.0,0.0,0.0,0.0,0.0,0.0,0.0,0.0,0.0,0.0,0.0,0.0,0.0,0.0,0.0,0.0,0.0,0.0,0.0,0.0,0.4944,0.0,0.0,0.0,0.0,0.0,0.0,0.0,0.0,0.0,0.0,0.0,0.0,0.0,0.0,0.0,0.0,0.0,0.0,0.0,0.0,0.0,0.0,2.0243,2.1372,2.1655,2.2393,2.3539,2.2726,2.1988,2.1404,2.0859,2.0524,2.0433,0.0,0.0,0.0,0.0,0.0,0.0,0.0,0.0,0.0,0.0,0.0,0.0,0.0,0.0,0.0,0.0,0.0,0.0,0.0,0.0,0.0,0.0,0.0,0.0,0.0,0.0,2.1768,2.1781,2.1664,0.0,0.0,0.0,0.0,0.0,0.0,0.0,0.0,0.0,0.0,2.6443,2.7891,2.8472,2.9751,3.0835,3.1354,3.0854,3.0428,3.0423,2.9908,2.8643,0.0,0.0,0.0,0.0,0.0,0.0,0.0,0.0,0.0,0.0,0.0,0.0,0.0,0.0,0.0,0.0,0.0,0.0,0.0,0.0,0.0,0.0,0.0,0.0,0.0,0.0,0.0,0.409,0.4275,0.0,0.0,0.0,0.0,0.0,0.0,0.0,0.0,0.0,0.0,0.0,1.0597,1.1324,0.0,0.0,0.0,0.0,0.0,0.0,0.0,0.0,0.0,0.0,0.0,0.0,1.9714,2.0892,2.112,2.1812,2.3075,2.2512,2.1945,2.1416,2.0853,2.0169,1.9405,0.0,0.0,0.0,0.0,0.0,0.0,0.0,0.0,0.0,0.0,0.0,0.0,0.0,0.0,0.0,0.0,0.0,0.0,0.0,0.0,0.0,0.0,0.0,0.0,0.0,2.0991,0.0,0.0,0.0,0.0,0.0,0.0,0.0,0.0,0.0,0.0,0.0,2.4537,2.5506,2.6356,2.7287,2.829,2.9215,3.0032,0.0,0.0,0.0,0.0,0.0,0.0,0.0,0.0,0.0,0.0,0.0,0.0,0.0,0.0,3.0477,2.7288,2.6519,2.6414,2.6338,0.0,0.0,0.0,0.0,0.0,0.0,0.0,0.0,0.0,0.0,0.0,0.0,0.0,0.0,0.0,0.0,0.491,0.0,0.0,0.0,0.0,0.0,0.0,0.0,0.0,0.9947,1.034,1.0792,1.1697,1.2311,0.0,1.328,1.3351,0.0,0.0,0.0,0.0,0.0,0.0,0.0,0.0,1.9659,2.0468,2.0873,2.1597,2.2621,2.2366,2.1945,2.1404,2.0683,2.0014,1.9415,1.9044,1.9095,0.0,0.0,0.0,0.0,0.0,0.0,0.0,0.0,0.0,0.0,0.0,0.0,0.0,0.0,0.0,0.0,0.0,0.0,0.0,0.0,0.0,0.0,0.0,2.0708,0.0,0.0,0.0,0.0,0.0,0.0,0.0,0.0,0.0,2.4778,2.4365,2.4637,2.622,2.6233,2.6555,2.7857,0.0,0.0,0.0,0.0,0.0,0.0,0.0,2.7093,2.6694,2.7671,2.8545,2.8676,3.0228,3.1397,3.1158,0.0,0.0,2.8456,2.7794,2.7641,2.7547,2.7687,2.8324,2.9989,3.0083,3.0222,0.0,0.0,0.0,0.0,0.0,0.0,0.0,0.0,0.4757,0.5093,0.0,0.5731,0.0,0.0,0.0,0.0,0.0,1.0007,0.0,0.0,1.0267,1.0565,1.0092,1.1586,1.2188,1.194,1.3219,1.3738,1.3605,1.4484,0.0,0.0,0.0,0.0,0.0,0.0,2.008,2.0115,2.0972,2.1697,2.2235,2.2213,2.1921,2.1344,2.0382,2.0037,2.0375,1.9445,1.903,1.9231,1.9573,0.0,0.0,0.0,0.0,0.0,0.0,0.0,0.0,0.0,0.0,0.0,0.0,0.0,0.0,0.0,0.0,0.0,0.0,0.0,0.0,2.0811,0.0,0.0,0.0,0.0,0.0,0.0,0.0,0.0,0.0,0.0,2.5345,2.4957,2.5166,2.6825,0.0,0.0,0.0,0.0,2.8411,2.8442,2.8925,2.9319,2.9319,2.8863,2.8077,2.6769,0.0,0.0,3.0219,3.0812,3.1112,3.0457,3.0979,3.136,3.1541,3.0664,2.9888,2.9216,2.867,2.8801,3.0122,2.9881,2.9332,-0.5464,0.0,0.0,0.0,0.0,0.1138,0.1994,0.2231,0.351,0.4159,0.4297,0.4778,0.0,0.0,0.0,0.0,0.0,0.0,1.0174,0.9963,1.0798,1.1062,1.0868,1.207,1.2838,1.3171,1.383,1.4307,1.4672,1.526,1.6205,1.7447,0.0,0.0,0.0,0.0,1.9921,1.9914,2.1232,2.1786,2.1439,2.1774,2.1558,2.064,1.9772,1.9443,1.9642,1.9389,1.941,1.9743,1.9433,0.0,0.0,0.0,0.0,0.0,0.0,0.0,0.0,0.0,0.0,0.0,0.0,0.0,0.0,0.0,0.0,0.0,0.0,0.0,2.113,2.136,2.155,0.0,0.0,0.0,0.0,0.0,0.0,0.0,0.0,0.0,2.6673,2.6324,2.6451,0.0,0.0,2.7657,2.8073,2.8288,2.8411,2.8411,0.0,0.0,0.0,2.7835,2.7643,2.7333,2.9201,3.0876,3.1404,3.2142,3.2645,3.2408,3.2566,3.2734,3.2675,3.1376,3.0236,2.9927,3.0085,3.0765,3.2121,3.2485,3.2843,-0.5961,-0.504,-0.3542,-0.2409,-0.1483,0.0148,0.1151,0.1687,0.2781,0.348,0.3846,0.4219,0.4849,0.5589,0.668,0.0,0.0,0.0,1.0134,1.0113,1.0823,1.1236,1.1385,1.2269,1.294,1.335,1.3846,1.4284,1.4688,1.5247,1.6104,1.7183,0.0,0.0,1.8945,1.9718,1.9902,1.9626,2.1063,2.1593,2.1122,2.1217,2.0986,2.0389,1.9695,1.9396,1.9571,1.954,1.9693,1.9976,1.9743,1.9637,0.0,0.0,0.0,0.0,0.0,0.0,0.0,0.0,0.0,0.0,0.0,2.1951,0.0,0.0,0.0,0.0,2.1399,2.1006,2.0916,2.1034,0.0,0.0,0.0,0.0,0.0,0.0,0.0,2.4724,2.4966,2.5709,2.7089,2.6871,2.6938,2.7948,2.7558,2.7243,2.7461,0.0,2.7548,2.774,2.764,2.764,2.7871,2.7916,2.8132,2.8805,3.0138,3.1425,3.2301,3.2935,3.3198,3.3019,3.3119,3.3214,3.2945,3.207,3.1428,3.1413,3.1744,3.2487,3.3846,3.4446,3.5015,-0.6146,-0.5737,-0.4368,-0.3263,-0.2321,-0.0867,0.0278,0.1267,0.2135,0.272,0.304,0.3611,0.421,0.482,0.6855,0.0,0.7908,0.9153,0.9637,0.959,1.0559,1.1182,1.1507,1.2262,1.2706,1.2873,1.347,1.3906,1.4221,1.4893,1.5807,1.7021,1.7821,1.8426,1.887,1.9876,2.0079,1.946,2.0745,2.1296,2.108,2.0558,2.0308,2.0399,1.9841,1.9656,1.9926,1.9845,1.9852,1.9943,2.0248,2.0178,1.9655,0.0,0.0,0.0,0.0,0.0,0.0,0.0,0.0,0.0,0.0,0.0,0.0,0.0,0.0,0.0,2.1408,0.0,2.0678,2.037,0.0,0.0,0.0,2.3422,2.4782,2.493,2.5013,2.5218,0.0,0.0,2.6817,0.0,2.6797,2.7378,2.6322,2.5737,2.627,2.6436,2.6447,2.6931,2.7411,2.7979,2.8372,2.8586,2.9079,3.0298,3.1102,3.1646,3.2577,3.2935,3.2835,3.2323,3.2692,3.2929,3.2307,3.2582,3.3135,3.2961,3.3135,3.3656,3.4857,3.5157,3.5537,-0.58,-0.5518,-0.4784,-0.4138,-0.3525,-0.2755,-0.2075,-0.1412,-0.077,-0.04,-0.0294,0.0132,0.1108,0.2511,0.4576,0.586,0.6608,0.7843,0.8617,0.9078,1.0533,1.1224,1.1241,1.2379,1.3046,1.3364,1.3981,1.4533,1.4974,1.5769,1.6783,1.7924,1.8227,1.8942,2.0051,2.0287,2.0464,2.0594,2.1724,2.1807,2.085,2.0275,1.9877,1.9592,1.9309,1.9289,1.9525,1.9723,1.9698,1.9474,1.9703,1.969,1.9463,2.0292,0.0,0.0,0.0,0.0,0.0,0.0,0.0,0.0,0.0,2.2312,2.1943,0.0,2.2561,0.0,2.0986,2.098,2.134,2.2053,0.0,0.0,2.3748,2.4238,2.373,2.4565,2.5032,2.4663,2.4799,2.521,2.6056,2.5888,2.5835,2.6106,2.6987,2.7774,2.8225,2.8312,2.8111,2.7584,2.757,2.7783,2.7882,2.848,2.9057,2.9781,3.0361,3.0908,3.1418,3.1612,3.164,3.1492,3.1586,3.1609,3.1492,3.1602,3.1703,3.1767,3.255,3.3546,3.4367,3.4557,3.4826,-0.5306,-0.5168,-0.4784,-0.4526,-0.4403,-0.3604,-0.2908,-0.2325,-0.1804,-0.1511,-0.1407,-0.1203,-0.0138,0.1487,0.2727,0.4064,0.544,0.6867,0.7964,0.887,1.0457,1.1457,1.1959,1.2917,1.3615,1.4141,1.4639,1.5112,1.556,1.6148,1.6951,1.7905,1.8093,1.8933,2.0397,2.0637,2.1105,2.1877,2.214,2.1713,2.0527,2.0019,1.9703,1.9559,1.9127,1.9052,1.9434,1.947,1.9573,1.9749,1.9893,2.002,2.003,2.0454,2.0905,0.0,0.0,0.0,0.0,0.0,0.0,0.0,0.0,0.0,0.0,0.0,2.2372,0.0,2.1394,2.142,2.1876,2.2385,2.2677,2.2621,2.3426,2.3851,2.3364,2.4228,2.4722,2.451,2.4617,2.4994,2.5624,2.5313,2.5178,2.5638,2.618,2.675,2.7332,2.7495,2.7362,2.702,2.6702,2.652,2.6409,2.7537,2.8574,2.9074,3.0001,3.0812,3.1182,3.1212,3.1103,3.0844,3.1002,3.1072,3.0844,3.0968,3.1092,3.1234,3.1907,3.2861,3.3677,3.4083,3.451,-0.4683,-0.4671,-0.451,-0.4561,-0.4736,-0.3714,-0.3015,-0.2514,-0.2082,-0.1764,-0.1538,-0.15,-0.0713,0.062,0.1197,0.2422,0.4198,0.5983,0.7447,0.8684,1.0193,1.1608,1.2826,1.3443,1.4115,1.4837,1.518,1.5573,1.608,1.6408,1.699,1.7758,1.8051,1.9079,2.0803,2.1061,2.1728,2.2907,2.2279,2.1424,2.0343,1.9909,1.9787,1.9867,1.909,1.8857,1.9344,1.9152,1.9341,2.0037,2.0244,2.0427,2.0684,2.0629,2.0862,0.0,2.1569,0.0,0.0,0.0,0.0,0.0,0.0,0.0,0.0,2.2002,2.2111,2.2621,2.206,2.185,2.2233,2.2161,2.2103,2.2174,2.2612,2.3061,2.3481,2.3865,2.4218,2.4504,2.4651,2.4876,2.5233,2.4788,2.4703,2.5153,2.4798,2.4725,2.5221,2.5461,2.5575,2.5686,2.539,2.5274,2.5436,2.6724,2.8074,2.8616,2.9711,3.0837,3.1175,3.1058,3.0733,3.0243,3.048,3.0646,3.0133,3.0415,3.0663,3.0647,3.1095,3.1862,3.2888,3.3645,3.4324,-0.4098,-0.4207,-0.4001,-0.3859,-0.3661,-0.331,-0.341,-0.3788,-0.3173,-0.2861,-0.2836,-0.2669,-0.2607,-0.2387,0.0,0.145,0.2205,0.4588,0.639,0.7743,0.9528,1.0917,1.1975,1.2942,1.3792,1.4468,1.4828,1.5504,1.6491,1.7039,1.818,1.986,1.9751,2.0946,2.3206,0.0,0.0,0.0,2.2206,2.1689,2.0954,2.0552,2.0221,1.9962,1.8882,0.0,1.8612,1.866,1.8763,1.8936,1.9252,0.0,0.0,0.0,0.0,0.0,0.0,0.0,0.0,0.0,0.0,0.0,2.2833,2.2733,2.2469,2.2057,2.2166,2.2974,2.2144,2.1694,2.2098,2.2423,2.2589,2.2607,2.3093,2.3504,2.3563,2.3538,2.364,2.4116,2.3966,2.3998,2.429,2.4101,2.39,2.3839,2.3849,2.3913,2.3952,2.4249,2.4366,2.4259,2.4637,2.5247,2.6008,2.7185,2.8138,2.8755,2.9316,2.9868,2.9981,2.975,2.9556,2.9335,2.9414,2.9462,2.9202,2.9234,2.9359,2.9256,2.9755,3.0617,3.2023,3.2867,3.3412,-0.3061,0.0,-0.3056,-0.3053,0.0,-0.2756,-0.2777,-0.3061,-0.3008,-0.2947,-0.2979,-0.3246,-0.3305,-0.3028,-0.0709,0.0736,0.1543,0.4712,0.6757,0.7825,0.984,1.1517,1.2871,1.3843,1.4931,1.607,1.6245,1.6711,1.7483,1.7804,1.8553,1.9697,1.9701,2.0432,2.1857,2.135,2.1297,2.1753,2.1753,2.1307,2.0396,2.0246,2.0217,2.0222,0.0,0.0,0.0,0.0,0.0,0.0,0.0,0.0,0.0,0.0,0.0,2.1903,2.2144,2.239,2.27,2.2987,2.2905,2.2392,2.2439,2.2366,2.2066,2.1843,2.2022,2.2759,2.226,2.2018,2.232,2.2535,2.258,2.2499,2.2946,2.3238,2.3263,2.3306,2.3438,2.3574,2.3215,2.3077,2.3495,2.3225,2.3099,2.312,2.3088,2.308,2.3102,2.368,2.4011,2.361,2.3866,2.4301,2.4827,2.6105,2.7271,2.7752,2.8624,2.924,2.9427,2.9248,2.9114,2.9114,2.9052,2.8967,2.8904,2.8826,2.874,2.877,2.918,2.995,3.115,3.2003,3.2756,-0.1922,-0.1922,-0.1922,-0.2144,-0.2467,-0.1955,-0.1656,-0.1596,0.0,0.0,0.0,-0.3302,-0.3383,-0.2891,-0.1373,-0.0113,0.1129,0.4523,0.6678,0.781,1.0028,1.2104,1.3886,1.4912,1.6239,1.7765,1.7803,1.8063,1.8508,1.8555,1.8769,1.9169,1.9401,1.96,1.9931,2.0401,2.0783,2.098,2.1275,2.096,2.0028,1.9989,2.0188,2.0574,2.002,1.9879,2.0182,1.9735,1.9675,2.0059,2.0107,2.0362,2.0921,2.1023,2.1077,2.1197,2.121,2.1238,2.1291,2.1735,2.192,2.165,2.1902,2.2004,2.1729,2.1705,2.1901,2.241,2.2314,2.2293,2.2408,2.2493,2.243,2.2173,2.2551,2.2849,2.284,2.2975,2.3055,2.3059,2.2571,2.2348,2.2818,2.2509,2.2323,2.2669,2.2569,2.2451,2.2628,2.325,2.3629,2.3409,2.3545,2.3559,2.3931,2.5078,2.6129,2.693,2.8009,2.8854,2.902,2.9098,2.9099,2.9068,2.8967,2.8944,2.9006,2.8958,2.883,2.8914,2.9255,2.9822,3.0649,3.1446,3.2269,-0.0825,-0.0825,-0.0825,-0.086,-0.0893,-0.0466,-0.0271,-0.0345,-0.1264,-0.1483,-0.1285,-0.228,-0.3047,-0.3604,-0.261,-0.1593,-0.0466,0.1657,0.3925,0.0,0.8788,1.1183,1.3502,1.4797,1.6239,1.7691,1.7812,1.8171,1.8853,1.908,1.9573,2.0303,2.0554,2.0623,2.0693,2.0911,2.0871,2.0516,2.1163,2.148,2.1487,2.078,2.0574,2.0864,1.9927,1.9522,1.9862,1.9799,1.9838,2.0003,2.0179,2.0437,2.0798,2.1039,2.1317,2.1602,2.1625,2.1612,2.1629,2.1706,2.1747,2.1705,2.1726,2.1873,2.2074,2.2122,2.2158,2.2219,2.2065,2.1923,2.1862,2.2051,2.2127,2.201,2.2349,2.2637,2.2603,2.2286,2.22,2.259,2.2221,2.206,2.237,2.2275,2.2136,2.2193,2.2289,2.2402,2.2879,2.2703,2.2703,2.3224,2.3706,2.4384,2.5192,2.608,2.6686,2.7026,2.7822,2.8458,2.8452,2.8786,2.9006,2.8943,2.8951,2.9077,2.9377,2.949,2.9568,2.9909,3.0094,3.0454,3.128,3.1627,3.2022,0.0196,0.0196,0.0079,0.0039,0.0079,0.0354,0.0471,0.0431,0.0,-0.0573,-0.1197,-0.1874,-0.2665,-0.3287,-0.2274,-0.1415,-0.0649,0.1722,0.4075,0.6374,0.8976,1.1555,1.4024,1.5447,1.6973,1.855,1.8597,1.8813,1.9134,1.926,1.9479,1.9893,1.9981,2.009,2.0178,2.034,2.048,2.0487,2.0772,2.0993,2.1188,2.0738,2.0677,2.1051,2.0563,2.032,2.033,2.0443,2.0449,2.0281,2.0378,2.0541,2.0788,2.0919,2.1104,2.1396,2.1423,2.1434,2.1434,2.134,2.1265,2.1276,2.1433,2.1606,2.1756,2.1764,2.1824,2.2031,2.197,2.1946,2.1981,2.2035,2.2003,2.1846,2.2054,2.2156,2.2083,2.211,2.2131,2.2226,2.2036,2.1897,2.2042,2.1997,2.1959,2.1949,2.2252,2.2804,2.3372,2.3372,2.3335,2.3751,2.4215,2.4969,2.5871,2.6237,2.6676,2.7262,2.7739,2.8015,2.8118,2.8581,2.8865,2.8803,2.9013,2.9339,2.9611,2.978,3.0017,3.0155,3.023,3.0532,3.1148,3.162,3.2211,0.1373,0.1373,0.1216,0.1177,0.1138,0.1178,0.1256,0.1295,0.1139,0.0432,-0.0628,-0.1255,-0.1959,-0.2579,-0.1837,-0.1288,-0.0642,0.1668,0.3861,0.5934,0.8783,1.168,1.437,1.5934,1.7545,1.9134,1.9292,1.9292,1.9292,1.9341,1.939,1.942,1.942,1.9548,1.9764,1.9902,2.0186,2.0566,2.0501,2.0545,2.0715,2.0561,2.0608,2.0873,2.1026,2.0994,2.0804,2.0953,2.0917,2.0677,2.0659,2.0712,2.0815,2.0819,2.0912,2.1049,2.1106,2.1074,2.1085,2.1049,2.0976,2.0955,2.1285,2.1464,2.1375,2.136,2.151,2.182,2.19,2.1902,2.1957,2.1939,2.1842,2.1745,2.184,2.1927,2.1797,2.2057,2.2214,2.2025,2.1883,2.1797,2.1807,2.1883,2.1987,2.2214,2.274,2.3335,2.3714,2.4116,2.4358,2.4539,2.4886,2.5476,2.6193,2.6427,2.675,2.7497,2.7695,2.7816,2.7981,2.8374,2.8746,2.8781,2.915,2.9595,2.9847,3.0181,3.0437,3.0655,3.0681,3.0718,3.1232,3.1781,3.2355,0.2898,0.2898,0.282,0.2859,0.2781,0.2313,0.2275,0.2511,0.1882,0.1488,0.1175,0.0078,-0.0825,-0.1492,-0.2069,-0.2217,-0.187,-0.0317,0.146,0.3552,0.7104,1.0642,1.3798,1.5625,1.7415,1.9094,1.9292,1.9292,1.9301,1.9469,1.9636,1.9824,1.9863,1.9942,2.0196,2.0225,2.0381,2.0615,2.0614,2.0635,2.0767,2.0524,2.0372,2.0262,2.066,2.0776,2.0656,2.0803,2.0971,2.1126,2.1135,2.1063,2.0908,2.0855,2.0858,2.0754,2.0744,2.0765,2.0778,2.1127,2.1241,2.1141,2.1506,2.1598,2.1285,2.1242,2.1394,2.1724,2.1828,2.1677,2.1371,2.1503,2.1641,2.1538,2.1797,2.2075,2.2006,2.1928,2.1835,2.1835,2.1835,2.1807,2.1883,2.2138,2.2478,2.2852,2.3372,2.3861,2.4116,2.4539,2.4945,2.5182,2.5535,2.6094,2.6727,2.7131,2.7269,2.7478,2.771,2.7865,2.7974,2.8187,2.8428,2.9102,2.9317,2.9797,3.0456,3.0931,3.1141,3.1445,3.1571,3.1741,3.1918,3.2074,3.237,0.3876,0.3873,0.3876,0.3873,0.3837,0.3602,0.3446,0.3372,0.3171,0.2781,0.2273,0.1765,0.0706,-0.0746,-0.1724,-0.2154,-0.2079,-0.0721,0.0962,0.302,0.6767,1.0419,1.3801,1.5564,1.7415,1.9173,1.9292,1.9292,1.9292,1.9381,1.9469,1.9539,1.9666,1.9833,2.0059,2.0225,2.0381,2.0605,2.0615,2.0672,2.0789,2.0592,2.0534,2.0724,2.0825,2.0868,2.0992,2.1274,2.1375,2.1325,2.1303,2.1102,2.0637,2.0506,2.0345,2.0248,2.038,2.0596,2.0845,2.1051,2.1114,2.1066,2.1477,2.1618,2.1352,2.1559,2.1765,2.176,2.1681,2.1545,2.1565,2.1675,2.1695,2.1651,2.1704,2.1759,2.1769,2.1769,2.1807,2.1807,2.1987,2.2214,2.2365,2.2665,2.3113,2.3556,2.397,2.42,2.4526,2.4897,2.5276,2.5641,2.606,2.6474,2.6955,2.7222,2.7516,2.788,2.8197,2.8387,2.8495,2.8895,2.9346,2.9542,2.9905,3.035,3.0956,3.1414,3.1708,3.1953,3.1798,3.1712,3.1697,3.171,3.193,0.5258,0.5221,0.5179,0.5179,0.5139,0.5026,0.4827,0.455,0.4545,0.4137,0.3523,0.3403,0.2492,0.0831,-0.0475,-0.1538,-0.2046,-0.0487,0.102,0.2704,0.6453,1.0319,1.3838,1.555,1.7374,1.9006,1.9292,1.9292,1.9292,1.9292,1.9341,1.939,1.9518,1.9706,2.002,2.0225,2.042,2.0576,2.0615,2.0731,2.0934,2.0741,2.0727,2.0993,2.1047,2.1055,2.1069,2.1396,2.1487,2.1294,2.1272,2.1084,2.061,2.0422,2.0312,2.0221,2.0386,2.0613,2.0974,2.1101,2.114,2.1075,2.1444,2.1623,2.1548,2.1724,2.1863,2.1718,2.1524,2.153,2.1735,2.1731,2.1731,2.1693,2.1617,2.1589,2.1627,2.1797,2.1987,2.1987,2.2327,2.2692,2.3001,2.3335,2.374,2.4152,2.4406,2.4586,2.4909,2.5324,2.5734,2.6025,2.6543,2.6985,2.7204,2.7583,2.7908,2.8183,2.8567,2.884,2.8977,2.9342,2.9877,2.9798,3.0582,3.1125,3.1356,3.1741,3.1894,3.1796,3.164,3.1424,3.1409,3.1396,3.1842,0.7372,0.7323,0.7159,0.701,0.7028,0.6613,0.6417,0.6312,0.5953,0.5527,0.5184,0.5007,0.4482,0.3641,0.1863,-0.04,-0.2055,0.0293,0.1467,0.1818,0.5987,1.0154,1.3649,1.5283,1.7155,1.9173,1.9292,1.9292,1.9292,1.9292,1.939,1.9557,1.9597,1.9833,2.0186,2.0303,2.042,2.0566,2.0615,2.0809,2.1128,2.0992,2.0877,2.0937,2.1177,2.1188,2.0856,2.097,2.1066,2.1034,2.1069,2.1012,2.0935,2.0924,2.0913,2.091,2.0942,2.0974,2.1055,2.1384,2.1486,2.1208,2.1514,2.1718,2.1524,2.1538,2.1578,2.1502,2.1527,2.1603,2.1749,2.1693,2.1578,2.1578,2.1693,2.1797,2.1807,2.2138,2.2365,2.244,2.2777,2.3224,2.3751,2.4043,2.4225,2.455,2.4933,2.5241,2.5382,2.5873,2.6255,2.6496,2.6939,2.751,2.7756,2.805,2.8334,2.8602,2.8852,2.9087,2.8871,2.8878,2.9484,3.0032,3.0565,3.1078,3.1571,3.1796,3.1796,3.1653,3.138,3.122,3.1412,3.1707,3.2179,0.8341,0.8341,0.8254,0.8209,0.8209,0.8045,0.7885,0.7765,0.76,0.7316,0.7011,0.6875,0.6467,0.582,0.4981,0.2908,0.0286,0.067,0.1672,0.3326,0.5684,0.934,1.3966,1.5591,1.7326,1.9054,1.9292,1.9292,1.9292,1.9292,1.9429,1.9597,1.9715,1.999,2.0264,2.042,2.0527,2.0605,2.0615,2.0809,2.1177,2.1128,2.1191,2.1419,2.1446,2.1439,2.1422,2.1607,2.1628,2.1466,2.1456,2.1328,2.1027,2.0868,2.0898,2.1016,2.0949,2.101,2.1253,2.1353,2.137,2.1381,2.1476,2.1578,2.1502,2.1502,2.1502,2.1502,2.1617,2.1769,2.1921,2.1807,2.1693,2.1731,2.1997,2.2176,2.2252,2.2515,2.2777,2.2889,2.3335,2.3861,2.4105,2.4455,2.4778,2.5004,2.5288,2.5558,2.5873,2.6173,2.6483,2.6756,2.7175,2.7636,2.7967,2.8411,2.8753,2.9018,2.9268,2.9638,2.9636,2.9784,3.0324,3.0526,3.086,3.1207,3.1757,3.1741,3.1712,3.1628,3.1352,3.1338,3.1603,3.1954,3.2573,0.9724,0.9766,0.9802,0.9844,0.9802,0.9766,0.9641,0.9521,0.9438,0.9142,0.8789,0.8817,0.8528,0.7964,0.7808,0.6675,0.4411,0.3145,0.3382,0.5152,0.6768,1.0038,1.4131,1.5904,1.7464,1.9054,1.9292,1.9292,1.9292,1.935,1.9518,1.9715,1.9902,2.0137,2.0381,2.0527,2.0615,2.0605,2.0654,2.0848,2.1167,2.1244,2.1464,2.1721,2.1655,2.1655,2.1807,2.1921,2.1937,2.1755,2.1739,2.1613,2.1292,2.1058,2.1047,2.1178,2.1118,2.1128,2.1451,2.1425,2.1436,2.1464,2.1502,2.1502,2.1502,2.155,2.1627,2.1693,2.1883,2.2063,2.2138,2.2176,2.2138,2.2063,2.2365,2.258,2.2617,2.2927,2.3235,2.3446,2.3824,2.4225,2.4539,2.485,2.5229,2.5511,2.5734,2.6013,2.6289,2.6564,2.6803,2.7108,2.7469,2.7868,2.8197,2.8638,2.8894,2.9111,2.9476,2.9948,3.0249,3.0522,3.0762,3.0984,3.1293,3.1586,3.1746,3.173,3.1688,3.1662,3.1501,3.1421,3.1803,3.2275,3.2983,1.1697,1.1675,1.1923,1.1872,1.1818,1.1685,1.1686,1.1567,1.1407,1.1011,1.0632,1.0872,1.0742,1.0203,1.0371,1.0251,0.9633,0.7859,0.683,0.688,0.9233,1.1982,1.5063,1.6201,1.7626,1.9213,1.9292,1.9301,1.9341,1.9478,1.9676,1.9912,2.0147,2.0342,2.0605,2.0605,2.0615,2.0654,2.078,2.0984,2.1205,2.1397,2.1578,2.1769,2.1769,2.1769,2.1807,2.1807,2.1825,2.1804,2.1804,2.1797,2.1704,2.1542,2.1451,2.1431,2.1471,2.1492,2.1502,2.1617,2.1578,2.154,2.1502,2.1502,2.1578,2.1683,2.1883,2.2063,2.2252,2.244,2.2467,2.274,2.2777,2.2526,2.2777,2.3001,2.3075,2.3372,2.374,2.408,2.4309,2.4539,2.5064,2.5335,2.5616,2.6013,2.6255,2.6449,2.6714,2.7019,2.7289,2.7536,2.7802,2.8131,2.849,2.8844,2.9004,2.918,2.956,2.9976,3.0158,3.0371,3.0612,3.0836,3.1368,3.1693,3.2138,3.2152,3.2124,3.2035,3.179,3.1827,3.2359,3.2937,3.3485,1.2875,1.2875,1.2918,1.2966,1.296,1.3033,1.3069,1.3069,1.3112,1.3062,1.2987,1.3345,1.3297,1.3117,1.3342,1.3416,1.3193,1.2584,1.1558,1.0211,1.0124,1.2313,1.5531,1.6813,1.7917,1.9094,1.9292,1.9381,1.9518,1.9557,1.9794,2.0147,2.0264,2.042,2.0566,2.0615,2.0615,2.0644,2.0819,2.0984,2.1205,2.1387,2.1617,2.1769,2.1807,2.1807,2.1807,2.1807,2.1807,2.1807,2.1807,2.1731,2.1627,2.155,2.1502,2.1502,2.1502,2.1502,2.1464,2.1436,2.1464,2.1464,2.1502,2.1655,2.1873,2.1949,2.2111,2.2327,2.259,2.2815,2.2889,2.3187,2.3224,2.2863,2.3187,2.3409,2.3494,2.3787,2.4164,2.4574,2.4802,2.5064,2.5347,2.5616,2.607,2.6324,2.6611,2.6897,2.7201,2.7335,2.757,2.7881,2.8131,2.836,2.8651,2.894,2.9149,2.932,2.9682,2.9929,3.0097,3.028,3.0492,3.0877,3.1396,3.1916,3.2363,3.2542,3.254,3.2626,3.2557,3.2819,3.325,3.3711,3.4156,1.3766,1.3766,1.3857,1.3899,1.3893,1.4104,1.4223,1.4265,1.4468,1.4468,1.4517,1.4956,1.5074,1.4976,1.5377,1.5527,1.5396,1.5569,1.4906,1.3626,1.2669,1.4036,1.6781,1.7755,1.8496,1.9231,1.9429,1.9508,1.9706,1.9833,1.999,2.0274,2.0381,2.045,2.0576,2.0615,2.0615,2.0605,2.077,2.0974,2.1205,2.1397,2.1617,2.1769,2.1807,2.1807,2.1807,2.1807,2.1807,2.1807,2.1807,2.1731,2.1627,2.155,2.1502,2.1502,2.1502,2.1502,2.1502,2.154,2.1578,2.1693,2.1807,2.1911,2.2176,2.2252,2.2402,2.2628,2.2927,2.3161,2.3261,2.3604,2.3677,2.3494,2.3677,2.3909,2.4018,2.4273,2.4562,2.4921,2.5147,2.5406,2.5756,2.6,2.6517,2.6701,2.6998,2.7281,2.7536,2.7669,2.7914,2.8145,2.8295,2.8522,2.8748,2.9035,2.9275,2.9526,2.9775,2.9943,3.008,3.0249,3.0462,3.1049,3.1614,3.2261,3.2756,3.2925,3.3014,3.3125,3.3326,3.3537,3.3819,3.425,3.47,1.444,1.4482,1.465,1.4692,1.4734,1.4999,1.5082,1.5166,1.536,1.536,1.5367,1.5899,1.6041,1.5992,1.6486,1.6731,1.6821,1.6813,1.6895,1.6731,1.6399,1.6846,1.7747,1.8696,1.9271,1.9518,1.9597,1.9715,1.9942,2.0098,2.0303,2.0342,2.0489,2.0615,2.0615,2.0615,2.0615,2.0615,2.078,2.0974,2.1177,2.1397,2.1578,2.1731,2.1769,2.1776,2.1704,2.1621,2.1683,2.1787,2.1769,2.1731,2.1731,2.1589,2.1502,2.154,2.1502,2.1578,2.1665,2.1883,2.2063,2.2073,2.2214,2.2429,2.244,2.259,2.2777,2.3038,2.3261,2.3446,2.3677,2.4007,2.42,2.4273,2.4236,2.4381,2.4742,2.4825,2.4992,2.5241,2.5382,2.5594,2.6242,2.6414,2.6769,2.7121,2.7403,2.7636,2.7822,2.7987,2.8164,2.836,2.8554,2.878,2.9004,2.9194,2.9432,2.9637,2.9898,3.0066,3.0213,3.0425,3.0663,3.1282,3.1961,3.2606,3.305,3.3271,3.3602,3.3891,3.4038,3.4103,3.4392,3.4827,3.5023,1.5124,1.5131,1.5208,1.5215,1.5257,1.545,1.5665,1.5839,1.6023,1.6154,1.636,1.6812,1.6968,1.7009,1.7416,1.7821,1.7991,1.8112,1.8273,1.8425,1.8385,1.8304,1.8554,1.9161,1.9527,1.9606,1.9676,1.9951,2.0177,2.0225,2.0342,2.0527,2.0566,2.0615,2.0615,2.0615,2.0615,2.0654,2.078,2.0906,2.1022,2.132,2.1512,2.1589,2.1731,2.1631,2.1311,2.0922,2.1145,2.1756,2.1665,2.1578,2.1565,2.1489,2.1497,2.1659,2.1832,2.1966,2.2107,2.2209,2.2306,2.2338,2.2397,2.2515,2.2804,2.2889,2.3113,2.3409,2.3751,2.397,2.4091,2.4418,2.4742,2.4933,2.4802,2.4814,2.5087,2.5182,2.5324,2.5676,2.5943,2.6186,2.6461,2.6837,2.7222,2.7456,2.7703,2.7954,2.8118,2.8314,2.8457,2.8651,2.8844,2.9067,2.9257,2.9415,2.9602,2.9761,2.9976,3.0235,3.0469,3.0747,3.1071,3.1527,3.2382,3.3089,3.3416,3.3677,3.4089,3.4555,3.4697,3.4797,3.4999,3.535,3.5335,1.5347,1.5389,1.5389,1.5389,1.5431,1.5616,1.5873,1.6121,1.6319,1.6525,1.6779,1.7188,1.7392,1.7432,1.7829,1.8121,1.8371,1.8531,1.8603,1.8723,1.8772,1.8772,1.882,1.91,1.925,1.9359,1.9478,1.9754,2.0029,2.0147,2.0294,2.0527,2.0615,2.0615,2.0615,2.0615,2.0615,2.0615,2.0741,2.0819,2.0906,2.1138,2.1387,2.154,2.1721,2.1617,2.1366,2.1073,2.11,2.1176,2.1106,2.1079,2.1154,2.1154,2.1265,2.146,2.1571,2.1671,2.1781,2.1927,2.2134,2.2347,2.2438,2.2815,2.3169,2.3298,2.353,2.3824,2.4152,2.437,2.4575,2.4909,2.523,2.5477,2.5442,2.5442,2.5571,2.5641,2.5804,2.6082,2.6371,2.6645,2.6803,2.7255,2.7523,2.7756,2.8,2.8229,2.8379,2.8587,2.8748,2.8908,2.9099,2.9289,2.9432,2.9588,2.9837,3.0007,3.0258,3.0488,3.0707,3.1043,3.1451,3.1951,3.2806,3.3472,3.3818,3.4195,3.4632,3.5029,3.5246,3.5326,3.5457,3.5522,3.5522,1.5215,1.5389,1.5389,1.5389,1.5431,1.5575,1.5831,1.6079,1.6286,1.6484,1.6771,1.7147,1.727,1.7359,1.7554,1.787,1.7959,1.8193,1.8362,1.8442,1.8563,1.8571,1.8571,1.8772,1.8931,1.9082,1.9082,1.9469,1.9863,1.9981,2.0216,2.0527,2.0615,2.0615,2.0615,2.0615,2.0615,2.0615,2.0615,2.0693,2.0819,2.0984,2.1244,2.1568,2.1662,2.1674,2.1592,2.15,2.1244,2.0487,2.0466,2.0667,2.0778,2.0747,2.0874,2.108,2.1215,2.124,2.13,2.1724,2.1977,2.2476,2.2828,2.3111,2.3576,2.3824,2.4043,2.4298,2.4478,2.4766,2.5099,2.5465,2.5711,2.5933,2.6094,2.6129,2.6107,2.6164,2.6324,2.6496,2.6679,2.7019,2.7356,2.759,2.7723,2.8099,2.8327,2.849,2.8683,2.8876,2.9004,2.9099,2.9289,2.9477,2.962,2.9775,3.0021,3.028,3.0602,3.0841,3.0974,3.1326,3.1791,3.2407,3.3396,3.4009,3.4345,3.4738,3.5121,3.5294,3.5374,3.5439,3.5522,3.5572,3.5572,1.5138,1.5173,1.534,1.5389,1.5431,1.5465,1.5714,1.6087,1.6128,1.6368,1.6648,1.682,1.6861,1.6853,1.7025,1.718,1.7563,1.7806,1.8023,1.8353,1.8193,1.8161,1.8282,1.8603,1.8922,1.9082,1.9478,1.9745,1.9942,2.0177,2.0489,2.0566,2.0615,2.0615,2.0615,2.0615,2.0615,2.0605,2.0605,2.0644,2.076,2.0974,2.1205,2.1405,2.1497,2.1508,2.1429,2.1256,2.1048,2.0903,2.0868,2.0914,2.0914,2.0949,2.1055,2.1231,2.1371,2.1653,2.2125,2.2358,2.2708,2.3184,2.3422,2.3772,2.4045,2.4273,2.4514,2.479,2.5016,2.5288,2.5641,2.5908,2.6164,2.6336,2.6508,2.6726,2.6897,2.676,2.6748,2.7019,2.7222,2.7423,2.7723,2.7973,2.817,2.8457,2.8619,2.878,2.894,2.9131,2.9226,2.932,2.9691,2.9879,2.9879,3.009,3.0448,3.0778,3.1118,3.1558,3.1678,3.1915,3.2484,3.3235,3.4061,3.4486,3.473,3.4955,3.5246,3.5359,3.5472,3.5539,3.5589,3.5621,3.5718,1.4706,1.509,1.5222,1.5298,1.5389,1.5431,1.5673,1.6053,1.6136,1.6327,1.6656,1.6689,1.6689,1.6689,1.6689,1.6935,1.7311,1.7779,1.8174,1.8419,1.8329,1.8194,1.804,1.8362,1.8603,1.89,1.935,1.9666,1.9942,2.0186,2.0333,2.0576,2.0615,2.0615,2.0615,2.0615,2.0654,2.0731,2.0731,2.077,2.0925,2.1089,2.132,2.1492,2.1699,2.1834,2.1679,2.1549,2.1471,2.1415,2.1347,2.1242,2.1171,2.1242,2.1371,2.1546,2.1732,2.1948,2.2356,2.2656,2.2943,2.3523,2.3797,2.4126,2.4433,2.4742,2.4933,2.517,2.5418,2.5746,2.6094,2.6418,2.6611,2.6816,2.6973,2.7201,2.7403,2.7268,2.7188,2.749,2.7669,2.7901,2.8151,2.8365,2.856,2.878,2.8844,2.9004,2.9131,2.9289,2.9432,2.9641,3.0051,3.025,3.0223,3.0465,3.0921,3.1335,3.1762,3.2322,3.275,3.3033,3.336,3.3986,3.4528,3.4715,3.4937,3.5177,3.5344,3.5424,3.5507,3.5606,3.5703,3.5767,3.591,1.4201,1.5006,1.5082,1.5215,1.534,1.5389,1.5631,1.6004,1.6087,1.6286,1.6615,1.6689,1.6689,1.6689,1.6689,1.6861,1.7401,1.8012,1.8515,1.8682,1.8724,1.8545,1.8406,1.8486,1.8731,1.895,1.9356,1.9687,1.9955,2.0076,2.0516,2.0644,2.0615,2.0615,2.0615,2.0654,2.0741,2.0858,2.0906,2.0984,2.1128,2.1244,2.1436,2.1759,2.2031,2.2115,2.2045,2.2041,2.2107,2.209,2.1941,2.1835,2.1697,2.1579,2.1732,2.1929,2.2113,2.2387,2.2592,2.2845,2.3214,2.3641,2.4026,2.439,2.4803,2.5194,2.5418,2.5629,2.5908,2.6267,2.653,2.6884,2.7154,2.7323,2.749,2.7676,2.7855,2.7776,2.7842,2.7921,2.8118,2.8346,2.8522,2.8716,2.8876,2.9049,2.9158,2.9267,2.9439,2.9663,2.9873,3.0072,3.0498,3.0768,3.0754,3.1271,3.1673,3.1999,3.2426,3.3035,3.3657,3.4021,3.4268,3.4382,3.4746,3.4959,3.5188,3.5385,3.5489,3.5554,3.5589,3.5703,3.5831,3.5926,3.6085,1.4026,1.4566,1.4957,1.5131,1.5173,1.5347,1.5548,1.5782,1.6004,1.6203,1.6435,1.6607,1.6689,1.6689,1.6689,1.7137,1.7804,1.8456,1.8862,1.9076,1.9076,1.8982,1.893,1.9089,1.9494,1.9862,1.9953,2.0105,2.0472,2.0793,2.0915,2.0995,2.0732,2.0615,2.0693,2.0741,2.0829,2.0945,2.1061,2.1205,2.1282,2.1397,2.154,2.1807,2.2073,2.2151,2.2232,2.2563,2.2837,2.2845,2.3102,2.3189,2.2989,2.2384,2.2165,2.2306,2.2605,2.2937,2.3247,2.3595,2.4038,2.4496,2.4862,2.5026,2.5288,2.5571,2.5873,2.6255,2.6645,2.7066,2.7167,2.7456,2.7643,2.7776,2.7973,2.8235,2.8411,2.8495,2.8527,2.8541,2.8656,2.8734,2.889,2.9132,2.9416,2.9627,2.982,2.9947,3.0105,3.0383,3.069,3.0862,3.1034,3.1219,3.1331,3.2038,3.2604,3.2798,3.3216,3.3777,3.4377,3.4877,3.5155,3.5182,3.5179,3.5295,3.5462,3.5572,3.5604,3.5621,3.5703,3.5816,3.5958,3.6116,3.6289,1.3603,1.4237,1.4615,1.4873,1.509,1.5222,1.5416,1.5699,1.5997,1.6203,1.6402,1.6607,1.6689,1.673,1.6853,1.7465,1.832,1.8987,1.9322,1.947,1.947,1.9341,1.923,1.9453,1.9768,2.0117,2.0325,2.0611,2.1021,2.1107,2.1356,2.1377,2.0928,2.0674,2.083,2.0898,2.0975,2.1061,2.1244,2.1387,2.1502,2.1617,2.1731,2.1845,2.1997,2.2138,2.2327,2.2703,2.3113,2.3276,2.3471,2.3703,2.3654,2.3453,2.3078,2.3185,2.3455,2.3746,2.4131,2.446,2.479,2.5004,2.5394,2.5641,2.5769,2.6013,2.6371,2.6816,2.7121,2.7469,2.7656,2.7908,2.8091,2.832,2.8481,2.8688,2.8912,2.9103,2.9162,2.9145,2.9095,2.9154,2.9263,2.9547,2.9897,3.0193,3.0457,3.0598,3.0728,3.1116,3.1493,3.1728,3.1916,3.2191,3.2378,3.2915,3.3392,3.3603,3.3987,3.4535,3.4951,3.5441,3.5721,3.582,3.5816,3.5621,3.5621,3.5638,3.5671,3.5735,3.5847,3.6006,3.6148,3.6305,3.646,1.3222,1.4039,1.4237,1.4573,1.4915,1.5041,1.5249,1.5616,1.5963,1.6162,1.636,1.6566,1.6689,1.6819,1.7251,1.7978,1.8953,1.9552,1.9785,1.9802,1.9847,1.9675,1.9487,1.9488,1.9774,2.0357,2.0629,2.1121,2.152,2.1542,2.1675,2.1689,2.1143,2.0889,2.1144,2.1055,2.1121,2.1244,2.1474,2.1665,2.1807,2.1873,2.1883,2.1921,2.2063,2.222,2.227,2.2657,2.2926,2.3126,2.3331,2.3557,2.3843,2.3915,2.3986,2.4128,2.4458,2.4718,2.4897,2.5194,2.5357,2.543,2.5781,2.6025,2.6267,2.6461,2.6837,2.7289,2.7669,2.7868,2.8085,2.832,2.8578,2.8803,2.8931,2.9071,2.9324,2.9585,2.9837,2.9757,2.9586,2.9743,3.0056,3.0425,3.0863,3.0966,3.1219,3.1116,3.1314,3.1933,3.2346,3.263,3.2925,3.3258,3.3551,3.3827,3.4156,3.4292,3.4778,3.5336,3.5633,3.5959,3.6116,3.6179,3.6006,3.5863,3.5784,3.5752,3.5831,3.5926,3.607,3.6211,3.632,3.6507,3.6724,1.3088,1.3786,1.4039,1.4292,1.4531,1.4915,1.5082,1.5257,1.5839,1.6095,1.6203,1.6541,1.6697,1.7005,1.7849,1.8661,1.9341,1.9849,2.0155,2.0146,2.0163,2.0129,2.0112,2.0155,2.0214,2.0544,2.0837,2.142,2.1797,2.1953,2.2132,2.2162,2.1561,2.1241,2.149,2.1222,2.1254,2.1425,2.1655,2.1883,2.2025,2.2063,2.2138,2.2262,2.2274,2.2238,2.2144,2.2455,2.2615,2.245,2.2742,2.2937,2.3051,2.3039,2.3311,2.3888,2.4548,2.5194,2.5216,2.5484,2.5718,2.5787,2.6126,2.6311,2.6598,2.704,2.7443,2.7676,2.8151,2.8457,2.8587,2.883,2.904,2.923,2.9387,2.9554,2.98,3.0151,3.0375,3.096,3.0945,3.0976,3.1143,3.1511,3.1821,3.1897,3.1915,3.1868,3.2004,3.2731,3.3194,3.3482,3.3732,3.4086,3.4227,3.4579,3.475,3.4931,3.5407,3.5925,3.6132,3.6274,3.6274,3.6305,3.6164,3.607,3.599,3.5958,3.6022,3.6085,3.6179,3.632,3.6476,3.6724,3.708,1.2833,1.3392,1.3737,1.3997,1.4243,1.4573,1.4873,1.5131,1.5533,1.5873,1.6121,1.6409,1.6826,1.748,1.8258,1.8889,1.9531,2.0084,2.0292,2.0292,2.0292,2.0292,2.0266,2.0329,2.0473,2.0654,2.0826,2.1123,2.1623,2.1925,2.2179,2.2471,2.1773,2.1458,2.1759,2.142,2.1353,2.154,2.1807,2.2063,2.2214,2.2289,2.2327,2.2392,2.228,2.2192,2.2237,2.2485,2.2596,2.2581,2.3144,2.3456,2.3453,2.3753,2.4314,2.414,2.4966,2.5191,2.4822,2.5373,2.5645,2.5918,2.6328,2.6829,2.7087,2.7577,2.8052,2.8249,2.8619,2.8908,2.9131,2.9369,2.9557,2.9727,2.9907,3.0259,3.0497,3.0702,3.1085,3.1731,3.2321,3.2318,3.2344,3.2551,3.2789,3.2817,3.3038,3.3233,3.3376,3.379,3.4112,3.431,3.4578,3.4809,3.4878,3.5068,3.5218,3.5404,3.5678,3.6148,3.6414,3.6538,3.6538,3.6523,3.6492,3.6367,3.6195,3.6116,3.6148,3.6211,3.6274,3.6552,3.6862,3.7406,3.7997,1.254,1.2966,1.3392,1.3737,1.3997,1.4237,1.4573,1.4999,1.5318,1.5699,1.6087,1.6425,1.7085,1.7943,1.8409,1.8991,1.9862,2.0172,2.0266,2.0292,2.0292,2.0292,2.0292,2.0337,2.0428,2.06,2.0407,2.0756,2.1132,2.1401,2.1817,2.2604,2.1926,2.183,2.1968,2.1749,2.1492,2.1693,2.2035,2.2252,2.244,2.2467,2.2515,2.2483,2.2405,2.2321,2.2375,2.2784,2.2911,2.2776,2.3444,2.3698,2.3595,2.4038,2.4572,2.4579,2.5099,2.514,2.4958,2.5176,2.5509,2.5957,2.6547,2.7302,2.7756,2.8203,2.8514,2.872,2.9035,2.9352,2.9602,2.9792,2.9991,3.0199,3.045,3.0904,3.136,3.1594,3.2021,3.2701,3.3249,3.3636,3.3674,3.3685,3.3717,3.3728,3.4055,3.4442,3.4524,3.4562,3.4637,3.4699,3.493,3.5169,3.5332,3.5429,3.5606,3.5799,3.6085,3.6274,3.6523,3.6677,3.6739,3.6723,3.6677,3.6538,3.632,3.6274,3.6274,3.6398,3.6567,3.6936,3.7372,3.7997,3.8827,1.2203,1.2491,1.2973,1.3349,1.3737,1.3997,1.4328,1.4741,1.5186,1.5658,1.6128,1.6547,1.7353,1.8214,1.8617,1.9194,2.0232,2.0283,2.0292,2.0292,2.0292,2.0292,2.0292,2.0292,2.0329,2.0277,2.0193,2.0337,2.0604,2.0793,2.1403,2.2183,2.2002,2.222,2.2248,2.1959,2.1845,2.2022,2.2252,2.2478,2.2628,2.2703,2.2777,2.2916,2.304,2.2964,2.2409,2.2993,2.3156,2.2716,2.3438,2.3749,2.3829,2.4227,2.4627,2.4901,2.5101,2.5254,2.5364,2.5454,2.564,2.6173,2.6913,2.7756,2.8262,2.849,2.8798,2.9153,2.9463,2.9682,2.9898,3.0068,3.0387,3.0638,3.0975,3.1518,3.205,3.2566,3.3027,3.3665,3.4112,3.4378,3.459,3.4501,3.435,3.4347,3.4328,3.4702,3.467,3.4725,3.4809,3.4892,3.5106,3.5329,3.5591,3.572,3.5799,3.599,3.6242,3.6399,3.6553,3.6707,3.6877,3.6676,3.6553,3.6492,3.6507,3.6552,3.6598,3.666,3.6892,3.7402,3.8225,3.9089,3.985,1.2134,1.235,1.2717,1.3052,1.3349,1.3695,1.4039,1.437,1.4783,1.5409,1.6144,1.6776,1.758,1.8329,1.8797,1.9343,2.0204,2.0292,2.0292,2.0292,2.0292,2.0292,2.0292,2.0292,2.0283,2.0249,2.0129,2.0112,2.0421,2.0419,2.1078,2.1708,2.1895,2.2211,2.2237,2.2227,2.2171,2.226,2.2478,2.2703,2.2852,2.2889,2.2927,2.299,2.2994,2.301,2.2898,2.3351,2.335,2.3433,2.3937,2.4046,2.4111,2.4584,2.4969,2.528,2.549,2.5781,2.6,2.6161,2.6511,2.7229,2.7756,2.8183,2.8651,2.8862,2.9117,2.9495,2.9929,3.0174,3.0326,3.0582,3.0895,3.1086,3.1513,3.2134,3.2756,3.3367,3.3919,3.4532,3.472,3.4943,3.508,3.5249,3.5037,3.4905,3.492,3.492,3.4916,3.494,3.5053,3.5165,3.535,3.5492,3.572,3.5863,3.5973,3.6179,3.6399,3.6492,3.6599,3.6799,3.6907,3.6675,3.6553,3.6585,3.6676,3.6846,3.6846,3.6722,3.7201,3.7945,3.8929,3.995,4.0467,1.2153,1.2368,1.2626,1.2875,1.3137,1.3392,1.3701,1.4039,1.4489,1.5284,1.6219,1.6899,1.7586,1.8275,1.8625,1.9231,1.9864,2.0073,2.0073,2.0073,2.0073,2.0073,2.0073,2.0073,2.0027,2.0048,1.9938,1.9895,2.0065,2.018,2.0586,2.1016,2.1434,2.1783,2.2612,2.2511,2.2448,2.251,2.2692,2.2852,2.2964,2.3001,2.3001,2.3054,2.3156,2.3187,2.3381,2.3793,2.406,2.4101,2.4345,2.4544,2.4696,2.4964,2.5485,2.5734,2.5974,2.6361,2.6534,2.6828,2.7154,2.7613,2.8141,2.8449,2.878,2.9135,2.9463,2.9837,3.0296,3.0672,3.0762,3.1029,3.1456,3.1753,3.2482,3.3095,3.3753,3.4352,3.4833,3.5312,3.5417,3.5447,3.5494,3.5619,3.5442,3.5279,3.5213,3.5213,3.5216,3.527,3.5367,3.5512,3.5638,3.5767,3.5847,3.602,3.6162,3.6289,3.6476,3.6522,3.6644,3.6907,3.7203,3.7235,3.7111,3.6816,3.7046,3.7523,3.7169,3.663,3.7494,3.8546,3.9127,4.0025,4.0291,1.2164,1.2388,1.2607,1.2839,1.3052,1.3094,1.3349,1.3786,1.4474,1.5418,1.6428,1.6788,1.7389,1.8154,1.8441,1.8994,1.9571,1.9671,1.9671,1.9716,1.9762,1.9679,1.9679,1.9716,1.9762,1.9534,1.948,1.9517,1.9662,1.9545,1.9853,2.0444,2.1049,2.165,2.3034,2.3104,2.2937,2.2789,2.2944,2.2964,2.3001,2.3001,2.299,2.2959,2.338,2.3468,2.342,2.4085,2.4325,2.4284,2.4294,2.4478,2.4645,2.4723,2.5053,2.5384,2.5808,2.6139,2.6343,2.6867,2.7327,2.7628,2.8111,2.8515,2.8994,2.9401,2.9775,3.0083,3.0655,3.0954,3.1161,3.1468,3.2017,3.2435,3.314,3.3774,3.4362,3.4829,3.5205,3.5612,3.5831,3.5988,3.5957,3.5925,3.5765,3.5604,3.5522,3.5489,3.5522,3.5572,3.5653,3.575,3.5878,3.5958,3.6053,3.6224,3.6365,3.6476,3.66,3.6723,3.6893,3.7173,3.7452,3.7701,3.7731,3.7539,3.7908,3.8354,3.7831,3.7477,3.8308,3.919,3.9632,3.9913,4.007,1.2242,1.2332,1.2584,1.2747,1.2833,1.3015,1.3185,1.3508,1.4689,1.5961,1.7024,1.7565,1.7997,1.8471,1.8755,1.9072,1.9476,1.9587,1.9587,1.9587,1.9533,1.9587,1.9587,1.9533,1.9533,1.9554,1.943,1.936,1.9625,1.9352,1.9703,2.035,2.128,2.2312,2.2675,2.2799,2.2891,2.308,2.3107,2.3001,2.3001,2.3001,2.287,2.2608,2.3228,2.3347,2.3075,2.3929,2.42,2.4145,2.4121,2.4138,2.4326,2.4414,2.4816,2.5274,2.5803,2.6338,2.6701,2.717,2.7552,2.7723,2.7949,2.8416,2.8812,2.9515,2.9931,3.0533,3.1337,3.1634,3.1687,3.2251,3.27,3.273,3.3273,3.3894,3.444,3.4849,3.5243,3.5698,3.602,3.6037,3.6037,3.6115,3.5988,3.5925,3.5829,3.5797,3.5797,3.5829,3.591,3.5941,3.6037,3.6132,3.6257,3.6519,3.6612,3.666,3.6863,3.7049,3.725,3.7592,3.7592,3.7763,3.8038,3.8308,3.8169,3.8108,3.8369,3.8554,3.8831,3.9098,3.9354,3.9509,3.9613,1.2367,1.2469,1.2632,1.2705,1.2705,1.2881,1.3259,1.4035,1.5382,1.6613,1.7525,1.7965,1.8273,1.8551,1.8797,1.9085,1.9333,1.9304,1.9304,1.9304,1.9296,1.9296,1.9304,1.935,1.925,1.935,1.935,1.9304,1.925,1.9304,1.948,2.0123,2.1695,2.225,2.2612,2.2931,2.3464,2.3584,2.3444,2.3121,2.3154,2.3088,2.2746,2.2622,2.2818,2.3073,2.2971,2.3238,2.3745,2.3836,2.3782,2.3706,2.3957,2.4188,2.4482,2.4828,2.5651,2.6254,2.6786,2.7037,2.7375,2.7687,2.7886,2.832,2.8844,2.9577,3.007,3.0788,3.1946,3.2345,3.2384,3.2983,3.3436,3.3526,3.3891,3.4546,3.508,3.5522,3.5599,3.6026,3.6147,3.6132,3.6132,3.6195,3.6195,3.6195,3.6178,3.61,3.6037,3.6068,3.61,3.6132,3.6195,3.6289,3.6566,3.6935,3.6983,3.6876,3.725,3.7732,3.7981,3.8353,3.8089,3.7917,3.8421,3.86,3.7892,3.7769,3.82,3.8338,3.8338,3.8668,3.9031,3.9135,3.9157,1.2469,1.2687,1.2699,1.2705,1.2705,1.293,1.384,1.5346,1.6359,1.719,1.785,1.7922,1.8173,1.8311,1.8359,1.8595,1.8826,1.8874,1.8881,1.8881,1.8966,1.8928,1.8874,1.8874,1.8966,1.8874,1.8874,1.8974,1.8874,1.892,1.9034,1.9675,2.1257,2.2226,2.2984,2.3666,2.4122,2.4059,2.3596,2.334,2.3318,2.3165,2.2772,2.26,2.2688,2.283,2.288,2.3092,2.3675,2.3783,2.3616,2.3577,2.3623,2.371,2.3709,2.4216,2.5424,2.6172,2.6711,2.6928,2.724,2.7718,2.8316,2.8639,2.9008,2.9543,3.005,3.0857,3.1944,3.263,3.3148,3.3829,3.4513,3.4726,3.4985,3.5507,3.6061,3.6307,3.6276,3.6368,3.6414,3.6429,3.6398,3.6398,3.6367,3.6367,3.6336,3.6258,3.6226,3.6226,3.6258,3.6258,3.632,3.646,3.6769,3.7183,3.7353,3.7246,3.8258,3.8807,3.8992,3.888,3.8662,3.8643,3.91,3.8954,3.8215,3.8015,3.82,3.8246,3.8123,3.8294,3.8702,3.8677,3.8747,1.2632,1.2705,1.2705,1.2705,1.293,1.4285,1.5214,1.5766,1.6736,1.7627,1.8518,1.8518,1.8526,1.8669,1.8676,1.874,1.8788,1.8781,1.8827,1.8781,1.8781,1.8781,1.8781,1.8781,1.8781,1.8781,1.8781,1.8781,1.8827,1.8827,1.9621,2.0712,2.1604,2.2765,2.3757,2.4653,2.4656,2.4443,2.3853,2.3591,2.3372,2.3176,2.2772,2.2564,2.2626,2.269,2.2811,2.299,2.3514,2.3778,2.3725,2.3808,2.4315,2.4659,2.4975,2.5858,2.6404,2.6657,2.6833,2.7199,2.7596,2.7908,2.8447,2.8583,2.8862,2.9404,3.0063,3.0958,3.2236,3.3201,3.3728,3.4349,3.5003,3.5399,3.5507,3.5615,3.6076,3.6292,3.6276,3.6445,3.6492,3.6492,3.6492,3.6492,3.6429,3.6492,3.646,3.6414,3.6352,3.6352,3.6352,3.6383,3.6414,3.6492,3.6953,3.7415,3.7554,3.7786,3.8755,3.9288,3.8877,3.8766,3.9001,3.8951,3.8727,3.8662,3.8523,3.8277,3.7831,3.8015,3.7984,3.8155,3.8296,3.852,3.8997,1.2705,1.2705,1.2705,1.293,1.3571,1.5075,1.6019,1.6497,1.7447,1.8271,1.8765,1.8758,1.8781,1.8765,1.8758,1.8773,1.8773,1.8781,1.8781,1.8781,1.8781,1.8781,1.8781,1.8781,1.8781,1.8781,1.8781,1.8781,1.8874,1.9188,1.9894,2.1186,2.2155,2.3347,2.4299,2.4954,2.5137,2.4781,2.4312,2.3908,2.3602,2.3318,2.2914,2.2491,2.2576,2.2618,2.2777,2.3003,2.3366,2.3953,2.4087,2.4378,2.4881,2.5352,2.6102,2.6829,2.7101,2.7352,2.7651,2.8166,2.8343,2.8546,2.8926,2.9279,2.9455,2.9878,3.0331,3.0995,3.262,3.395,3.4314,3.4726,3.5324,3.5861,3.5677,3.5447,3.5723,3.6015,3.623,3.643,3.6492,3.6492,3.6492,3.6492,3.6492,3.6492,3.6492,3.6492,3.646,3.646,3.646,3.646,3.646,3.6522,3.7015,3.7446,3.7661,3.8065,3.9003,3.9301,3.8795,3.8609,3.8755,3.8379,3.7878,3.7846,3.7846,3.7492,3.7169,3.7492,3.7969,3.8277,3.8668,3.9158,3.9768,1.2662,1.2705,1.2705,1.3256,1.4274,1.5327,1.6335,1.7387,1.824,1.875,1.8773,1.8781,1.8781,1.8781,1.8781,1.8781,1.8781,1.8781,1.8781,1.8781,1.8781,1.8781,1.8781,1.8781,1.8781,1.8781,1.892,1.9096,1.915,1.9509,2.0229,2.1382,2.2473,2.3531,2.4382,2.5347,2.5557,2.524,2.4792,2.4377,2.4126,2.3798,2.3285,2.2539,2.2465,2.2573,2.2798,2.3052,2.3327,2.4174,2.4774,2.5046,2.5675,2.6226,2.7005,2.7395,2.7728,2.8085,2.8438,2.8926,2.9265,2.9591,3.0052,3.0201,3.0282,3.0168,3.0491,3.1113,3.2594,3.3477,3.3921,3.448,3.5105,3.556,3.5609,3.5704,3.6076,3.6276,3.6353,3.6492,3.6492,3.6492,3.6492,3.6507,3.6692,3.6599,3.6492,3.6492,3.6599,3.6599,3.6492,3.6492,3.6492,3.6538,3.6799,3.723,3.7692,3.8282,3.9065,3.9203,3.8699,3.8501,3.8446,3.7852,3.723,3.703,3.6907,3.6892,3.7123,3.7461,3.7938,3.8431,3.9009,3.9878,4.0494,1.2357,1.2705,1.2705,1.3399,1.4517,1.5189,1.6291,1.7619,1.816,1.8597,1.8742,1.8781,1.8781,1.8781,1.8781,1.8781,1.8781,1.8781,1.8781,1.8781,1.8781,1.8781,1.8781,1.8781,1.8781,1.8966,1.9142,1.9509,1.9828,2.0192,2.0727,2.1819,2.2824,2.3617,2.4712,2.5644,2.5775,2.56,2.5175,2.4607,2.4126,2.3569,2.2968,2.2815,2.2834,2.3178,2.3468,2.3811,2.4307,2.4989,2.5578,2.6261,2.7176,2.7666,2.8061,2.8311,2.8397,2.8722,2.9176,2.9536,2.9821,3.0106,3.0432,3.0703,3.0773,3.0549,3.076,3.1453,3.2178,3.2936,3.3585,3.422,3.478,3.5157,3.5529,3.5943,3.6352,3.646,3.6492,3.6492,3.6492,3.6492,3.6492,3.6599,3.6815,3.6769,3.6584,3.6569,3.6815,3.6876,3.6538,3.6492,3.6492,3.6569,3.6753,3.703,3.7492,3.7849,3.8427,3.85,3.8479,3.8112,3.7729,3.7156,3.6661,3.6676,3.6861,3.7123,3.7369,3.7877,3.8492,3.9231,4.0388,4.1346,4.1638,1.2443,1.2759,1.3218,1.3861,1.4705,1.5734,1.6786,1.7665,1.8285,1.8645,1.8758,1.8781,1.8781,1.8781,1.8781,1.8781,1.8781,1.8781,1.8781,1.8781,1.8781,1.8781,1.8781,1.8781,1.8781,1.892,1.9371,1.9828,2.051,2.0727,2.1257,2.257,2.3313,2.4016,2.5158,2.5728,2.5895,2.5863,2.5415,2.488,2.4224,2.3755,2.3209,2.3121,2.3124,2.3516,2.3897,2.4225,2.4647,2.5347,2.6055,2.7031,2.7822,2.8298,2.8663,2.8885,2.9094,2.9285,2.974,3.012,3.0364,3.069,3.1124,3.1517,3.1572,3.142,3.142,3.2071,3.2521,3.3245,3.3308,3.3774,3.4197,3.4599,3.4912,3.5287,3.5975,3.6492,3.6492,3.6492,3.6492,3.6492,3.6492,3.6507,3.6738,3.7092,3.6876,3.6799,3.7015,3.6969,3.6676,3.6492,3.6492,3.6507,3.6599,3.6907,3.7307,3.7602,3.7821,3.7744,3.7649,3.7308,3.6907,3.6753,3.6692,3.6753,3.6969,3.7477,3.8369,3.9123,3.9628,4.0197,4.1432,4.2648,4.3177,1.2601,1.2875,1.369,1.4381,1.4997,1.6382,1.7378,1.7925,1.848,1.8718,1.8781,1.8781,1.8781,1.8781,1.8781,1.8781,1.8781,1.8781,1.8781,1.8781,1.8781,1.8781,1.8781,1.8781,1.8966,1.9279,1.9737,2.0365,2.1042,2.1221,2.1882,2.3454,2.4102,2.4498,2.5506,2.5895,2.5895,2.5775,2.548,2.5259,2.477,2.4334,2.3755,2.3362,2.3262,2.3646,2.4138,2.4517,2.4844,2.5695,2.6724,2.7819,2.8585,2.9083,2.9246,2.9496,2.9604,2.9944,3.0418,3.0866,3.1137,3.1477,3.2001,3.2178,3.2164,3.2164,3.2164,3.2354,3.2812,3.2989,3.3052,3.3157,3.3561,3.4129,3.4399,3.4927,3.5737,3.646,3.646,3.6492,3.6492,3.6492,3.6492,3.6492,3.6753,3.7123,3.723,3.723,3.7138,3.6861,3.6584,3.6492,3.6492,3.6507,3.6522,3.6722,3.7076,3.7046,3.7156,3.7017,3.6894,3.6816,3.6799,3.6876,3.6846,3.7076,3.7584,3.8154,3.9123,4.0136,4.0816,4.1324,4.2317,4.3506,4.4643,1.214,1.3049,1.3235,1.4269,1.5711,1.5974,1.6913,1.8395,1.8443,1.8549,1.8734,1.8781,1.8781,1.8781,1.8781,1.8781,1.8781,1.8781,1.8781,1.8781,1.8781,1.8781,1.8874,1.9104,1.9379,1.9828,2.0374,2.1006,2.1365,2.1544,2.2246,2.3637,2.38,2.4456,2.5591,2.5895,2.5884,2.5764,2.5546,2.5292,2.515,2.4727,2.4421,2.4213,2.4203,2.4736,2.5199,2.539,2.5873,2.6648,2.7574,2.866,2.9373,2.9801,2.9984,3.012,3.0215,3.0568,3.1029,3.13,3.1531,3.1857,3.2205,3.2205,3.2191,3.2191,3.2191,3.2191,3.2489,3.2489,3.2503,3.2503,3.2832,3.363,3.4129,3.5124,3.6038,3.6289,3.6398,3.6429,3.6492,3.6492,3.6492,3.6584,3.6799,3.7015,3.6907,3.6938,3.7292,3.6938,3.6492,3.6492,3.6492,3.6492,3.6507,3.6507,3.6707,3.6646,3.6646,3.6724,3.6724,3.66,3.6615,3.7016,3.737,3.7646,3.82,3.8985,3.9878,4.0878,4.1755,4.2535,4.3402,4.4214,4.5192]},{"header":{"parameterUnit":"m.s-1","parameterCategory":1,"la1":31.0,"la2":29.5877,"lo1":-88.7671,"lo2":-86.6584,"dy":0.0162,"dx":0.0185,"nx":115,"ny":88,"refTime":"2023-03-20T12:00:00:Z","depth":0,"parameterNumber":3,"parameterNumberName":"V-component_of_WINDS"},"data":[0.0,0.0,0.0,0.0,0.0,0.0,0.0,0.0,0.0,0.0,0.0,0.0,0.0,0.0,0.0,0.0,0.0,0.0,0.0,0.0,0.0,0.0,0.0,0.0,0.0,0.0,0.0,0.0,0.0,0.0,0.0,0.0,0.0,0.0,0.0,0.0,0.0,0.0,0.0,0.0,0.0,0.0,0.0,0.0,0.0,0.0,0.0,0.0,0.0,0.0,0.0,0.0,0.0,0.0,0.0,0.0,0.0,0.0,0.0,0.0,0.0,0.0,0.0,0.0,0.0,0.0,0.0,0.0,0.0,0.0,0.0,0.0,0.0,0.0,0.0,0.0,0.0,0.0,0.0,0.0,0.0,0.0,0.0,0.0,0.0,0.0,0.0,0.0,0.0,0.0,0.0,0.0,0.0,0.0,0.0,0.0,0.0,0.0,0.0,0.0,0.0,0.0,0.0,0.0,0.0,0.0,0.0,0.0,0.0,0.0,0.0,0.0,0.0,0.0,0.0,0.0,0.0,0.0,0.0,0.0,0.0,0.0,0.0,0.0,0.0,0.0,0.0,0.0,0.0,0.0,0.0,0.0,0.0,0.0,0.0,0.0,0.0,0.0,0.0,0.0,0.0,0.0,0.0,0.0,0.0,0.0,0.0,0.0,0.0,0.0,0.0,0.0,0.0,0.0,0.0,0.0,0.0,0.0,0.0,0.0,0.0,0.0,0.0,0.0,0.0,0.0,0.0,0.0,0.0,0.0,0.0,0.0,0.0,0.0,0.0,0.0,0.0,0.0,0.0,0.0,0.0,0.0,0.0,0.0,0.0,0.0,0.0,0.0,0.0,0.0,0.0,0.0,0.0,0.0,0.0,0.0,0.0,0.0,0.0,0.0,0.0,0.0,0.0,0.0,0.0,0.0,0.0,0.0,0.0,0.0,0.0,0.0,0.0,0.0,0.0,0.0,0.0,0.0,0.0,0.0,0.0,0.0,0.0,0.0,0.0,0.0,0.0,0.0,0.0,0.0,0.0,0.0,0.0,0.0,0.0,0.0,0.0,0.0,0.0,0.0,0.0,0.0,0.0,0.0,0.0,0.0,0.0,0.0,0.0,0.0,0.0,0.0,0.0,0.0,0.0,0.0,0.0,0.0,0.0,0.0,0.0,0.0,0.0,0.0,0.0,0.0,0.0,0.0,0.0,0.0,0.0,0.0,0.0,0.0,0.0,0.0,0.0,0.0,0.0,0.0,0.0,0.0,0.0,0.0,0.0,0.0,0.0,0.0,0.0,0.0,0.0,0.0,0.0,0.0,0.0,0.0,0.0,0.0,0.0,0.0,0.0,0.0,0.0,0.0,0.0,0.0,0.0,0.0,0.0,0.0,0.0,0.0,0.0,0.0,0.0,0.0,0.0,0.0,0.0,0.0,0.0,0.0,0.0,0.0,0.0,0.0,0.0,0.0,0.0,0.0,0.0,0.0,0.0,0.0,0.0,0.0,0.0,0.0,0.0,0.0,0.0,0.0,0.0,0.0,0.0,0.0,0.0,0.0,0.0,0.0,0.0,0.0,0.0,0.0,0.0,0.0,0.0,0.0,0.0,0.0,0.0,0.0,0.0,0.0,0.0,0.0,0.0,0.0,0.0,0.0,0.0,0.0,0.0,0.0,0.0,0.0,0.0,0.0,0.0,0.0,0.0,0.0,0.0,0.0,0.0,0.0,0.0,0.0,0.0,0.0,0.0,0.0,0.0,0.0,0.0,0.0,0.0,0.0,0.0,0.0,0.0,0.0,0.0,0.0,0.0,0.0,0.0,0.0,0.0,0.0,0.0,0.0,0.0,0.0,0.0,0.0,0.0,0.0,0.0,0.0,0.0,0.0,0.0,0.0,0.0,0.0,0.0,0.0,0.0,0.0,0.0,0.0,0.0,0.0,0.0,0.0,0.0,0.0,0.0,0.0,0.0,0.0,0.0,0.0,0.0,0.0,0.0,0.0,0.0,0.0,0.0,0.0,0.0,0.0,0.0,0.0,0.0,0.0,0.0,0.0,0.0,0.0,0.0,0.0,0.0,0.0,0.0,0.0,0.0,0.0,0.0,0.0,0.0,0.0,0.0,0.0,0.0,0.0,0.0,0.0,0.0,0.0,0.0,0.0,0.0,0.0,0.0,0.0,0.0,0.0,0.0,0.0,0.0,0.0,0.0,0.0,0.0,0.0,0.0,0.0,0.0,0.0,0.0,0.0,0.0,0.0,0.0,0.0,0.0,0.0,0.0,0.0,0.0,0.0,0.0,0.0,0.0,0.0,0.0,0.0,0.0,0.0,0.0,0.0,0.0,0.0,0.0,0.0,0.0,0.0,0.0,0.0,0.0,0.0,0.0,0.0,0.0,0.0,0.0,0.0,0.0,0.0,0.0,0.0,0.0,0.0,0.0,0.0,0.0,0.0,0.0,0.0,0.0,0.0,0.0,0.0,0.0,0.0,0.0,0.0,0.0,0.0,0.0,0.0,0.0,0.0,0.0,0.0,0.0,0.0,0.0,0.0,0.0,0.0,0.0,0.0,0.0,0.0,0.0,0.0,0.0,0.0,0.0,0.0,0.0,0.0,0.0,0.0,0.0,0.0,0.0,0.0,0.0,0.0,0.0,0.0,0.0,0.0,0.0,0.0,0.0,0.0,0.0,0.0,0.0,0.0,0.0,0.0,0.0,0.0,0.0,0.0,0.0,0.0,0.0,0.0,0.0,0.0,0.0,0.0,0.0,0.0,0.0,0.0,0.0,0.0,0.0,0.0,0.0,0.0,0.0,0.0,0.0,0.0,0.0,0.0,0.0,0.0,0.0,0.0,0.0,0.0,0.0,0.0,0.0,0.0,0.0,0.0,0.0,0.0,0.0,0.0,0.0,0.0,0.0,0.0,0.0,0.0,0.0,0.0,0.0,0.0,0.0,0.0,0.0,0.0,0.0,0.0,0.0,0.0,0.0,0.0,0.0,0.0,0.0,0.0,0.0,0.0,0.0,0.0,0.0,0.0,0.0,0.0,0.0,0.0,0.0,0.0,0.0,0.0,0.0,0.0,0.0,0.0,0.0,0.0,0.0,0.0,0.0,0.0,0.0,0.0,0.0,0.0,0.0,0.0,0.0,0.0,0.0,0.0,0.0,0.0,0.0,0.0,0.0,0.0,0.0,0.0,0.0,0.0,0.0,0.0,0.0,0.0,0.0,0.0,0.0,0.0,0.0,0.0,0.0,0.0,0.0,0.0,0.0,0.0,0.0,0.0,0.0,0.0,0.0,0.0,0.0,0.0,0.0,0.0,0.0,0.0,0.0,0.0,0.0,0.0,0.0,0.0,0.0,0.0,0.0,0.0,0.0,0.0,0.0,0.0,0.0,0.0,0.0,0.0,0.0,0.0,0.0,0.0,0.0,0.0,0.0,0.0,0.0,0.0,0.0,0.0,0.0,0.0,0.0,0.0,0.0,0.0,0.0,0.0,0.0,0.0,0.0,0.0,0.0,0.0,0.0,0.0,0.0,0.0,0.0,0.0,0.0,0.0,0.0,0.0,0.0,0.0,0.0,0.0,0.0,0.0,0.0,0.0,0.0,0.0,0.0,0.0,0.0,0.0,0.0,0.0,0.0,0.0,0.0,0.0,0.0,0.0,0.0,0.0,0.0,0.0,0.0,0.0,0.0,0.0,0.0,0.0,0.0,0.0,0.0,0.0,0.0,0.0,0.0,0.0,0.0,0.0,0.0,0.0,0.0,0.0,0.0,0.0,0.0,0.0,0.0,0.0,0.0,0.0,0.0,0.0,0.0,0.0,0.0,0.0,0.0,0.0,0.0,0.0,0.0,0.0,0.0,0.0,0.0,0.0,0.0,0.0,0.0,0.0,0.0,0.0,0.0,0.0,0.0,0.0,0.0,0.0,0.0,0.0,0.0,0.0,0.0,0.0,0.0,0.0,0.0,0.0,0.0,0.0,0.0,0.0,0.0,0.0,0.0,0.0,0.0,0.0,0.0,0.0,0.0,0.0,0.0,0.0,0.0,0.0,0.0,0.0,0.0,0.0,0.0,0.0,0.0,0.0,0.0,0.0,0.0,0.0,0.0,0.0,0.0,0.0,0.0,0.0,0.0,0.0,0.0,0.0,0.0,0.0,0.0,0.0,0.0,0.0,0.0,0.0,0.0,0.0,0.0,0.0,0.0,0.0,0.0,0.0,0.0,0.0,0.0,0.0,0.0,0.0,0.0,0.0,0.0,0.0,0.0,0.0,0.0,0.0,0.0,0.0,1.9883,0.0,0.0,0.0,0.0,0.0,0.0,0.0,0.0,0.0,0.0,0.0,0.0,0.0,0.0,0.0,0.0,0.0,0.0,0.0,0.0,0.0,0.0,0.0,0.0,0.0,0.0,0.0,0.0,0.0,0.0,0.0,0.0,0.0,0.0,0.0,0.0,0.0,0.0,0.0,0.0,0.0,0.0,0.0,0.0,0.0,0.0,0.0,0.0,0.0,0.0,0.0,0.0,0.0,0.0,0.0,0.0,0.0,0.0,0.0,0.0,0.0,0.0,0.0,0.0,0.0,0.0,0.0,0.0,0.0,0.0,0.0,0.0,0.0,0.0,0.0,0.0,0.0,0.0,0.0,0.0,0.0,0.0,0.0,0.0,0.0,0.0,0.0,0.0,0.0,0.0,0.0,0.0,0.0,0.0,0.0,0.0,0.0,0.0,0.0,0.0,0.0,0.0,0.0,0.0,0.0,0.0,0.0,0.0,0.0,0.0,1.7163,1.8271,1.7728,1.8076,1.9459,0.0,0.0,0.0,0.0,0.0,0.0,0.0,0.0,0.0,0.0,0.0,0.0,0.0,0.0,0.0,0.0,0.0,0.0,0.0,0.0,0.0,0.0,0.0,0.0,0.0,0.0,0.0,0.0,0.0,0.0,0.0,0.0,0.0,0.0,0.0,0.0,0.0,0.0,0.0,0.0,0.0,0.0,0.0,0.0,0.0,0.0,0.0,0.0,0.0,0.0,0.0,0.0,0.0,0.0,0.0,0.0,0.0,0.0,0.0,0.0,0.0,0.0,0.0,0.0,0.0,0.0,0.0,0.0,0.0,0.0,0.0,0.0,0.0,0.0,0.0,0.0,0.0,0.0,0.0,0.0,0.0,0.0,0.0,0.0,0.0,0.0,0.0,0.0,0.0,0.0,0.0,0.0,0.0,0.0,0.0,0.0,0.0,0.0,0.0,0.0,0.0,0.0,0.0,0.0,0.0,0.0,0.0,0.0,0.0,0.0,0.0,0.0,1.873,1.8964,1.9845,0.0,0.0,0.0,0.0,0.0,0.0,0.0,0.0,0.0,0.0,0.0,0.0,0.0,0.0,0.0,0.0,0.0,0.0,0.0,0.0,0.0,0.0,0.0,0.0,0.0,0.0,0.0,0.0,0.0,0.0,0.0,0.0,0.0,0.0,0.0,0.0,0.0,0.0,0.0,0.0,0.0,0.0,0.0,0.0,0.0,0.0,0.0,0.0,0.0,0.0,0.0,0.0,0.0,0.0,0.0,0.0,0.0,0.0,0.0,0.0,0.0,0.0,0.0,0.0,0.0,0.0,0.0,0.0,0.0,0.0,0.0,0.0,0.0,0.0,0.0,0.0,0.0,0.0,0.0,0.0,0.0,0.0,0.0,0.0,0.0,0.0,0.0,0.0,0.0,0.0,0.0,0.0,0.0,0.0,0.0,0.0,0.0,0.0,0.0,0.0,0.0,0.0,0.0,0.0,0.0,0.0,0.0,0.0,0.0,0.0,1.8831,2.0973,2.1595,0.0,2.2729,0.0,0.0,0.0,0.0,0.0,0.0,0.0,0.0,0.0,0.0,0.0,0.0,0.0,0.0,0.0,0.0,0.0,0.0,0.0,0.0,0.0,0.0,0.0,0.0,0.0,0.0,0.0,0.0,0.0,0.0,0.0,0.0,0.0,0.0,0.0,0.0,0.0,0.0,0.0,0.0,0.0,0.0,0.0,0.0,0.0,0.0,0.0,0.0,0.0,0.0,0.0,0.0,0.0,0.0,0.0,0.0,0.0,0.0,0.0,0.0,0.0,0.0,0.0,0.0,0.0,0.0,0.0,0.0,0.0,0.0,0.0,0.0,0.0,0.0,0.0,0.0,0.0,0.0,0.0,0.0,0.0,0.0,0.0,0.0,0.0,0.0,0.0,0.0,0.0,0.0,0.0,0.0,0.0,0.0,0.0,0.0,0.0,0.0,0.0,0.0,0.0,0.0,0.0,0.0,0.0,0.0,0.0,0.0,0.0,0.0,1.9121,2.124,2.1583,2.1582,0.0,0.0,0.0,0.0,0.0,0.0,0.0,0.0,0.0,0.0,0.0,0.0,0.0,0.0,0.0,0.0,0.0,0.0,0.0,0.0,0.0,0.0,0.0,0.0,0.0,0.0,0.0,0.0,0.0,0.0,0.0,0.0,0.0,0.0,0.0,0.0,0.0,0.0,0.0,0.0,0.0,0.0,0.0,0.0,0.0,0.0,0.0,0.0,0.0,0.0,0.0,0.0,0.0,0.0,0.0,0.0,0.0,0.0,0.0,0.0,0.0,0.0,0.0,0.0,0.0,0.0,0.0,0.0,0.0,0.0,0.0,0.0,0.0,0.0,0.0,0.0,0.0,0.0,0.0,0.0,0.0,0.0,0.0,0.0,0.0,0.0,0.0,0.0,0.0,0.0,0.0,0.0,0.0,0.0,0.0,0.0,0.0,0.0,0.0,0.0,0.0,0.0,0.0,0.0,0.0,0.0,0.0,0.0,0.0,0.0,1.8754,1.9747,2.1932,2.1327,2.0828,2.0776,0.0,0.0,0.0,0.0,0.0,0.0,0.0,0.0,0.0,0.0,0.0,0.0,0.0,0.0,0.0,0.0,0.0,0.0,0.0,0.0,0.0,0.0,0.0,0.0,0.0,0.0,0.0,0.0,0.0,0.0,0.0,0.0,0.0,0.0,0.0,0.0,0.0,0.0,0.0,0.0,0.0,0.0,0.0,0.0,0.0,0.0,0.0,0.0,0.0,0.0,0.0,0.0,0.0,0.0,0.0,0.0,0.0,0.0,0.0,0.0,0.0,0.0,0.0,0.0,0.0,0.0,0.0,0.0,0.0,0.0,0.0,0.0,0.0,0.0,0.0,0.0,0.0,0.0,0.0,0.0,0.0,0.0,0.0,0.0,0.0,0.0,0.0,0.0,0.0,0.0,0.0,0.0,0.0,0.0,0.0,0.0,0.0,0.0,0.0,0.0,0.0,0.0,0.0,0.0,0.0,0.0,0.0,0.0,2.1549,2.0363,2.1072,2.3908,2.1376,2.0894,0.0,0.0,0.0,0.0,0.0,0.0,0.0,0.0,0.0,0.0,0.0,0.0,0.0,0.0,0.0,0.0,0.0,0.0,0.0,0.0,0.0,0.0,0.0,0.0,0.0,0.0,0.0,0.0,0.0,0.0,0.0,0.0,0.0,0.0,0.0,0.0,0.0,0.0,0.0,0.0,0.0,0.0,0.0,0.0,0.0,0.0,0.0,0.0,0.0,0.0,0.0,0.0,0.0,0.0,0.0,0.0,0.0,0.0,0.0,0.0,0.0,0.0,0.0,0.0,0.0,0.0,0.0,0.0,0.0,0.0,0.0,0.0,0.0,0.0,0.0,0.0,0.0,0.0,0.0,0.0,0.0,0.0,0.0,0.0,0.0,0.0,0.0,0.0,0.0,0.0,0.0,0.0,0.0,0.0,0.0,0.0,0.0,0.0,0.0,0.0,0.0,0.0,0.0,0.0,0.0,0.0,0.0,0.0,0.0,1.9332,2.0249,2.1165,2.2119,2.1389,2.1454,0.0,0.0,0.0,0.0,0.0,0.0,0.0,0.0,0.0,0.0,0.0,0.0,0.0,0.0,0.0,0.0,0.0,0.0,0.0,0.0,0.0,0.0,0.0,0.0,0.0,0.0,0.0,0.0,0.0,0.0,0.0,0.0,0.0,0.0,0.0,0.0,0.0,0.0,0.0,0.0,0.0,0.0,0.0,0.0,0.0,0.0,0.0,0.0,0.0,0.0,0.0,0.0,0.0,0.0,0.0,0.0,0.0,0.0,0.0,0.0,0.0,0.0,0.0,0.0,0.0,0.0,0.0,0.0,0.0,0.0,0.0,0.0,0.0,0.0,0.0,0.0,0.0,0.0,0.0,0.0,0.0,0.0,0.0,0.0,0.0,0.0,0.0,0.0,0.0,0.0,0.0,0.0,0.0,0.0,0.0,0.0,0.0,0.0,0.0,0.0,0.0,0.0,0.0,0.0,0.0,0.0,0.0,0.0,0.0,1.8912,0.0,2.1435,2.1393,2.1286,2.1304,0.0,0.0,0.0,0.0,0.0,0.0,0.0,0.0,0.0,0.0,0.0,0.0,0.0,0.0,0.0,0.0,0.0,0.0,0.0,0.0,0.0,0.0,0.0,0.0,0.0,0.0,0.0,0.0,0.0,0.0,0.0,0.0,0.0,0.0,0.0,0.0,0.0,0.0,0.0,0.0,0.0,0.0,0.0,0.0,0.0,0.0,0.0,0.0,0.0,0.0,0.0,0.0,0.0,0.0,0.0,0.0,0.0,0.0,0.0,0.0,0.0,0.0,0.0,0.0,0.0,0.0,0.0,0.0,0.0,0.0,0.0,0.0,0.0,0.0,0.0,0.0,0.0,0.0,0.0,0.0,0.0,0.0,0.0,0.0,0.0,0.0,0.0,0.0,0.0,0.0,0.0,0.0,0.0,0.0,0.0,0.0,0.0,0.0,0.0,0.0,0.0,0.0,0.0,0.0,0.0,0.0,0.0,0.0,1.8631,2.0835,2.1444,2.1911,2.2183,2.1004,2.0337,0.0,0.0,0.0,0.0,0.0,0.0,0.0,0.0,0.0,0.0,0.0,0.0,0.0,0.0,0.0,0.0,0.0,0.0,0.0,0.0,0.0,0.0,0.0,0.0,0.0,0.0,0.0,0.0,0.0,0.0,0.0,0.0,0.0,0.0,0.0,0.0,0.0,0.0,0.0,0.0,0.0,0.0,0.0,0.0,0.0,0.0,0.0,0.0,0.0,0.0,0.0,0.0,0.0,0.0,0.0,0.0,0.0,0.0,0.0,0.0,0.0,0.0,0.0,0.0,0.0,0.0,0.0,0.0,0.0,0.0,0.0,0.0,0.0,0.0,0.0,0.0,0.0,0.0,0.0,0.0,0.0,0.0,0.0,0.0,0.0,0.0,0.0,0.0,0.0,0.0,0.0,0.0,0.0,0.0,0.0,0.0,0.0,0.0,0.0,0.0,0.0,0.0,0.0,0.0,0.0,0.0,0.0,0.0,0.0,1.968,2.045,2.199,2.4176,2.132,2.0961,0.0,0.0,0.0,0.0,0.0,0.0,0.0,0.0,0.0,0.0,0.0,0.0,0.0,0.0,0.0,0.0,0.0,0.0,0.0,0.0,0.0,0.0,0.0,0.0,0.0,0.0,0.0,0.0,0.0,0.0,0.0,0.0,0.0,0.0,0.0,0.0,0.0,0.0,0.0,0.0,0.0,0.0,0.0,0.0,0.0,0.0,0.0,0.0,0.0,0.0,0.0,0.0,0.0,0.0,0.0,0.0,0.0,0.0,0.0,0.0,0.0,0.0,0.0,0.0,0.0,0.0,0.0,0.0,0.0,0.0,0.0,0.0,0.0,0.0,0.0,0.0,0.0,0.0,0.0,0.0,0.0,0.0,0.0,0.0,0.0,0.0,0.0,0.0,0.0,0.0,0.0,0.0,0.0,0.0,0.0,0.0,0.0,0.0,0.0,0.0,0.0,0.0,0.0,0.0,0.0,0.0,0.0,0.0,0.0,2.0976,2.1616,2.2771,2.4515,2.1963,2.1475,2.3293,0.0,0.0,0.0,0.0,0.0,0.0,0.0,0.0,0.0,0.0,0.0,0.0,0.0,0.0,0.0,0.0,0.0,0.0,0.0,0.0,0.0,0.0,0.0,0.0,0.0,0.0,0.0,0.0,0.0,0.0,0.0,0.0,0.0,0.0,0.0,0.0,0.0,0.0,0.0,0.0,0.0,0.0,0.0,0.0,0.0,0.0,0.0,0.0,0.0,0.0,0.0,0.0,0.0,0.0,0.0,0.0,0.0,0.0,0.0,0.0,0.0,0.0,0.0,0.0,0.0,0.0,0.0,0.0,0.0,0.0,0.0,0.0,0.0,0.0,0.0,0.0,0.0,0.0,0.0,0.0,0.0,0.0,0.0,0.0,0.0,0.0,0.0,0.0,0.0,0.0,0.0,0.0,0.0,0.0,0.0,0.0,0.0,0.0,0.0,0.0,0.0,0.0,0.0,0.0,0.0,0.0,0.0,0.0,2.412,2.4602,2.4382,2.3478,2.288,2.1947,0.0,0.0,0.0,0.0,0.0,0.0,0.0,0.0,0.0,0.0,0.0,0.0,0.0,0.0,0.0,0.0,0.0,0.0,0.0,0.0,0.0,0.0,0.0,0.0,0.0,0.0,0.0,0.0,0.0,0.0,0.0,0.0,0.0,0.0,0.0,0.0,0.0,0.0,0.0,0.0,0.0,0.0,0.0,0.0,0.0,0.0,0.0,0.0,0.0,0.0,0.0,0.0,0.0,0.0,0.0,0.0,0.0,0.0,0.0,0.0,0.0,0.0,0.0,0.0,0.0,0.0,0.0,0.0,0.0,0.0,0.0,0.0,0.0,0.0,0.0,0.0,0.0,0.0,0.0,0.0,0.0,0.0,0.0,0.0,0.0,0.0,0.0,0.0,0.0,0.0,0.0,0.0,0.0,0.0,0.0,0.0,0.0,0.0,0.0,0.0,0.0,0.0,0.0,0.0,0.0,0.0,0.0,0.0,0.0,2.4741,2.6624,2.7343,2.6729,2.3973,2.2709,0.0,0.0,0.0,0.0,0.0,0.0,0.0,0.0,0.0,0.0,0.0,0.0,0.0,0.0,0.0,0.0,0.0,0.0,0.0,0.0,0.0,0.0,0.0,0.0,0.0,0.0,0.0,0.0,0.0,0.0,0.0,0.0,0.0,0.0,0.0,0.0,0.0,0.0,0.0,0.0,0.0,0.0,0.0,0.0,0.0,0.0,0.0,0.0,0.0,0.0,0.0,0.0,0.0,0.0,0.0,0.0,0.0,0.0,0.0,0.0,0.0,0.0,0.0,0.0,0.0,0.0,0.0,0.0,0.0,0.0,0.0,0.0,0.0,0.0,0.0,0.0,0.0,0.0,0.0,0.0,0.0,0.0,0.0,0.0,0.0,0.0,0.0,0.0,0.0,0.0,0.0,0.0,0.0,0.0,0.0,0.0,0.0,0.0,0.0,0.0,0.0,0.0,0.0,0.0,0.0,0.0,0.0,0.0,2.4273,2.616,2.8263,2.9098,2.8562,2.5756,2.4115,0.0,0.0,0.0,0.0,0.0,0.0,0.0,0.0,0.0,0.0,0.0,0.0,0.0,0.0,0.0,0.0,0.0,0.0,0.0,0.0,0.0,0.0,0.0,0.0,0.0,0.0,0.0,0.0,0.0,0.0,0.0,0.0,0.0,0.0,0.0,0.0,0.0,0.0,0.0,0.0,0.0,0.0,0.0,0.0,0.0,0.0,0.0,0.0,0.0,0.0,0.0,0.0,0.0,0.0,0.0,0.0,0.0,0.0,0.0,0.0,0.0,0.0,0.0,0.0,0.0,0.0,0.0,0.0,0.0,0.0,0.0,0.0,0.0,0.0,0.0,0.0,0.0,0.0,0.0,0.0,0.0,0.0,0.0,0.0,0.0,0.0,0.0,0.0,0.0,0.0,0.0,0.0,0.0,0.0,0.0,0.0,0.0,0.0,0.0,0.0,0.0,0.0,0.0,0.0,0.0,0.0,0.0,0.0,2.5428,2.7749,2.9451,3.0048,2.946,2.7726,2.5625,0.0,0.0,0.0,0.0,0.0,0.0,0.0,0.0,0.0,0.0,0.0,0.0,0.0,0.0,0.0,0.0,0.0,0.0,0.0,0.0,0.0,0.0,0.0,0.0,0.0,0.0,0.0,0.0,0.0,0.0,0.0,0.0,0.0,0.0,0.0,0.0,0.0,0.0,0.0,0.0,0.0,0.0,0.0,0.0,0.0,0.0,0.0,0.0,0.0,0.0,0.0,0.0,0.0,0.0,0.0,0.0,0.0,0.0,0.0,0.0,0.0,0.0,0.0,0.0,0.0,0.0,0.0,0.0,0.0,0.0,0.0,0.0,0.0,0.0,0.0,0.0,0.0,0.0,0.0,0.0,0.0,0.0,0.0,0.0,0.0,0.0,0.0,0.0,0.0,0.0,0.0,0.0,0.0,0.0,0.0,0.0,0.0,0.0,0.0,0.0,0.0,0.0,0.0,0.0,0.0,0.0,0.0,0.0,2.6245,2.7777,2.9527,3.074,3.1303,2.8073,2.5447,0.0,0.0,0.0,0.0,0.0,0.0,0.0,0.0,0.0,0.0,0.0,0.0,0.0,0.0,0.0,0.0,0.0,0.0,0.0,0.0,0.0,0.0,0.0,0.0,0.0,0.0,0.0,0.0,0.0,0.0,0.0,0.0,0.0,0.0,0.0,0.0,0.0,0.0,0.0,0.0,0.0,0.0,0.0,0.0,0.0,0.0,0.0,0.0,1.161,0.0,0.0,0.0,0.0,0.0,0.0,0.0,0.0,0.0,0.0,0.0,0.0,0.0,0.0,0.0,0.0,0.0,0.0,0.0,0.0,0.0,0.0,0.0,0.0,0.0,0.0,0.0,0.0,0.0,0.0,0.0,0.0,0.0,0.0,0.0,0.0,0.0,0.0,0.0,0.0,0.0,0.0,0.0,0.0,0.0,0.0,0.0,0.0,0.0,0.0,0.0,0.0,0.0,0.0,0.0,0.0,0.0,0.0,0.0,2.6497,2.8577,2.9588,3.0284,3.0554,2.801,2.6001,0.0,0.0,0.0,0.0,0.0,0.0,0.0,0.0,0.0,0.0,0.0,0.0,0.0,0.0,0.0,0.0,0.0,0.0,0.0,0.0,0.0,0.0,0.0,0.0,0.0,0.0,0.0,0.0,0.0,0.0,0.0,0.0,0.0,0.0,0.0,0.0,0.0,0.0,0.0,0.0,0.0,0.0,0.0,0.0,0.0,0.0,0.0,0.0,0.0,0.0,0.0,0.0,0.0,0.0,0.0,0.0,0.0,0.0,0.0,0.0,0.0,0.0,0.0,0.0,0.0,0.0,0.0,0.0,0.0,0.0,0.0,0.0,0.0,0.0,0.0,0.0,0.0,0.0,0.0,0.0,0.0,0.0,0.0,0.0,0.0,0.0,0.0,0.0,0.0,0.0,0.0,0.0,0.0,0.0,0.0,0.0,0.0,0.0,0.0,0.0,0.0,0.0,0.0,0.0,0.0,0.0,0.0,2.5152,2.6722,2.9588,2.9806,2.97,2.9405,2.7813,2.6639,2.5955,0.0,0.0,0.0,0.0,0.0,0.0,0.0,0.0,0.0,0.0,0.0,0.0,0.0,0.0,0.0,0.0,0.0,0.0,0.0,0.0,0.0,0.0,0.0,0.0,0.0,0.0,0.0,0.0,0.0,0.0,0.0,0.0,0.0,0.0,0.0,0.0,0.0,0.0,1.1882,1.1727,0.0,0.0,0.0,0.0,0.0,0.0,0.0,0.0,1.1824,0.0,0.0,0.0,0.0,0.0,0.0,0.0,0.0,0.0,0.0,0.0,0.0,0.0,0.0,0.0,0.0,0.0,0.0,0.0,0.0,0.0,0.0,0.0,0.0,0.0,0.0,0.0,0.0,0.0,0.0,0.0,0.0,0.0,0.0,0.0,0.0,0.0,0.0,0.0,0.0,0.0,0.0,0.0,0.0,0.0,0.0,0.0,0.0,0.0,0.0,0.0,0.0,0.0,0.0,0.0,0.0,2.6384,2.6483,2.7762,3.0291,3.0742,3.0618,2.9884,2.7862,2.6305,2.5336,0.0,0.0,0.0,0.0,0.0,0.0,0.0,0.0,0.0,0.0,0.0,0.0,0.0,0.0,0.0,0.0,0.0,0.0,0.0,0.0,0.0,0.0,0.0,0.0,0.0,0.0,0.0,0.0,0.0,0.0,0.0,0.0,0.0,0.0,0.0,0.0,0.0,0.0,0.0,1.2547,1.285,0.0,0.0,0.0,0.0,0.0,0.0,0.0,0.0,1.2179,0.0,0.0,0.0,0.0,0.0,0.0,0.0,0.0,0.0,0.0,0.0,0.0,0.0,0.0,0.0,0.0,0.0,0.0,0.0,0.0,0.0,0.0,0.0,0.0,0.0,0.0,0.0,0.0,0.0,0.0,0.0,0.0,0.0,0.0,0.0,0.0,0.0,0.0,0.0,0.0,0.0,0.0,0.0,0.0,0.0,0.0,0.0,0.0,0.0,0.0,0.0,0.0,0.0,0.0,0.0,2.5882,2.6243,2.7692,3.0389,3.0321,2.9826,2.8958,2.6783,2.5146,0.0,0.0,0.0,0.0,0.0,0.0,0.0,0.0,0.0,0.0,0.0,0.0,0.0,0.0,0.0,0.0,0.0,0.0,0.0,0.0,0.0,0.0,0.0,0.0,0.0,0.0,0.0,0.0,0.0,0.0,0.0,0.0,0.0,0.0,0.0,0.0,0.0,0.0,0.0,0.0,1.2992,1.3334,1.2905,0.0,0.0,0.0,0.0,0.0,0.0,1.2832,1.2711,0.0,0.0,0.0,0.0,0.0,0.0,0.0,0.0,0.0,0.0,0.0,0.0,0.0,0.0,0.0,0.0,0.0,0.0,0.0,0.0,0.0,0.0,0.0,0.0,0.0,0.0,0.0,0.0,0.0,0.0,0.0,0.0,0.0,0.0,0.0,0.0,0.0,0.0,0.0,0.0,0.0,0.0,0.0,0.0,0.0,0.0,0.0,0.0,0.0,0.0,0.0,0.0,0.0,0.0,0.0,2.5243,2.5832,2.7552,3.0432,2.9843,2.9028,2.8125,2.5792,2.413,0.0,0.0,0.0,0.0,0.0,0.0,0.0,0.0,0.0,0.0,0.0,0.0,0.0,0.0,0.0,0.0,0.0,0.0,0.0,0.0,0.0,0.0,0.0,0.0,0.0,0.0,0.0,0.0,0.0,0.0,0.0,0.0,0.0,0.0,0.0,0.0,0.0,0.0,0.0,0.0,0.0,1.4112,1.3988,1.4099,0.0,0.0,0.0,0.0,1.358,1.4082,0.0,0.0,0.0,0.0,0.0,0.0,0.0,0.0,0.0,0.0,0.0,0.0,0.0,0.0,0.0,0.0,0.0,0.0,0.0,0.0,0.0,0.0,0.0,0.0,0.0,0.0,0.0,0.0,0.0,0.0,0.0,0.0,0.0,0.0,0.0,0.0,0.0,0.0,0.0,0.0,0.0,0.0,0.0,0.0,0.0,0.0,0.0,0.0,0.0,0.0,0.0,0.0,0.0,0.0,0.0,0.0,2.5079,2.6173,2.8136,3.0922,3.0352,2.9507,2.8614,2.5834,2.401,0.0,0.0,0.0,0.0,0.0,0.0,0.0,0.0,0.0,0.0,0.0,0.0,0.0,0.0,0.0,0.0,0.0,0.0,0.0,0.0,0.0,0.0,0.0,0.0,0.0,0.0,0.0,0.0,0.0,0.0,0.0,0.0,0.0,0.0,0.0,0.0,0.0,0.0,0.0,0.0,0.0,1.6118,1.5015,1.5838,1.5992,0.0,0.0,1.6017,1.5397,1.712,0.0,0.0,0.0,0.0,0.0,0.0,0.0,0.0,0.0,0.0,0.0,0.0,0.0,0.0,0.0,0.0,0.0,0.0,0.0,0.0,0.0,0.0,0.0,0.0,0.0,0.0,0.0,0.0,0.0,0.0,0.0,0.0,0.0,0.0,0.0,0.0,0.0,0.0,0.0,0.0,0.0,0.0,0.0,0.0,0.0,0.0,0.0,0.0,0.0,0.0,0.0,0.0,0.0,0.0,0.0,2.2238,2.396,2.5364,2.7272,2.9504,2.9377,2.8712,2.7585,2.4698,2.3005,0.0,0.0,0.0,0.0,0.0,0.0,0.0,0.0,0.0,0.0,0.0,0.0,0.0,0.0,0.0,0.0,0.0,0.0,0.0,0.0,0.0,0.0,0.0,0.0,0.0,0.0,0.0,0.0,0.0,0.0,0.0,0.0,0.0,0.0,0.0,0.0,0.0,0.0,0.0,0.0,0.0,0.0,1.662,1.7165,0.0,0.0,0.0,1.7431,1.7386,0.0,0.0,0.0,0.0,0.0,0.0,0.0,0.0,0.0,0.0,0.0,0.0,0.0,0.0,0.0,0.0,0.0,0.0,0.0,0.0,0.0,0.0,0.0,0.0,0.0,0.0,0.0,0.0,0.0,0.0,0.0,0.0,0.0,0.0,0.0,0.0,0.0,0.0,0.0,0.0,0.0,0.0,0.0,0.0,0.0,0.0,0.0,0.0,0.0,0.0,0.0,0.0,0.0,0.0,0.0,0.0,0.0,2.316,2.4912,2.6691,2.8509,2.8658,2.8121,2.6883,2.4059,0.0,0.0,0.0,0.0,0.0,0.0,0.0,0.0,0.0,0.0,0.0,0.0,0.0,0.0,0.0,0.0,0.0,0.0,0.0,0.0,0.0,0.0,0.0,0.0,0.0,0.0,0.0,0.0,0.0,0.0,0.0,0.0,0.0,0.0,0.0,0.0,0.0,0.0,0.0,0.0,0.0,0.0,1.7709,1.8111,1.8721,1.8967,0.0,0.0,1.9146,1.9121,1.9598,1.9382,0.0,0.0,0.0,0.0,0.0,0.0,0.0,0.0,0.0,0.0,0.0,0.0,0.0,0.0,0.0,0.0,0.0,0.0,0.0,0.0,0.0,0.0,0.0,0.0,0.0,0.0,0.0,0.0,0.0,0.0,0.0,0.0,0.0,0.0,0.0,0.0,0.0,0.0,0.0,0.0,0.0,0.0,0.0,0.0,0.0,0.0,0.0,0.0,0.0,0.0,0.0,0.0,0.0,0.0,0.0,2.3324,2.5366,2.7236,2.8954,2.883,2.8258,2.7325,2.4666,2.297,0.0,0.0,0.0,0.0,0.0,0.0,0.0,0.0,0.0,0.0,0.0,0.0,0.0,0.0,0.0,0.0,0.0,0.0,0.0,0.0,0.0,0.0,0.0,0.0,0.0,0.0,0.0,0.0,0.0,0.0,0.0,0.0,0.0,0.0,0.0,0.0,0.0,0.0,0.0,0.0,0.0,1.9404,1.9166,2.0742,2.1621,0.0,0.0,2.1876,2.0418,2.2631,2.3176,1.9139,0.0,0.0,0.0,0.0,0.0,0.0,0.0,0.0,0.0,0.0,0.0,0.0,0.0,0.0,0.0,0.0,0.0,0.0,0.0,0.0,0.0,0.0,0.0,0.0,0.0,0.0,0.0,0.0,0.0,0.0,0.0,0.0,0.0,0.0,0.0,0.0,0.0,0.0,0.0,0.0,0.0,0.0,0.0,0.0,0.0,0.0,0.0,0.0,0.0,0.0,0.0,0.0,0.0,2.1066,2.2607,2.4323,2.6067,2.7789,2.8286,2.8173,2.7426,2.4484,2.2766,0.0,0.0,0.0,0.0,0.0,0.0,0.0,0.0,0.0,0.0,0.0,0.0,0.0,0.0,0.0,0.0,0.0,0.0,0.0,0.0,0.0,0.0,0.0,0.0,0.0,0.0,0.0,0.0,1.3999,1.3975,1.3634,0.0,0.0,0.0,0.0,0.0,0.0,0.0,0.0,0.0,0.0,1.9821,2.107,2.2037,0.0,0.0,2.2662,2.2787,2.2127,2.2381,2.1953,1.9846,1.8861,0.0,0.0,0.0,0.0,0.0,0.0,0.0,0.0,0.0,0.0,0.0,0.0,0.0,0.0,0.0,0.0,0.0,0.0,0.0,0.0,0.0,0.0,0.0,0.0,0.0,0.0,0.0,0.0,0.0,0.0,0.0,0.0,0.0,0.0,0.0,0.0,0.0,0.0,0.0,0.0,0.0,0.0,0.0,0.0,0.0,0.0,0.0,0.0,0.0,0.0,0.0,0.0,2.0505,2.218,2.3832,2.5454,2.7082,2.7953,2.8071,2.7357,2.4712,2.3052,0.0,0.0,0.0,0.0,0.0,0.0,0.0,0.0,0.0,0.0,0.0,0.0,0.0,0.0,0.0,0.0,0.0,0.0,0.0,0.0,0.0,0.0,0.0,0.0,0.0,0.0,0.0,0.0,1.4057,1.4069,1.3858,0.0,0.0,0.0,0.0,0.0,0.0,0.0,0.0,0.0,0.0,2.0358,2.2115,2.2772,2.3178,2.3479,2.3445,2.3352,2.3317,2.2359,2.1241,2.007,0.0,0.0,0.0,0.0,0.0,0.0,0.0,0.0,0.0,0.0,0.0,0.0,0.0,0.0,0.0,0.0,0.0,0.0,0.0,0.0,0.0,0.0,0.0,0.0,0.0,0.0,0.0,0.0,0.0,0.0,1.9923,0.0,0.0,0.0,0.0,0.0,0.0,0.0,0.0,0.0,0.0,0.0,0.0,0.0,0.0,0.0,0.0,0.0,0.0,0.0,0.0,0.0,0.0,2.0962,2.218,2.4209,2.5874,2.7078,2.794,2.808,2.7396,2.5531,2.403,2.2943,0.0,0.0,0.0,0.0,0.0,0.0,0.0,0.0,0.0,0.0,0.0,0.0,0.0,0.0,0.0,0.0,0.0,0.0,0.0,0.0,0.0,0.0,0.0,0.0,0.0,0.0,1.3668,1.361,1.3868,0.0,0.0,0.0,0.0,0.0,0.0,0.0,0.0,0.0,0.0,1.8861,2.1113,2.1896,2.2829,2.3661,2.4332,2.4052,2.3773,2.3715,2.3105,2.1929,0.0,0.0,0.0,0.0,0.0,0.0,0.0,0.0,0.0,0.0,0.0,0.0,0.0,0.0,0.0,0.0,0.0,0.0,0.0,0.0,0.0,0.0,0.0,0.0,0.0,0.0,0.0,2.129,2.1015,0.0,0.0,0.0,0.0,0.0,0.0,0.0,0.0,0.0,0.0,0.0,2.2405,2.2047,0.0,0.0,0.0,0.0,0.0,0.0,0.0,0.0,0.0,0.0,0.0,0.0,2.0684,2.2552,2.3978,2.5652,2.75,2.8113,2.8088,2.7411,2.5637,2.3356,2.0628,0.0,0.0,0.0,0.0,0.0,0.0,0.0,0.0,0.0,0.0,0.0,0.0,0.0,0.0,0.0,0.0,0.0,0.0,0.0,0.0,0.0,0.0,0.0,0.0,0.0,1.4732,0.0,0.0,0.0,0.0,0.0,0.0,0.0,0.0,0.0,0.0,0.0,1.5972,1.7612,1.9414,2.0938,2.2003,2.2723,2.3358,0.0,0.0,0.0,0.0,0.0,0.0,0.0,0.0,0.0,0.0,0.0,0.0,0.0,0.0,2.0897,1.9019,1.8483,1.8154,1.764,0.0,0.0,0.0,0.0,0.0,0.0,0.0,0.0,0.0,0.0,0.0,0.0,0.0,0.0,0.0,0.0,2.1698,0.0,0.0,0.0,0.0,0.0,0.0,0.0,0.0,2.1889,2.1987,2.2312,2.194,2.1759,0.0,2.1778,2.1367,0.0,0.0,0.0,0.0,0.0,0.0,0.0,0.0,2.0898,2.2385,2.4012,2.5681,2.7319,2.8055,2.8088,2.7396,2.5372,2.2922,2.0105,1.8796,1.8239,0.0,0.0,0.0,0.0,0.0,0.0,0.0,0.0,0.0,0.0,0.0,0.0,0.0,0.0,0.0,0.0,0.0,0.0,0.0,0.0,0.0,0.0,0.0,1.5358,0.0,0.0,0.0,0.0,0.0,0.0,0.0,0.0,0.0,1.427,1.5077,1.6423,1.8703,1.9678,2.0608,2.1765,0.0,0.0,0.0,0.0,0.0,0.0,0.0,2.0742,2.0299,2.0852,2.1315,2.1171,2.1761,2.2241,2.2071,0.0,0.0,2.0344,1.9826,1.9535,1.9021,1.9163,1.9512,2.0085,2.0435,2.082,0.0,0.0,0.0,0.0,0.0,0.0,0.0,0.0,2.3647,2.3457,0.0,2.2464,0.0,0.0,0.0,0.0,0.0,2.3293,0.0,0.0,2.2859,2.2528,2.1218,2.2197,2.2274,2.1541,2.1678,2.1307,2.0507,2.083,0.0,0.0,0.0,0.0,0.0,0.0,2.1627,2.1808,2.434,2.603,2.6675,2.7801,2.8057,2.7319,2.4836,2.2798,2.1377,2.0049,1.9197,1.894,1.8615,0.0,0.0,0.0,0.0,0.0,0.0,0.0,0.0,0.0,0.0,0.0,0.0,0.0,0.0,0.0,0.0,0.0,0.0,0.0,0.0,1.5051,0.0,0.0,0.0,0.0,0.0,0.0,0.0,0.0,0.0,0.0,1.5041,1.5861,1.7175,1.94,0.0,0.0,0.0,0.0,2.2197,2.2221,2.265,2.2907,2.2907,2.2348,2.1544,2.0587,0.0,0.0,2.2006,2.2386,2.2604,2.2078,2.2456,2.2628,2.224,2.1923,2.1665,2.1227,2.0782,2.0734,2.1338,2.1069,2.073,2.5435,0.0,0.0,0.0,0.0,2.5424,2.5332,2.4881,2.5581,2.5364,2.4529,2.444,0.0,0.0,0.0,0.0,0.0,0.0,2.4262,2.3905,2.476,2.4557,2.3508,2.4143,2.4209,2.3762,2.3656,2.3348,2.2865,2.2784,2.2,2.0519,0.0,0.0,0.0,0.0,2.2222,2.3163,2.5247,2.6665,2.7318,2.8122,2.7968,2.6777,2.42,2.2564,2.2104,2.0883,2.0056,1.97,1.9181,0.0,0.0,0.0,0.0,0.0,0.0,0.0,0.0,0.0,0.0,0.0,0.0,0.0,0.0,0.0,0.0,0.0,0.0,0.0,1.6031,1.6725,1.6799,0.0,0.0,0.0,0.0,0.0,0.0,0.0,0.0,0.0,1.7488,1.7589,1.8478,0.0,0.0,2.1608,2.1933,2.2101,2.2197,2.2197,0.0,0.0,0.0,2.1698,2.1404,2.0974,2.1905,2.2795,2.3132,2.3513,2.3718,2.3546,2.3661,2.3728,2.3577,2.264,2.1917,2.1743,2.1858,2.2352,2.3177,2.344,2.3644,2.8045,2.7193,2.668,2.6531,2.6638,2.7109,2.7046,2.6626,2.7025,2.6885,2.6322,2.5909,2.554,2.5208,2.5487,0.0,0.0,0.0,2.5481,2.551,2.5811,2.5612,2.5054,2.5156,2.5125,2.491,2.466,2.4432,2.4145,2.3819,2.3106,2.1993,0.0,0.0,2.1651,2.2584,2.3302,2.3915,2.5894,2.7147,2.7589,2.7713,2.7349,2.6452,2.4212,2.2963,2.2814,2.175,2.1026,2.0731,2.0222,1.9723,0.0,0.0,0.0,0.0,0.0,0.0,0.0,0.0,0.0,0.0,0.0,1.4323,0.0,0.0,0.0,0.0,1.5405,1.5937,1.6938,1.7071,0.0,0.0,0.0,0.0,0.0,0.0,0.0,1.5827,1.6564,1.7835,1.9636,1.9703,2.0299,2.228,2.2267,2.2159,2.2387,0.0,2.2558,2.2816,2.2784,2.2784,2.3026,2.3063,2.2985,2.2708,2.3126,2.3627,2.3956,2.4149,2.412,2.3935,2.4062,2.4131,2.3936,2.3247,2.2834,2.2823,2.3064,2.3603,2.459,2.5027,2.544,3.038,3.0401,2.9009,2.8368,2.8303,2.8366,2.8358,2.8311,2.8318,2.8248,2.8039,2.7203,2.7156,2.7689,2.7116,0.0,2.7133,2.6677,2.6568,2.6709,2.6383,2.6104,2.592,2.5636,2.5485,2.5401,2.5134,2.4895,2.4694,2.4363,2.4225,2.4252,2.3865,2.3426,2.3045,2.4165,2.463,2.4301,2.6374,2.7504,2.7596,2.6914,2.6466,2.6346,2.4722,2.3739,2.3538,2.2629,2.2048,2.1859,2.1524,2.1078,2.0443,0.0,0.0,0.0,0.0,0.0,0.0,0.0,0.0,0.0,0.0,0.0,0.0,0.0,0.0,0.0,1.7105,0.0,1.7622,1.7017,0.0,0.0,0.0,1.7371,1.7759,1.8154,1.8173,1.7617,0.0,0.0,2.1475,0.0,2.2485,2.328,2.2681,2.2373,2.3038,2.3235,2.3399,2.409,2.4519,2.5027,2.5379,2.5402,2.5167,2.481,2.4684,2.4337,2.4271,2.4149,2.3856,2.343,2.3752,2.3925,2.3419,2.3672,2.4074,2.3948,2.4074,2.4453,2.5325,2.5543,2.5819,3.168,3.2325,3.2008,3.1172,3.0067,3.0716,3.0633,3.0084,3.0693,3.0564,2.992,3.0312,2.9862,2.8699,2.7908,2.7867,2.8341,2.8045,2.7858,2.7834,2.7986,2.7695,2.7054,2.7241,2.7275,2.7099,2.6786,2.649,2.6266,2.6571,2.6407,2.5837,2.6458,2.5952,2.4324,2.4611,2.5047,2.5545,2.7067,2.7849,2.7795,2.7152,2.6498,2.5882,2.4769,2.4088,2.3897,2.3454,2.2911,2.2304,2.2076,2.1535,2.0599,2.0559,0.0,0.0,0.0,0.0,0.0,0.0,0.0,0.0,0.0,1.4698,1.4013,0.0,1.5724,0.0,1.7376,1.8849,1.9469,2.0252,0.0,0.0,2.0372,2.0429,1.9605,2.025,2.0543,1.9883,2.0855,2.1818,2.2451,2.367,2.484,2.5766,2.5387,2.5283,2.6034,2.6171,2.61,2.6005,2.6106,2.6193,2.6401,2.5813,2.537,2.4823,2.4204,2.3663,2.3408,2.3179,2.3041,2.288,2.2949,2.3018,2.288,2.296,2.3087,2.3133,2.3649,2.4372,2.4969,2.5107,2.5302,3.2579,3.3095,3.3508,3.2459,3.0603,3.1946,3.2036,3.1281,3.1765,3.1468,3.069,3.15,3.1523,3.096,3.0405,3.0354,3.0654,3.0346,3.0117,2.9944,2.9945,2.9556,2.8871,2.9012,2.895,2.8675,2.8424,2.8198,2.7998,2.8182,2.7935,2.731,2.7794,2.7419,2.6224,2.6061,2.6237,2.6717,2.771,2.8169,2.8059,2.7365,2.6506,2.549,2.4317,2.3527,2.3212,2.2695,2.2269,2.1982,2.1852,2.1469,2.0787,2.0454,1.9708,0.0,0.0,0.0,0.0,0.0,0.0,0.0,0.0,0.0,0.0,0.0,1.7012,0.0,1.9264,2.064,2.1404,2.1665,2.1756,2.1702,2.1989,2.2048,2.174,2.2445,2.2803,2.2312,2.3259,2.4137,2.4637,2.5702,2.6941,2.8164,2.8383,2.8251,2.7935,2.7857,2.7905,2.8102,2.8323,2.8627,2.9074,2.8144,2.7175,2.6583,2.5229,2.4073,2.3658,2.3096,2.265,2.2409,2.2524,2.2627,2.2409,2.2603,2.2798,2.2902,2.3503,2.415,2.4524,2.4763,2.5073,3.3325,3.3504,3.4255,3.3243,3.1225,3.2916,3.2811,3.1501,3.1768,3.167,3.131,3.1957,3.2668,3.3412,3.324,3.3075,3.2996,3.2679,3.2417,3.2128,3.1723,3.1254,3.0774,3.0552,3.0269,2.9922,2.9793,2.9678,2.9539,2.9448,2.9207,2.8838,2.8817,2.8688,2.8437,2.8076,2.7811,2.7665,2.8198,2.8366,2.8193,2.7277,2.6199,2.4976,2.3521,2.2523,2.2106,2.1364,2.106,2.1347,2.1286,2.1245,2.1187,2.036,1.9668,0.0,1.8019,0.0,0.0,0.0,0.0,0.0,0.0,0.0,0.0,1.8017,1.901,2.1048,2.1774,2.2478,2.3275,2.2502,2.2394,2.352,2.3262,2.3314,2.4052,2.4659,2.497,2.4827,2.5638,2.6502,2.7237,2.7956,2.8988,3.0243,3.1036,3.0945,2.9727,2.9418,2.9681,3.0408,3.0732,3.1003,3.1551,3.0675,2.9391,2.8616,2.6518,2.486,2.4084,2.3139,2.2329,2.1973,2.2145,2.2316,2.1893,2.2301,2.2689,2.2678,2.322,2.3793,2.4114,2.4501,2.4995,3.4622,3.5218,3.5459,3.5238,3.4828,3.5177,3.2792,2.8775,3.0185,3.1903,3.3689,3.3918,3.408,3.4135,3.3535,3.321,3.3091,3.2904,3.2682,3.2408,3.1909,3.1481,3.1094,3.0768,3.0439,3.008,2.9904,3.0022,3.0294,3.0818,3.0864,3.0582,3.1532,3.1645,3.0935,0.0,0.0,0.0,2.8231,2.8138,2.7619,2.5953,2.464,2.3738,2.2503,0.0,2.1553,2.1278,2.1161,2.1216,2.1009,0.0,0.0,0.0,0.0,0.0,0.0,0.0,0.0,0.0,0.0,0.0,2.1106,2.0695,2.0054,2.0478,2.1499,2.3125,2.3386,2.3778,2.465,2.5068,2.5364,2.5609,2.5988,2.6276,2.6458,2.6663,2.7016,2.7559,2.7999,2.8536,2.9335,3.0368,3.1218,3.1779,3.2525,3.2914,3.2741,3.2326,3.2335,3.2635,3.2326,3.2026,3.169,3.066,2.9329,2.789,2.6051,2.4349,2.3266,2.2215,2.1523,2.1362,2.142,2.1553,2.151,2.1632,2.1824,2.1896,2.2371,2.2915,2.3642,2.4209,2.4555,3.5434,0.0,3.5827,3.5337,0.0,3.4539,3.2558,2.9431,3.1595,3.3268,3.4481,3.4496,3.4726,3.5045,3.4192,3.3742,3.3656,3.3005,3.2847,3.3071,3.2957,3.2865,3.2778,3.291,3.2668,3.2144,3.2056,3.2102,3.22,3.2537,3.2544,3.23,3.2868,3.2857,3.2328,3.1727,3.0485,2.8606,2.8606,2.8404,2.8009,2.7051,2.5993,2.4916,0.0,0.0,0.0,0.0,0.0,0.0,0.0,0.0,0.0,0.0,0.0,2.3131,2.2981,2.2934,2.315,2.3442,2.3875,2.4383,2.4921,2.4302,2.2211,2.2918,2.3928,2.5001,2.516,2.5553,2.6424,2.6856,2.715,2.7293,2.7836,2.8253,2.8283,2.8652,2.9073,2.9439,2.9847,3.0348,3.1109,3.1893,3.2609,3.3095,3.3593,3.3977,3.4009,3.3585,3.3277,3.3563,3.3381,3.3066,3.2575,3.0974,2.9502,2.8179,2.5887,2.3944,2.2991,2.194,2.1201,2.1201,2.1253,2.1336,2.1388,2.1526,2.1706,2.1828,2.2289,2.2826,2.3473,2.3898,2.4128,3.5925,3.5925,3.5925,3.5052,3.3699,3.3772,3.2966,3.1776,0.0,0.0,0.0,3.4687,3.513,3.5743,3.4934,3.457,3.4493,3.3505,3.3381,3.3997,3.4266,3.4418,3.4477,3.5024,3.4925,3.4218,3.4198,3.415,3.4088,3.4085,3.4035,3.3968,3.3859,3.3609,3.3254,3.2968,3.1775,2.9824,2.935,2.9048,2.887,2.8349,2.7532,2.6334,2.5453,2.444,2.3319,2.2802,2.2336,2.1939,2.1895,2.227,2.3082,2.3094,2.3204,2.3438,2.3453,2.3847,2.471,2.5281,2.6123,2.7401,2.8097,2.7294,2.456,2.5358,2.6216,2.6707,2.6889,2.7285,2.8046,2.8278,2.8452,2.8702,2.9323,2.971,2.9766,3.0351,3.0804,3.1021,3.1426,3.199,3.2663,3.3137,3.3567,3.4088,3.4341,3.4489,3.4349,3.3908,3.3668,3.3822,3.3704,3.3646,3.3166,3.1387,2.9664,2.8565,2.5778,2.3522,2.2877,2.1977,2.1288,2.1265,2.1336,2.1466,2.1611,2.1871,2.2072,2.2186,2.2703,2.3247,2.3518,2.3696,2.3933,3.5987,3.5987,3.5987,3.5829,3.5594,3.5622,3.5468,3.5154,3.4059,3.3971,3.4644,3.5376,3.573,3.5795,3.5647,3.5589,3.5563,3.5293,3.5133,0.0,3.541,3.52,3.4608,3.5073,3.4925,3.4256,3.4216,3.4446,3.4813,3.4778,3.4951,3.5255,3.5245,3.4751,3.3934,3.3709,3.3158,3.2204,3.0792,3.0045,2.9847,2.7701,2.6334,2.588,2.4828,2.4,2.3566,2.3492,2.3331,2.3164,2.2959,2.3718,2.5455,2.5409,2.609,2.7712,2.7867,2.7976,2.8061,2.8224,2.8341,2.8544,2.87,2.8441,2.7813,2.7874,2.8045,2.8121,2.8242,2.8377,2.8621,2.9262,2.9767,2.995,3.055,3.0944,3.0968,3.1389,3.1927,3.2488,3.2789,3.325,3.3958,3.43,3.4414,3.4586,3.457,3.4497,3.4159,3.43,3.43,3.3949,3.3543,3.3029,3.2317,3.0739,2.9059,2.7743,2.555,2.3511,2.2682,2.184,2.1316,2.1368,2.1423,2.1713,2.2288,2.2526,2.2842,2.3263,2.3565,2.3739,2.3948,2.4104,2.4295,3.6015,3.6015,3.6015,3.6016,3.6015,3.6014,3.6012,3.5935,3.5176,3.5015,3.537,3.5752,3.5858,3.5767,3.5278,3.5049,3.5013,3.4293,3.4428,3.5249,3.5504,3.5696,3.583,3.6282,3.6091,3.5351,3.5348,3.5476,3.5704,3.5658,3.5784,3.598,3.5954,3.5691,3.5215,3.5053,3.4768,3.4264,3.2527,3.1567,3.1413,2.9756,2.8722,2.8449,2.7351,2.6481,2.5905,2.5816,2.5536,2.5045,2.4941,2.5537,2.6909,2.6956,2.7504,2.885,2.8951,2.8967,2.8967,2.9037,2.9068,2.9084,2.9501,2.9738,2.9604,2.9014,2.8895,2.9302,2.9421,2.9658,3.0116,3.0608,3.0919,3.1055,3.1791,3.2313,3.2434,3.2934,3.3437,3.3819,3.4013,3.4288,3.4682,3.478,3.4804,3.4787,3.4594,3.4209,3.3848,3.3848,3.3873,3.3607,3.3177,3.2614,3.1877,3.0115,2.8482,2.7262,2.5031,2.3403,2.2567,2.1882,2.1506,2.1655,2.1863,2.2209,2.2721,2.311,2.3505,2.3772,2.3992,2.4177,2.45,2.4816,2.4884,3.595,3.595,3.5956,3.5957,3.5958,3.5977,3.5974,3.5973,3.5978,3.5974,3.5971,3.5935,3.5884,3.5766,3.5049,3.4722,3.4603,3.3943,3.4216,3.5226,3.5894,3.6353,3.6596,3.72,3.7095,3.6367,3.6284,3.6284,3.6284,3.628,3.6276,3.6237,3.6237,3.6191,3.6118,3.5997,3.5861,3.5532,3.4119,3.32,3.291,3.1966,3.1283,3.08,2.9959,2.9095,2.8243,2.8059,2.7695,2.7069,2.6984,2.7361,2.8065,2.8135,2.8455,2.9104,2.9183,2.9206,2.9222,2.9441,2.9612,2.9651,3.0398,3.0869,3.0883,3.0154,2.9879,3.045,3.0561,3.0847,3.143,3.1847,3.2079,3.2238,3.2997,3.3524,3.3725,3.4209,3.4618,3.4739,3.4851,3.4883,3.4899,3.4851,3.4763,3.4618,3.4275,3.3873,3.3633,3.3346,3.3145,3.3011,3.2726,3.2244,3.1563,2.987,2.8251,2.7081,2.4992,2.3548,2.2861,2.2118,2.1859,2.2135,2.252,2.2966,2.3215,2.3739,2.4265,2.4493,2.4679,2.482,2.5178,2.5336,2.5335,3.582,3.582,3.5827,3.5824,3.583,3.5883,3.5904,3.5908,3.5908,3.5887,3.5899,3.5957,3.5987,3.5965,3.5741,3.5615,3.5674,3.6307,3.6142,3.5663,3.7417,3.7422,3.6064,3.7034,3.7135,3.6388,3.6284,3.6284,3.6301,3.6233,3.6165,3.6041,3.6019,3.5975,3.5878,3.5839,3.5751,3.5616,3.5436,3.4858,3.3889,3.3006,3.2133,3.1276,3.092,3.03,2.9432,2.9232,2.9064,2.8879,2.8824,2.8925,2.9109,2.9171,2.9241,2.9434,2.9489,2.945,2.9537,3.0103,3.0548,3.0688,3.1291,3.1796,3.2006,3.1941,3.1792,3.1757,3.1686,3.1837,3.2136,3.2798,3.3245,3.3404,3.405,3.4568,3.4543,3.4754,3.4859,3.4859,3.4859,3.4899,3.4851,3.4667,3.4448,3.4201,3.3848,3.3529,3.3346,3.3011,3.2656,3.2523,3.2247,3.1796,3.1086,2.9869,2.8485,2.7239,2.5671,2.433,2.3421,2.2825,2.2461,2.2994,2.3163,2.3595,2.4335,2.4992,2.5105,2.535,2.5566,2.5761,2.5789,2.5627,2.5347,3.5747,3.5728,3.5747,3.5728,3.5752,3.5776,3.5791,3.5838,3.5797,3.583,3.5885,3.5933,3.595,3.5988,3.5896,3.5853,3.5916,3.6692,3.6745,3.634,3.7896,3.789,3.6668,3.7229,3.7135,3.6346,3.6284,3.6284,3.6284,3.6259,3.6233,3.6174,3.6127,3.6058,3.591,3.5839,3.5751,3.56,3.5616,3.5358,3.4857,3.4019,3.3345,3.2766,3.2144,3.1603,3.1121,3.0881,3.0526,3.0035,3.0003,2.9858,2.9541,2.956,2.9671,2.9808,3.0285,3.0752,3.1196,3.1505,3.1674,3.1753,3.2371,3.2816,3.3036,3.3437,3.3676,3.3587,3.3148,3.3097,3.3689,3.4105,3.4301,3.4398,3.4733,3.4906,3.4923,3.4923,3.4899,3.4899,3.4763,3.4618,3.4521,3.4325,3.4025,3.372,3.345,3.3309,3.3069,3.2742,3.2425,3.2163,3.1824,3.1481,3.094,2.9838,2.8681,2.7638,2.6294,2.495,2.4498,2.3872,2.3658,2.3976,2.4055,2.4249,2.4679,2.5326,2.5677,2.5933,2.6154,2.6258,2.6245,2.6198,2.6146,3.6261,3.6286,3.6273,3.6273,3.6278,3.6334,3.6361,3.6396,3.6358,3.6308,3.6176,3.6168,3.6203,3.6279,3.6266,3.612,3.6036,3.7223,3.7388,3.6932,3.8308,3.8343,3.7134,3.7425,3.7154,3.6412,3.6284,3.6284,3.6284,3.6284,3.628,3.6276,3.6229,3.6105,3.5932,3.5839,3.5728,3.5639,3.5616,3.5549,3.5362,3.4863,3.4325,3.3842,3.3116,3.2577,3.2289,3.2097,3.1706,3.1128,3.1096,3.0893,3.0483,3.0492,3.0542,3.0696,3.1242,3.1817,3.2374,3.2571,3.2708,3.2843,3.3418,3.386,3.407,3.4513,3.4818,3.484,3.4362,3.4289,3.4783,3.4947,3.4947,3.497,3.5018,3.5058,3.5034,3.4883,3.4763,3.4763,3.4546,3.4284,3.4101,3.3873,3.3591,3.3319,3.3134,3.3,3.2757,3.2413,3.2064,3.1853,3.1423,3.1043,3.0748,2.9905,2.89,2.7999,2.6814,2.5968,2.558,2.495,2.4738,2.4893,2.4987,2.5093,2.5335,2.5761,2.5943,2.6094,2.6314,2.6602,2.6649,2.6815,2.7196,3.7704,3.7674,3.7705,3.7594,3.769,3.7745,3.7839,3.7718,3.7855,3.7544,3.6884,3.679,3.6838,3.6969,3.7102,3.6638,3.6192,3.8358,3.8409,3.7006,3.8897,3.8912,3.7121,3.7472,3.7212,3.6346,3.6284,3.6284,3.6284,3.6284,3.6276,3.6208,3.6187,3.6058,3.5861,3.5795,3.5728,3.5622,3.5616,3.5503,3.5337,3.5373,3.4918,3.4083,3.3727,3.3258,3.2659,3.2446,3.2361,3.2312,3.2289,3.2279,3.2236,3.222,3.2204,3.2276,3.2325,3.2374,3.2577,3.3086,3.3484,3.3776,3.4346,3.484,3.4868,3.4975,3.5041,3.5088,3.4958,3.4911,3.489,3.497,3.5041,3.5041,3.497,3.4883,3.4899,3.4667,3.4521,3.4472,3.425,3.3949,3.3607,3.3398,3.3266,3.3027,3.2715,3.2453,3.2342,3.1951,3.1638,3.1437,3.1058,3.0553,3.0357,2.9818,2.9086,2.8353,2.762,2.6829,2.6167,2.5662,2.5743,2.5706,2.559,2.5676,2.5968,2.6094,2.6094,2.6267,2.6624,2.6841,2.7067,2.7502,2.7911,3.7622,3.7622,3.7621,3.7611,3.7611,3.7646,3.77,3.7745,3.7778,3.7635,3.7375,3.7321,3.7394,3.754,3.8153,3.8014,3.744,3.8412,3.8303,3.7548,3.8607,3.8352,3.7107,3.7408,3.7155,3.6409,3.6284,3.6284,3.6284,3.6284,3.6255,3.6187,3.6122,3.5971,3.5817,3.5728,3.5644,3.56,3.5616,3.5503,3.5331,3.5337,3.5094,3.4612,3.4572,3.4392,3.4034,3.3917,3.3625,3.3055,3.3039,3.2842,3.2456,3.2442,3.2724,3.3228,3.3363,3.3624,3.4094,3.4423,3.4619,3.4635,3.4875,3.5041,3.5088,3.5088,3.5088,3.5088,3.5018,3.4923,3.4828,3.4899,3.497,3.4947,3.478,3.4643,3.4594,3.4423,3.425,3.4176,3.3873,3.3529,3.333,3.3049,3.2807,3.266,3.2441,3.2203,3.1951,3.168,3.1422,3.119,3.0851,3.0492,3.0189,2.9744,2.9195,2.8766,2.8202,2.7699,2.7097,2.67,2.671,2.6419,2.624,2.607,2.6295,2.6223,2.6258,2.648,2.6837,2.7302,2.7533,2.7962,2.844,3.8115,3.8104,3.8075,3.8064,3.8075,3.8104,3.8136,3.8186,3.8207,3.8078,3.788,3.7814,3.788,3.8082,3.8593,3.8845,3.8714,3.8877,3.8661,3.8169,3.863,3.8296,3.7421,3.7467,3.7133,3.6409,3.6284,3.6284,3.6284,3.6297,3.6229,3.6122,3.5997,3.5866,3.5751,3.5644,3.5616,3.56,3.5594,3.5481,3.5314,3.5268,3.5111,3.493,3.4994,3.4994,3.4899,3.4828,3.4517,3.3985,3.3879,3.3682,3.3261,3.3294,3.3601,3.414,3.4293,3.4562,3.5005,3.5135,3.5152,3.5111,3.5088,3.5088,3.5088,3.5081,3.5034,3.497,3.4851,3.4715,3.4667,3.4643,3.4667,3.4715,3.4521,3.4358,3.4333,3.4151,3.3965,3.3797,3.3555,3.3266,3.3011,3.2753,3.2437,3.2216,3.2064,3.1838,3.161,3.1379,3.1175,3.0911,3.0642,3.028,2.9974,2.9526,2.9275,2.8921,2.8465,2.8111,2.7901,2.7603,2.7335,2.7113,2.6845,2.6622,2.6461,2.6389,2.6531,2.6744,2.7263,2.7799,2.8075,2.8366,2.8862,3.9332,3.9258,3.9305,3.9137,3.9113,3.9133,3.9295,3.9208,3.9296,3.8881,3.8338,3.823,3.8247,3.8414,3.8369,3.8765,3.9366,3.9738,3.9492,3.8769,3.902,3.8736,3.7876,3.7595,3.7057,3.6326,3.6284,3.6301,3.628,3.6251,3.6144,3.6014,3.5883,3.5773,3.56,3.56,3.5616,3.5594,3.5543,3.5446,3.5291,3.5175,3.5041,3.4923,3.4923,3.4923,3.4899,3.4899,3.4842,3.4809,3.4809,3.4883,3.4733,3.4811,3.5005,3.4971,3.5038,3.5071,3.5088,3.5018,3.5041,3.5065,3.5088,3.5088,3.5041,3.4954,3.4851,3.4715,3.4594,3.4472,3.4431,3.4275,3.425,3.444,3.425,3.4101,3.405,3.3848,3.3591,3.3372,3.3229,3.3011,3.259,3.2355,3.2132,3.1838,3.1638,3.1451,3.1278,3.1014,3.0777,3.0582,3.0341,3.0036,2.9696,2.9352,2.9194,2.899,2.8546,2.8137,2.8,2.7769,2.7503,2.7281,2.7148,2.6949,2.6967,2.6919,2.7195,2.7481,2.7941,2.8283,2.8566,2.8885,2.9237,3.9045,3.9045,3.9031,3.9036,3.9017,3.8952,3.8919,3.8919,3.8905,3.8756,3.8534,3.835,3.8346,3.8366,3.8206,3.8284,3.8588,3.8729,3.8864,3.8957,3.8455,3.8037,3.7729,3.7433,3.6939,3.6388,3.6284,3.6259,3.6229,3.6208,3.6079,3.5883,3.5817,3.5728,3.5622,3.5616,3.5616,3.5577,3.552,3.5446,3.5291,3.5158,3.5018,3.4923,3.4899,3.4899,3.4899,3.4899,3.4899,3.4899,3.4899,3.4947,3.5034,3.5081,3.5088,3.5088,3.5088,3.5088,3.5111,3.5152,3.5111,3.5111,3.5088,3.4994,3.4835,3.4787,3.4707,3.4546,3.4374,3.4226,3.4176,3.3975,3.3949,3.4217,3.3975,3.3822,3.3787,3.3581,3.3335,3.3058,3.2839,3.259,3.237,3.2132,3.1766,3.1581,3.1365,3.1146,3.0881,3.0762,3.0552,3.0294,3.0036,2.982,2.954,2.9257,2.9022,2.8876,2.8476,2.8216,2.8066,2.7868,2.7636,2.7559,2.7413,2.744,2.7458,2.7549,2.7792,2.8112,2.8489,2.8782,2.9031,2.9305,2.9626,3.874,3.874,3.8728,3.8713,3.8695,3.8618,3.8554,3.8538,3.8442,3.8442,3.8444,3.8212,3.8145,3.8142,3.794,3.7836,3.7869,3.7819,3.8085,3.8479,3.8002,3.754,3.7361,3.7017,3.6696,3.636,3.6255,3.6212,3.6105,3.6058,3.5971,3.5834,3.5751,3.5689,3.5639,3.5616,3.5616,3.56,3.5526,3.5429,3.5291,3.5175,3.5018,3.4923,3.4899,3.4899,3.4899,3.4899,3.4899,3.4899,3.4899,3.4947,3.5034,3.5081,3.5088,3.5088,3.5088,3.5088,3.5088,3.5065,3.5041,3.497,3.4899,3.4811,3.4643,3.4594,3.4497,3.4349,3.4151,3.4016,3.3924,3.371,3.3658,3.3787,3.3658,3.3519,3.344,3.3256,3.3043,3.2773,3.2551,3.2299,3.202,3.1823,3.1393,3.1263,3.1058,3.0836,3.0582,3.0462,3.0264,3.005,2.9882,2.9665,2.9446,2.9162,2.8894,2.8638,2.8379,2.8229,2.8112,2.7901,2.7669,2.7834,2.7786,2.8293,2.8349,2.8183,2.8259,2.8669,2.9034,2.9089,2.9269,2.9577,2.9834,3.8494,3.8478,3.8415,3.8399,3.8382,3.8322,3.8289,3.8256,3.8136,3.8136,3.8154,3.7915,3.7791,3.779,3.7578,3.7469,3.745,3.7433,3.7396,3.7469,3.7381,3.7289,3.6999,3.6594,3.6339,3.6229,3.6187,3.6122,3.5975,3.5888,3.5795,3.5773,3.5667,3.5616,3.5616,3.5616,3.5616,3.5616,3.5543,3.5429,3.5331,3.5175,3.5041,3.4947,3.4923,3.4849,3.4733,3.4601,3.47,3.4866,3.4923,3.4947,3.4947,3.5058,3.5088,3.5065,3.5088,3.5041,3.5011,3.4851,3.4715,3.4732,3.4618,3.4456,3.4472,3.4374,3.425,3.4075,3.3924,3.3797,3.3658,3.3424,3.3309,3.3256,3.3282,3.3176,3.2908,3.287,3.2718,3.2453,3.2342,3.2176,3.1623,3.148,3.1204,3.0925,3.0702,3.0492,3.0296,3.0144,3.0005,2.982,2.9634,2.9415,2.9194,2.9004,2.8734,2.8495,2.8249,2.8099,2.8113,2.7941,2.7913,2.8043,2.8339,2.8847,2.9112,2.8858,2.8953,2.9396,2.9524,2.945,2.9503,2.9745,2.9847,3.8272,3.829,3.8239,3.8257,3.8241,3.8121,3.8054,3.8003,3.7862,3.7828,3.7739,3.754,3.7449,3.743,3.7242,3.705,3.6989,3.693,3.6851,3.6753,3.6774,3.6814,3.671,3.6419,3.6247,3.6204,3.6144,3.5993,3.5844,3.5839,3.5773,3.5644,3.5622,3.5616,3.5616,3.5616,3.5616,3.5594,3.5543,3.5492,3.5423,3.5222,3.5105,3.5058,3.4947,3.4618,3.4104,3.3564,3.3839,3.4816,3.5011,3.5041,3.4934,3.4981,3.4908,3.483,3.4769,3.473,3.4617,3.4529,3.4513,3.4562,3.4407,3.4423,3.4209,3.4176,3.4025,3.3822,3.3607,3.345,3.3388,3.315,3.2908,3.2715,3.2839,3.2854,3.2621,3.2523,3.2413,3.2135,3.1894,3.1695,3.1466,3.1146,3.0836,3.0628,3.0431,3.0174,3.0021,2.9837,2.9727,2.954,2.9352,2.9131,2.894,2.878,2.8587,2.8365,2.8137,2.7888,2.798,2.8052,2.8161,2.8325,2.8776,2.9274,2.9434,2.9404,2.9764,2.9972,2.9897,2.972,2.9694,2.9793,2.9781,3.8225,3.8209,3.8209,3.8209,3.8192,3.8053,3.7968,3.7863,3.7757,3.7667,3.7576,3.7391,3.7297,3.7278,3.7068,3.6948,3.6846,3.6766,3.6708,3.6647,3.6643,3.6643,3.664,3.6496,3.6395,3.6314,3.6251,3.6101,3.5949,3.5883,3.5778,3.5644,3.5616,3.5616,3.5616,3.5616,3.5616,3.5616,3.5566,3.552,3.5492,3.5354,3.5158,3.5065,3.493,3.4511,3.37,3.3238,3.336,3.3889,3.4024,3.4064,3.4018,3.4018,3.3948,3.3848,3.3778,3.3691,3.362,3.3524,3.3599,3.3763,3.382,3.3825,3.3869,3.3899,3.3761,3.3555,3.3319,3.316,3.2985,3.2757,3.2511,3.2318,3.2345,3.2345,3.2219,3.2163,3.2007,3.1781,3.1567,3.1336,3.1175,3.0807,3.0568,3.0357,3.0158,2.9943,2.9775,2.9602,2.9446,2.9289,2.9099,2.8908,2.8734,2.8573,2.8314,2.8105,2.8093,2.7815,2.7893,2.8075,2.8381,2.8643,2.9152,2.9548,2.9658,2.9791,2.9972,3.005,3.0037,2.9972,2.9818,2.974,2.974,3.8257,3.8209,3.8209,3.8209,3.8192,3.807,3.7985,3.7881,3.7793,3.7685,3.7558,3.741,3.7353,3.7333,3.722,3.7048,3.7027,3.6891,3.6829,3.6788,3.6728,3.6745,3.6745,3.6643,3.6561,3.6461,3.6461,3.6233,3.6019,3.5954,3.5822,3.5644,3.5616,3.5616,3.5616,3.5616,3.5616,3.5616,3.5616,3.5571,3.552,3.5446,3.5268,3.5024,3.4667,3.4268,3.3649,3.3266,3.3106,3.2707,3.2674,3.2755,3.2615,3.2566,3.2531,3.2538,3.259,3.255,3.2488,3.2512,3.2506,3.3088,3.306,3.3006,3.3515,3.3555,3.3398,3.3214,3.3081,3.2866,3.2563,3.2302,3.2107,3.1953,3.1796,3.1768,3.1811,3.1739,3.1581,3.1437,3.1307,3.1014,3.0717,3.0507,3.0387,3.0066,2.9851,2.9696,2.9509,2.932,2.9194,2.9099,2.8908,2.8716,2.8541,2.8379,2.8118,2.7868,2.798,2.7891,2.7889,2.8082,2.8499,2.8924,2.9546,2.9825,2.9856,2.9998,3.0063,3.0011,2.9946,2.9869,2.974,2.965,2.965,3.8309,3.8274,3.8207,3.8209,3.8192,3.8157,3.8055,3.7899,3.7881,3.7757,3.7613,3.7558,3.7539,3.7522,3.7466,3.7373,3.7238,3.7122,3.6952,3.6811,3.6891,3.6928,3.6869,3.6708,3.6544,3.6461,3.6251,3.6084,3.5975,3.5844,3.5667,3.5622,3.5616,3.5616,3.5616,3.5616,3.5616,3.56,3.56,3.5577,3.5509,3.5429,3.5291,3.5102,3.4402,3.3841,3.3475,3.2889,3.2489,3.242,3.2442,3.2436,3.2436,3.2413,3.2344,3.2229,3.2136,3.2253,3.2571,3.253,3.281,3.3265,3.3218,3.3328,3.3324,3.3256,3.3054,3.2823,3.2602,3.2441,3.2163,3.1923,3.1739,3.1596,3.1452,3.1292,3.1146,3.1263,3.1248,3.1014,3.0836,3.0657,3.0387,3.0129,2.9946,2.9727,2.9571,2.9415,2.9257,2.9067,2.8972,2.8876,2.886,2.8666,2.8354,2.8244,2.8146,2.8018,2.808,2.8291,2.8274,2.836,2.8866,2.9404,3.0002,3.011,2.9859,2.9986,3.0037,2.9934,2.983,2.9689,2.9599,2.956,2.9443,3.8435,3.8307,3.8276,3.8224,3.8209,3.8192,3.8072,3.7934,3.7899,3.7775,3.7631,3.7595,3.7595,3.7595,3.7595,3.7485,3.7442,3.759,3.7574,3.7454,3.7477,3.7303,3.6987,3.6829,3.6708,3.6599,3.6297,3.6127,3.5975,3.5861,3.5756,3.5639,3.5616,3.5616,3.5616,3.5616,3.5594,3.5549,3.5549,3.5526,3.5435,3.536,3.5222,3.5071,3.4391,3.3864,3.3383,3.3025,3.2516,3.2201,3.2176,3.2245,3.2292,3.2245,3.2136,3.2019,3.1917,3.1935,3.2151,3.2132,3.224,3.2978,3.2829,3.2903,3.2944,3.2908,3.2715,3.2508,3.2315,3.2079,3.1796,3.1553,3.1365,3.119,3.1029,3.0881,3.0702,3.0821,3.0866,3.0598,3.0462,3.0249,2.9991,2.9761,2.9574,2.9415,2.9352,2.9194,2.9067,2.8908,2.8734,2.8687,2.8768,2.8644,2.8245,2.81,2.821,2.8276,2.8473,2.8785,2.9038,2.9161,2.9321,2.9674,2.9883,2.9846,2.9707,2.9846,2.9921,2.9856,2.9728,2.9548,2.9431,2.9353,2.9209,3.8624,3.834,3.8289,3.8257,3.8207,3.8209,3.8089,3.7934,3.7899,3.7793,3.7649,3.7595,3.7595,3.7595,3.7595,3.7539,3.7745,3.8192,3.8385,3.8304,3.8284,3.8023,3.7634,3.7486,3.7365,3.6991,3.6692,3.6449,3.628,3.6124,3.6078,3.5847,3.5616,3.5616,3.5616,3.5594,3.5566,3.5498,3.5492,3.5446,3.5337,3.5268,3.5152,3.4906,3.4666,3.4218,3.3704,3.3379,3.3007,3.2216,3.2224,3.2296,3.2318,3.2068,3.1917,3.1758,3.1654,3.1677,3.1819,3.1661,3.1732,3.2242,3.2102,3.222,3.2617,3.2539,3.2315,3.2148,3.1923,3.1653,3.1408,3.1131,3.0896,3.0747,3.0598,3.0403,3.0266,3.0312,3.0251,3.0205,3.0021,2.9806,2.9665,2.9477,2.932,2.9176,2.9095,2.9013,2.8867,2.8833,2.8785,2.8662,2.8752,2.8692,2.8305,2.8405,2.8456,2.856,2.8814,2.9099,2.9516,2.9574,2.9527,2.9365,2.9479,2.953,2.9591,2.9691,2.9779,2.9702,2.9599,2.9431,2.9275,2.9157,2.8961,3.8667,3.8446,3.8338,3.829,3.8274,3.8225,3.8123,3.7984,3.7934,3.7828,3.7685,3.7631,3.7595,3.7595,3.7595,3.7822,3.829,3.8911,3.9215,3.9111,3.9111,3.8918,3.8705,3.8496,3.8467,3.8257,3.7724,3.7222,3.6932,3.6752,3.6593,3.6457,3.591,3.5616,3.5661,3.5566,3.5537,3.5469,3.54,3.5291,3.5245,3.5175,3.5065,3.4899,3.4732,3.452,3.4398,3.4088,3.3858,3.3711,3.3535,3.3427,3.3139,3.2417,3.1951,3.1782,3.1618,3.1715,3.1997,3.1887,3.2118,3.2507,3.24,3.2249,3.2367,3.2219,3.1951,3.1638,3.1336,3.0999,3.091,3.0628,3.0433,3.0312,3.0129,2.9884,2.9744,2.9637,2.9605,2.962,2.9481,2.9432,2.9334,2.9259,2.9224,2.9177,2.9176,2.9046,2.8882,2.8958,2.906,2.8906,2.875,2.8607,2.8397,2.8721,2.8909,2.8954,2.913,2.9169,2.949,2.9656,2.963,2.9325,2.9389,2.9616,2.969,2.965,2.9611,2.956,2.9431,2.9263,2.9118,2.8922,2.8736,3.8818,3.859,3.8449,3.837,3.8307,3.8276,3.8156,3.8019,3.7916,3.7828,3.7721,3.7631,3.7595,3.7577,3.7522,3.7994,3.8954,3.9696,3.9947,3.9919,3.9919,3.9656,3.9427,3.9231,3.9007,3.8851,3.8632,3.8258,3.7632,3.7023,3.7083,3.7026,3.6248,3.5808,3.5988,3.5745,3.5519,3.54,3.5268,3.5158,3.5088,3.5018,3.4947,3.4875,3.478,3.4667,3.4546,3.43,3.4025,3.3866,3.3755,3.3617,3.3316,3.2956,3.2504,3.2355,3.2209,3.2237,3.2463,3.2313,3.2307,3.2513,3.2358,3.2163,3.2035,3.1838,3.1567,3.119,3.0925,3.0642,3.0447,3.019,2.9993,2.9777,2.9623,2.9449,2.923,2.904,2.9035,2.9081,2.9158,2.9154,2.9072,2.9036,2.9125,2.9157,2.922,2.91,2.8906,2.9207,2.9432,2.9265,2.9118,2.9048,2.8898,2.9057,2.9284,2.934,2.9285,2.9365,2.9327,2.941,2.9316,2.9071,2.9263,2.956,2.956,2.9509,2.947,2.9392,2.9223,2.9028,2.8882,2.8685,2.855,3.895,3.8704,3.859,3.8465,3.8354,3.8305,3.8223,3.8053,3.7951,3.7846,3.7739,3.7649,3.7595,3.7665,3.7963,3.8553,3.9735,4.0422,4.0678,4.0713,4.0691,4.034,3.9954,3.9736,3.9769,3.9738,3.9839,3.9514,3.8427,3.7787,3.7733,3.7567,3.662,3.609,3.6439,3.5834,3.5501,3.5268,3.5128,3.5011,3.4899,3.4835,3.4851,3.4828,3.4715,3.4545,3.421,3.3908,3.3514,3.3258,3.309,3.3026,3.2892,3.284,3.2788,3.2756,3.2828,3.2877,3.2742,3.2465,3.2238,3.233,3.2051,3.1853,3.1653,3.1466,3.1146,3.0777,3.0462,3.028,3.0052,2.9777,2.9529,2.931,2.9184,2.9071,2.8817,2.8633,2.8625,2.8736,2.8884,2.8975,2.8961,2.9253,2.9417,2.945,2.9496,2.9207,2.9137,2.9648,2.9835,2.9639,2.9516,2.9554,2.9488,2.947,2.9626,2.9678,2.9441,2.9323,2.9178,2.9055,2.8922,2.8843,2.9028,2.9236,2.9302,2.9341,2.9275,2.9157,2.8949,2.8803,2.8697,2.8586,2.8435,3.8974,3.8795,3.8704,3.8611,3.8481,3.8354,3.8289,3.8241,3.8003,3.7917,3.7828,3.7703,3.7613,3.786,3.8828,3.9679,4.0437,4.1037,4.1323,4.1306,4.1341,4.1271,4.1236,4.1323,4.099,4.076,4.0896,4.0284,3.9324,3.8901,3.8822,3.858,3.7438,3.6698,3.6666,3.5849,3.5285,3.5135,3.4994,3.4851,3.4739,3.4715,3.4667,3.4611,3.4464,3.4161,3.3615,3.3291,3.2828,3.2062,3.1736,3.1498,3.1294,3.1278,3.1076,3.1202,3.1705,3.2465,3.2275,3.2038,3.1901,3.1845,3.1694,3.1566,3.135,3.097,3.0613,3.0403,2.9991,2.9727,2.9602,2.9338,2.9103,2.8912,2.8753,2.8665,2.8465,2.855,2.8512,2.8744,2.9046,2.9013,2.8978,2.9384,2.9739,2.9744,2.9696,2.9459,2.9455,2.9992,3.0151,2.9949,2.9844,2.9826,2.9753,2.9795,2.9745,2.9834,2.9513,2.9221,2.8934,2.8724,2.8724,2.8685,2.8831,2.8949,2.9079,2.9118,2.904,2.8961,2.8843,2.8697,2.8562,2.8435,2.8388,3.9059,3.8892,3.8792,3.8719,3.8609,3.8465,3.837,3.829,3.8087,3.7968,3.7863,3.7739,3.7791,3.8245,3.9155,3.9938,4.0605,4.1293,4.1604,4.1604,4.1604,4.1604,4.1552,4.1565,4.1515,4.1426,4.1318,4.1013,4.0242,3.9655,3.9401,3.9416,3.7902,3.6979,3.6939,3.5914,3.5362,3.5065,3.4899,3.4715,3.4618,3.457,3.4546,3.448,3.4064,3.3608,3.3202,3.2869,3.227,3.1731,3.1782,3.1772,3.1336,3.1379,3.1615,3.1107,3.1177,3.1247,3.1067,3.1124,3.1179,3.1232,3.1169,3.1205,3.0955,3.0493,3.0083,2.9898,2.9571,2.9289,2.9067,2.8798,2.8605,2.8457,2.8381,2.8464,2.8439,2.8505,2.8609,2.8886,2.9166,2.9227,2.9315,2.9697,3.0045,3.0072,3.0207,3.0253,3.0184,3.0424,3.0446,3.0222,3.0124,3.0126,2.9986,2.9885,2.9617,2.9576,2.9215,2.8882,2.8578,2.8419,2.8419,2.8407,2.8447,2.8605,2.8855,2.8922,2.8882,2.8803,2.8724,2.875,2.8735,2.8638,2.8568,3.9175,3.9036,3.8892,3.8792,3.8719,3.859,3.8465,3.8322,3.8153,3.8019,3.7899,3.7775,3.8038,3.8699,3.9365,4.0041,4.0836,4.1358,4.1552,4.1604,4.1604,4.1604,4.1604,4.1582,4.1538,4.1431,4.1156,4.1068,4.081,4.025,3.987,4.026,3.8557,3.7621,3.7201,3.6377,3.5506,3.497,3.4756,3.4594,3.4472,3.4431,3.4423,3.4211,3.3771,3.317,3.2708,3.2615,3.2047,3.1205,3.1683,3.1592,3.0959,3.1186,3.124,3.0762,3.0516,3.0228,3.0075,3.0071,3.0199,3.0459,3.0674,3.0791,3.0357,2.9915,2.9591,2.9418,2.9162,2.8844,2.8587,2.8333,2.8151,2.8099,2.8087,2.8257,2.8423,2.8572,2.8769,2.9123,2.9417,2.9628,2.9792,3.0131,3.0359,3.0435,3.0596,3.0809,3.0746,3.0645,3.0442,3.0163,3.0164,3.0037,2.9845,2.9729,2.9548,2.9314,2.8961,2.8661,2.8343,2.8207,2.8191,2.8179,2.8143,2.8419,2.8697,2.8724,2.8724,2.8693,2.8762,2.8988,2.9001,2.8893,2.873,3.9301,3.917,3.9054,3.8906,3.8792,3.8719,3.8578,3.8401,3.8185,3.8036,3.7881,3.7828,3.841,3.9284,3.9699,4.0355,4.1481,4.1587,4.1604,4.1604,4.1604,4.1604,4.1604,4.1604,4.1565,4.1459,4.1174,4.1125,4.1101,4.0589,4.0359,4.0226,3.9187,3.8389,3.7489,3.6456,3.5473,3.4903,3.4594,3.4448,3.4349,3.43,3.425,3.4134,3.3838,3.318,3.1709,3.2012,3.1653,3.0351,3.1103,3.1161,3.0706,3.094,3.0823,3.0274,2.9981,2.9699,2.9502,2.9476,2.9625,3.0042,3.0353,3.0357,2.9913,2.9696,2.9369,2.8962,2.8702,2.8476,2.8249,2.8039,2.7723,2.7708,2.7829,2.8131,2.8355,2.8686,2.89,2.9329,2.9588,2.9818,2.9871,3.0123,3.0324,3.0387,3.0438,3.0634,3.0405,3.0252,3.0126,2.9999,3.005,2.9908,2.9535,2.938,2.9314,2.9079,2.8764,2.8438,2.8112,2.8039,2.8042,2.8016,2.8048,2.8319,2.8586,2.8686,2.8787,2.8707,2.8823,2.909,2.9398,2.9456,2.9086,3.8484,3.8436,3.885,3.9007,3.8906,3.8807,3.8704,3.8562,3.8385,3.8138,3.7917,3.824,3.8801,3.9532,4.0197,4.0782,4.1539,4.1604,4.1604,4.1604,4.1604,4.1604,4.1604,4.1604,4.1587,4.1516,4.1271,4.1236,4.141,4.0954,4.0816,4.0507,3.9805,3.8664,3.7564,3.627,3.5224,3.4774,3.4448,3.43,3.4201,3.4176,3.4151,3.4084,3.3301,3.2862,3.2176,3.2067,3.134,3.0886,3.1337,3.1056,3.0584,3.0907,3.0697,3.0061,2.9779,2.9528,2.9388,2.9375,2.9638,2.9911,3.0092,2.996,2.954,2.9306,2.9053,2.867,2.8216,2.7954,2.7789,2.7536,2.7273,2.7322,2.7576,2.7934,2.8349,2.8688,2.9034,2.9428,2.972,2.991,2.9961,2.9973,3.019,3.0343,3.0355,3.0355,3.0152,2.9974,2.9872,2.977,2.9793,2.9715,2.938,2.9236,2.9131,2.8843,2.8566,2.8255,2.7956,2.7983,2.7938,2.7888,2.8048,2.8391,2.8655,2.8787,2.8787,2.8691,2.8934,2.9314,2.9603,2.9968,2.9401,3.8109,3.8348,3.8859,3.9045,3.8979,3.8892,3.8825,3.8704,3.8496,3.8188,3.7864,3.8292,3.8927,3.9642,4.017,4.1007,4.1529,4.1732,4.1732,4.1732,4.1732,4.1732,4.1732,4.1732,4.1754,4.1679,4.145,4.1362,4.1714,4.1376,4.1176,4.0804,4.01,3.8996,3.7727,3.6025,3.4816,3.4497,3.4284,3.4201,3.4126,3.4101,3.4101,3.4018,3.3379,3.2809,3.2479,3.2227,3.1784,3.1409,3.1442,3.1486,3.1117,3.0828,3.0779,3.0264,2.9748,2.9406,2.9276,2.9406,2.9504,2.9611,2.9785,2.9654,2.9415,2.9008,2.8702,2.8314,2.7822,2.7436,2.7335,2.7032,2.6985,2.7059,2.7437,2.7832,2.8385,2.8825,2.9164,2.9565,2.9653,2.9678,2.9651,2.9624,2.9805,2.9998,3.0075,3.0075,3.0011,2.9858,2.9742,2.96,2.9509,2.9353,2.9223,2.9104,2.8958,2.8736,2.8435,2.8088,2.7865,2.7938,2.8098,2.825,2.8412,2.8635,2.8943,2.9316,2.9039,2.8619,2.9162,2.9846,2.9955,3.0161,2.9475,3.8433,3.9141,3.9091,3.9078,3.9007,3.8993,3.8906,3.8795,3.8585,3.8281,3.8008,3.8042,3.8715,3.972,4.0233,4.0967,4.1732,4.1945,4.1945,4.1923,4.1902,4.1962,4.1962,4.1923,4.1902,4.1771,4.1538,4.1499,4.1927,4.1442,4.1274,4.1116,4.0435,3.9361,3.843,3.6529,3.5151,3.443,3.4257,3.4126,3.4101,3.4101,3.4084,3.3799,3.339,3.2825,3.2234,3.2034,3.163,3.1292,3.1235,3.119,3.0983,3.0192,2.9791,2.933,2.8852,2.8526,2.8312,2.8811,2.9049,2.9114,2.9301,2.94,2.9121,2.8766,2.8379,2.8052,2.7602,2.7206,2.6909,2.664,2.6746,2.6916,2.7258,2.7717,2.8263,2.871,2.9021,2.9356,2.9275,2.9143,2.9182,2.9221,2.9417,2.9611,2.974,2.9779,2.974,2.965,2.9521,2.9404,2.9248,2.9118,2.9,2.8943,2.8797,2.8562,2.8339,2.8051,2.8054,2.8267,2.8415,2.8604,2.8952,2.9263,2.9617,2.9965,2.9556,2.928,2.9929,3.0481,3.0548,3.0213,2.9447,3.8101,3.838,3.8873,3.9087,3.9059,3.904,3.8983,3.8955,3.9026,3.9136,3.9388,3.9685,4.0069,4.0648,4.1034,4.149,4.1885,4.2005,4.2005,4.2005,4.2009,4.2005,4.2005,4.2009,4.2009,4.1934,4.1669,4.1637,4.1966,4.1619,4.1541,4.138,4.0447,3.9236,3.7644,3.596,3.4667,3.487,3.45,3.4101,3.4101,3.4101,3.3906,3.3518,3.3019,3.2431,3.1688,3.154,3.1184,3.0905,3.0874,3.0687,3.0513,2.9815,2.9379,2.9011,2.8594,2.8183,2.8137,2.8444,2.8782,2.8834,2.8942,2.917,2.9192,2.8565,2.8157,2.7795,2.7421,2.6958,2.6471,2.6586,2.6717,2.6742,2.7065,2.7508,2.8014,2.8346,2.8667,2.9036,2.9104,2.9052,2.9052,2.8986,2.9143,2.9221,2.9339,2.9378,2.9378,2.9339,2.9209,2.917,2.9052,2.8934,2.884,2.8918,2.8863,2.8707,2.8478,2.8236,2.8326,2.8651,2.8651,2.8781,2.9386,2.9929,2.9821,2.9773,2.9977,3.0122,3.0338,3.0409,3.0334,2.984,2.9112,3.8061,3.8377,3.8878,3.9101,3.9101,3.9064,3.9061,3.9225,3.9556,3.986,4.0065,4.0469,4.0802,4.1062,4.1487,4.2,4.2058,4.2115,4.2115,4.2115,4.2097,4.2097,4.2115,4.2094,4.2118,4.2094,4.2094,4.2115,4.2118,4.2115,4.1775,4.1143,4.027,3.9227,3.7727,3.6431,3.5366,3.5379,3.4839,3.4279,3.4327,3.423,3.3802,3.3225,3.2663,3.2051,3.1328,3.0838,3.0598,3.0577,3.0371,3.0207,2.9983,2.9343,2.8791,2.8311,2.7993,2.7726,2.792,2.8058,2.841,2.8733,2.8813,2.9072,2.916,2.85,2.798,2.76,2.7284,2.6841,2.6517,2.6709,2.6895,2.6907,2.7139,2.7602,2.8029,2.8382,2.8443,2.8785,2.8946,2.8934,2.8934,2.8855,2.8855,2.8855,2.8907,2.8973,2.9052,2.9013,2.8973,2.8934,2.8855,2.8736,2.8826,2.9052,2.896,2.8811,2.8712,2.8627,2.8881,2.9231,2.9095,2.9094,2.9816,3.0158,2.9605,2.9508,2.9845,2.9953,2.9953,3.0007,3.0017,2.9557,2.8974,3.8377,3.9045,3.9082,3.9101,3.9101,3.9212,3.9356,3.9591,4.0112,4.0253,4.0092,4.0253,4.0697,4.1127,4.1234,4.1642,4.216,4.2267,4.2284,4.2284,4.2225,4.2264,4.2267,4.2267,4.2225,4.2267,4.2267,4.2243,4.2267,4.2246,4.1766,4.0905,4.0083,3.9285,3.8346,3.7237,3.6358,3.5837,3.5065,3.4603,3.457,3.4343,3.3761,3.3193,3.2705,3.2081,3.1419,3.0923,3.0923,3.0716,3.0228,3.0109,2.95,2.8319,2.7576,2.7132,2.7086,2.7399,2.7721,2.7946,2.8269,2.8703,2.9131,2.9334,2.9135,2.8592,2.8145,2.7844,2.7586,2.7078,2.6723,2.7029,2.733,2.7375,2.7456,2.7866,2.83,2.843,2.8406,2.8542,2.8578,2.859,2.863,2.863,2.8669,2.8669,2.8709,2.8776,2.8816,2.8816,2.8776,2.8776,2.8697,2.855,2.8727,2.9116,2.9184,2.91,2.9356,2.9376,2.965,2.9699,2.9599,2.9719,3.0343,3.0434,2.9857,2.9701,2.9845,2.9881,2.9785,2.9851,2.9899,2.9611,2.9066,3.8878,3.9101,3.9101,3.9101,3.9212,3.9924,4.0289,4.0412,4.0908,4.1276,4.1591,4.1591,4.1609,4.193,4.1948,4.2091,4.2198,4.2308,4.2287,4.2308,4.2308,4.2308,4.2308,4.2308,4.2308,4.2308,4.2308,4.2308,4.2287,4.2287,4.1839,4.0981,4.0208,3.963,3.8768,3.7692,3.6988,3.6238,3.5364,3.4975,3.4651,3.436,3.3761,3.3217,3.2844,3.218,3.1397,3.0999,3.0923,3.0572,3.0366,3.0201,2.9694,2.9,2.8416,2.7669,2.7582,2.7665,2.7847,2.8227,2.8577,2.89,2.933,2.947,2.9306,2.8958,2.8529,2.843,2.8084,2.7613,2.7496,2.7691,2.778,2.7719,2.7804,2.8014,2.8376,2.8354,2.8342,2.8474,2.851,2.851,2.851,2.851,2.859,2.851,2.855,2.8578,2.8657,2.8657,2.8657,2.8618,2.8578,2.851,2.8871,2.9232,2.934,2.9455,2.967,2.9808,2.9832,2.9881,2.9927,3.0024,3.0121,3.0206,3.0098,2.9905,2.9556,2.9701,2.9677,2.9743,2.9786,2.9624,2.9253,3.9101,3.9101,3.9101,3.9212,3.9553,4.0321,4.0796,4.1089,4.1607,4.202,4.2272,4.2254,4.2308,4.2272,4.2254,4.229,4.229,4.2308,4.2308,4.2308,4.2308,4.2308,4.2308,4.2308,4.2308,4.2308,4.2308,4.2308,4.2267,4.2103,4.1709,4.1024,4.0487,3.9834,3.9076,3.8243,3.7442,3.674,3.6044,3.5445,3.4991,3.457,3.3971,3.3266,3.2925,3.2302,3.1422,3.1087,3.0937,3.0658,3.0554,3.0171,2.9783,2.9358,2.8799,2.8149,2.8186,2.8324,2.8633,2.9167,2.935,2.956,2.9954,3.0319,3.0039,2.9618,2.9547,2.9477,2.886,2.8362,2.8413,2.8435,2.8224,2.8081,2.8125,2.8195,2.8225,2.8201,2.8306,2.8462,2.851,2.851,2.851,2.851,2.851,2.851,2.851,2.851,2.855,2.855,2.855,2.855,2.855,2.8534,2.8919,2.9256,2.9424,2.9606,2.986,2.9953,2.9971,2.9827,2.967,2.9583,2.9527,2.9569,2.9569,2.9292,2.9039,2.9292,2.9665,2.9905,3.0007,2.9979,2.9494,3.9115,3.9101,3.9101,3.9474,4.0031,4.0455,4.0944,4.159,4.1948,4.2236,4.229,4.2308,4.2308,4.2308,4.2308,4.2308,4.2308,4.2308,4.2308,4.2308,4.2308,4.2308,4.2308,4.2308,4.2308,4.2308,4.2246,4.2145,4.2142,4.1956,4.1591,4.0966,4.0334,3.9749,3.9209,3.8569,3.789,3.742,3.6756,3.6141,3.5768,3.5283,3.4522,3.3494,3.3072,3.269,3.1815,3.1439,3.1381,3.1081,3.073,3.0383,2.993,2.9448,2.8896,2.8743,2.8776,2.9083,2.9448,2.9954,3.0305,3.0642,3.112,3.1274,3.095,3.0432,3.0358,3.0508,2.9998,2.9749,2.9748,2.9579,2.9326,2.8989,2.8836,2.8655,2.8376,2.8342,2.8402,2.851,2.851,2.851,2.851,2.8522,2.8667,2.8595,2.851,2.851,2.8595,2.8595,2.851,2.851,2.851,2.8546,2.8751,2.9088,2.9448,2.9708,2.9908,3.0081,3.0031,2.9744,2.9367,2.9242,2.9088,2.8931,2.8835,2.8823,2.9003,2.9268,2.9641,3.0025,3.0204,3.0324,2.976,3.9192,3.9101,3.9101,3.9756,4.0712,4.009,4.0835,4.2276,4.1642,4.177,4.2218,4.2308,4.2308,4.2308,4.2308,4.2308,4.2308,4.2308,4.2308,4.2308,4.2308,4.2308,4.2308,4.2308,4.2308,4.2225,4.2124,4.1956,4.1805,4.1631,4.1346,4.0713,4.0136,3.9697,3.9071,3.856,3.8213,3.7954,3.7323,3.6481,3.5768,3.4943,3.4052,3.3825,3.3695,3.3411,3.2825,3.2698,3.2477,3.2129,3.1587,3.1021,3.0381,2.9668,2.9377,2.938,2.9406,2.9743,3.0147,3.0586,3.0881,3.1176,3.1513,3.1794,3.1727,3.1291,3.1165,3.1385,3.1346,3.1119,3.091,3.0677,3.0367,2.9961,2.9549,2.9106,2.8657,2.855,2.851,2.851,2.851,2.851,2.851,2.8595,2.8763,2.8727,2.8582,2.857,2.8763,2.8811,2.8546,2.851,2.851,2.857,2.8715,2.8931,2.9292,2.9438,2.9553,2.981,2.9996,2.9576,2.9082,2.8834,2.8643,2.8655,2.8799,2.9003,2.9196,2.9593,3.0074,3.0651,3.0782,3.0874,3.0114,3.9165,3.9124,3.9363,4.0114,4.0956,4.0592,4.1288,4.2384,4.1928,4.1877,4.2254,4.2308,4.2308,4.2308,4.2308,4.2308,4.2308,4.2308,4.2308,4.2308,4.2308,4.2308,4.2308,4.2308,4.2308,4.2246,4.2019,4.1805,4.1475,4.1346,4.1053,4.0302,3.9876,3.948,3.8832,3.8504,3.8391,3.8343,3.7679,3.6886,3.5914,3.5218,3.4408,3.4279,3.4041,3.3819,3.3503,3.3266,3.2931,3.237,3.1677,3.0822,3.0163,2.969,2.9746,2.9912,3.0062,3.0259,3.0797,3.119,3.1443,3.178,3.223,3.2637,3.2693,3.2324,3.2324,3.2423,3.1889,3.1617,3.1608,3.1426,3.0994,3.0544,3.0215,2.9807,2.9067,2.851,2.851,2.851,2.851,2.851,2.851,2.8522,2.8703,2.8979,2.8811,2.8751,2.8919,2.8883,2.8655,2.851,2.851,2.8522,2.8595,2.8835,2.9148,2.9246,2.9218,2.9159,2.9217,2.9083,2.8835,2.8715,2.8667,2.8715,2.8883,2.928,2.9977,3.0567,3.1031,3.1476,3.1506,3.1414,3.0514,3.9217,3.9333,3.976,4.047,4.1203,4.1324,4.1826,4.2487,4.2248,4.2165,4.2308,4.2308,4.2308,4.2308,4.2308,4.2308,4.2308,4.2308,4.2308,4.2308,4.2308,4.2308,4.2308,4.2308,4.2225,4.2061,4.1849,4.1525,4.1186,4.1094,4.0724,3.9817,3.9428,3.9206,3.8628,3.8391,3.8391,3.8213,3.7776,3.736,3.6724,3.6076,3.5218,3.4635,3.4325,3.4085,3.3763,3.3513,3.3271,3.2668,3.2061,3.1168,3.052,3.0182,3.0351,3.0544,3.0656,3.1007,3.1499,3.1963,3.2244,3.2595,3.3066,3.3248,3.3234,3.3234,3.3234,3.2995,3.2456,3.2277,3.2268,3.216,3.1709,3.1068,3.0769,3.0228,2.9328,2.855,2.855,2.851,2.851,2.851,2.851,2.851,2.8715,2.9003,2.9088,2.9088,2.9015,2.8799,2.8582,2.851,2.851,2.8522,2.8534,2.8691,2.8967,2.8879,2.8834,2.8597,2.8502,2.8635,2.8751,2.8811,2.8787,2.8967,2.9364,2.9809,3.0567,3.1428,3.1889,3.2286,3.2471,3.2192,3.1042,3.9709,4.016,4.0284,4.0861,4.1605,4.1211,4.1469,4.2179,4.1667,4.1663,4.22,4.2308,4.2308,4.2308,4.2308,4.2308,4.2308,4.2308,4.2308,4.2308,4.2308,4.2308,4.2267,4.2163,4.2037,4.1805,4.1542,4.1226,4.1041,4.0948,4.0549,3.9731,3.961,3.9232,3.8572,3.8391,3.8375,3.8197,3.7873,3.7409,3.7198,3.6659,3.6206,3.5898,3.5882,3.5492,3.5165,3.5027,3.4648,3.4031,3.3081,3.204,3.1361,3.0928,3.105,3.119,3.1288,3.1654,3.2131,3.2412,3.2651,3.2988,3.3276,3.3276,3.3262,3.3262,3.3262,3.3262,3.2917,3.2917,3.2931,3.2931,3.2547,3.1636,3.1068,2.9999,2.8988,2.8736,2.863,2.859,2.851,2.851,2.851,2.8582,2.8751,2.8919,2.8835,2.8859,2.9136,2.8859,2.851,2.851,2.851,2.851,2.8522,2.8522,2.8679,2.8567,2.8503,2.8435,2.8435,2.8467,2.8607,2.879,2.9131,2.9412,2.9845,3.0458,3.1156,3.1937,3.2623,3.3083,3.3303,3.2941,3.1791]}]]